GFSMW_2pvu_pres_000.txt.gz
Presure
154 171 159 158 157 151 161 160 166 167 163 157 155 153 105 97 97 151 144 141 140 148 145 187 176 164 149 159 170 194 163 187 162 181 115 83 134 185 201 145 224 184 199
163 162 157 160 165 167 162 161 157 100 117 149 155 157 151 151 153 153 141 152 145 145 150 163 153 157 174 179 190 174 172 107 126 195 194 188 162 145 209 154 192 173 208
158 151 150 150 151 121 123 96 156 153 155 149 149 157 157 138 135 141 143 174 130 144 176 181 172 183 166 184 182 202 187 132 121 182 201 188 166 223 203 174 184 135 133
151 151 90 108 159 159 91 148 154 158 156 154 153 135 152 157 155 167 180 164 181 183 174 168 146 157 169 167 166 167 113 137 197 138 143 207 125 227 176 143 178 187 195
130 90 157 90 90 135 160 160 152 145 148 154 163 163 154 157 156 179 157 167 164 163 177 178 148 170 146 182 122 174 180 178 238 242 171 134 165 200 184 178 170 185 167
125 138 154 138 151 154 157 140 145 147 152 148 149 142 125 143 176 154 176 170 181 165 161 186 187 191 175 193 168 180 196 184 76 107 99 193 204 174 162 171 181 183 182
155 163 158 153 140 143 140 126 128 135 159 150 167 161 165 160 172 176 171 168 165 145 99 171 160 170 176 186 191 168 183 231 79 189 185 162 126 185 169 184 189 184 195
127 116 151 157 155 144 163 126 145 151 150 125 167 172 169 169 173 171 184 173 140 185 171 133 122 182 87 194 190 195 168 205 170 80 95 127 196 190 184 154 191 174 187
162 163 154 149 148 149 162 156 145 168 171 159 157 163 165 157 149 158 149 182 150 167 186 105 165 185 185 183 187 169 241 153 178 199 200 129 200 184 156 185 193 183 205
174 159 160 163 166 157 151 164 164 172 171 165 142 166 169 175 129 177 172 186 173 187 109 194 170 150 135 199 197 214 233 184 189 197 174 193 179 175 190 195 183 192 197
139 163 168 126 145 100 166 171 165 166 169 116 163 161 173 80 84 182 174 169 186 197 168 187 183 188 197 183 164 181 73 70 154 192 189 186 190 197 183 184 190 191 199
157 170 171 169 169 167 157 177 178 168 169 175 179 114 174 180 159 189 188 181 182 174 204 204 187 100 205 173 162 240 214 171 197 205 194 170 180 180 185 191 195 196 188
168 167 160 152 179 171 171 175 170 168 158 181 183 175 171 187 181 181 191 203 211 204 201 177 190 204 144 183 210 253 148 186 190 171 195 201 189 191 192 181 189 175 180
163 144 156 127 173 177 164 113 143 174 182 170 163 189 193 181 170 171 187 198 188 201 203 176 218 109 211 229 242 175 197 187 164 193 185 197 180 192 200 182 174 191 203
137 167 178 176 171 88 160 181 182 178 167 193 193 174 168 201 206 206 197 205 203 202 214 278 219 209 221 184 207 211 191 198 173 205 201 180 179 197 170 196 204 199 213
77 150 167 176 181 181 149 183 185 187 156 189 174 177 196 154 152 153 181 219 190 238 216 207 208 212 204 202 204 201 178 194 200 212 200 205 205 205 202 187 144 215 215
172 179 183 186 188 182 147 193 190 182 196 200 170 157 202 175 219 202 205 201 183 185 169 214 206 181 187 168 182 212 200 201 214 220 215 214 196 212 209 221 231 225 213
182 176 136 125 182 193 187 182 173 179 183 191 186 194 221 160 209 219 173 228 226 190 184 185 194 211 154 212 199 220 207 197 202 188 200 185 213 217 259 225 218 216 208
176 117 192 186 175 135 127 209 184 175 151 158 198 169 213 228 217 193 170 198 199 198 199 185 200 200 208 213 233 233 267 174 189 250 240 252 255 241 242 247 221 225 333
105 165 168 120 162 171 188 137 166 138 196 203 140 209 197 167 173 181 187 204 162 277 210 248 232 352 189 360 374 228 257 332 286 295 271 284 361 368 343 353 346 340 324
100 116 119 146 197 141 165 196 181 184 181 205 171 193 187 228 175 206 241 259 236 275 299 311 237 235 320 294 237 288 333 270 314 295 348 308 235 362 352 346 337 327 382
129 159 177 192 160 161 181 213 200 257 264 216 177 174 212 265 257 302 350 229 201 305 248 384 344 375 369 355 352 358 342 334 354 352 362 392 378 367 361 366 294 386 369
135 135 135 168 223 193 183 220 228 343 239 263 275 311 253 221 332 284 296 341 366 380 376 380 392 393 388 386 382 383 374 367 368 311 279 323 278 354 334 258 246 365 345
165 165 180 217 284 241 219 218 293 283 313 335 360 308 342 335 332 321 303 305 318 385 387 396 322 308 304 335 337 378 316 367 329 321 330 349 352 437 401 403 353 253 280
200 221 296 314 291 356 323 341 331 324 369 359 355 371 374 344 314 315 319 290 338 385 415 370 412 379 370 372 370 364 441 395 362 315 293 319 308 337 348 294 259 335 309
237 355 222 317 284 309 337 335 376 375 376 376 379 320 314 319 319 384 395 423 410 353 313 370 366 362 357 340 330 338 337 389 409 415 308 289 294 281 270 256 316 320 307

GFSMW_2pvu_pres_003.txt.gz
Presure
169 167 161 152 170 166 160 162 158 169 160 161 97 101 158 161 154 154 160 153 148 135 149 147 169 178 170 179 174 170 157 181 134 145 176 147 143 135 189 204 242 249 161
165 160 158 160 161 154 151 151 134 152 157 97 158 154 154 158 124 155 159 161 142 149 148 160 176 157 159 168 167 164 172 158 142 174 173 164 176 184 188 239 170 219 197
168 164 159 159 160 154 149 158 160 123 159 159 160 155 87 121 151 146 150 145 152 148 152 169 169 162 179 139 172 153 125 171 192 76 186 180 179 176 136 179 174 185 183
162 160 166 165 159 128 164 163 161 150 157 157 152 149 146 140 164 170 145 148 169 148 157 172 173 138 167 167 151 143 129 163 176 183 189 197 195 181 154 70 173 155 198
152 162 167 133 135 93 143 133 135 152 152 151 126 131 168 158 161 150 156 175 171 161 161 159 181 153 164 180 144 146 68 78 155 170 183 191 181 192 64 143 163 182 189
171 162 157 148 128 161 161 159 136 132 128 120 153 128 143 164 162 175 159 171 128 169 179 170 160 166 178 178 99 155 159 174 179 172 189 200 183 107 91 202 191 197 188
161 145 120 167 127 95 97 161 165 154 140 160 163 158 91 130 153 173 163 166 158 171 137 167 151 167 118 72 99 188 182 171 206 194 194 169 130 151 199 246 205 200 166
102 124 163 137 158 169 154 165 171 166 162 168 174 102 165 163 173 179 179 175 154 109 178 167 166 160 70 181 177 184 178 193 189 100 189 65 71 209 240 241 159 162 196
169 152 171 171 142 152 144 177 151 174 156 171 127 168 173 168 171 170 167 152 179 181 175 163 180 187 81 172 88 179 177 152 94 169 190 210 205 217 253 197 240 211 179
163 158 161 150 169 153 141 164 110 170 151 163 167 174 162 178 158 161 177 173 181 173 170 182 194 191 171 183 205 201 201 192 160 190 202 179 174 243 232 161 199 153 197
143 157 153 169 151 173 156 172 170 162 167 175 164 179 76 163 155 170 176 183 169 167 176 192 174 171 184 202 190 203 199 212 193 200 148 222 261 241 219 254 161 180 189
171 125 174 150 168 170 155 152 171 172 174 136 166 161 176 180 178 186 188 173 191 194 195 183 184 204 204 202 207 205 210 176 201 203 167 226 182 218 166 175 192 189 186
101 157 176 137 171 154 174 157 170 174 173 158 174 180 178 189 182 182 174 196 138 182 181 185 150 158 201 184 193 181 231 177 191 169 178 192 165 208 188 195 195 197 196
146 171 159 122 173 169 171 179 179 160 173 179 179 187 185 176 173 192 193 182 181 192 188 154 209 160 211 235 176 180 163 181 158 203 172 211 164 190 188 190 172 191 173
163 161 164 145 142 181 167 172 164 182 188 129 145 163 188 191 191 189 180 146 162 183 147 159 184 205 178 160 165 220 226 167 201 228 196 205 170 197 167 179 189 192 199
179 178 179 180 162 177 177 180 183 118 162 188 193 136 140 200 166 218 174 142 127 132 153 143 211 150 191 144 208 193 189 233 221 202 205 224 212 168 227 191 231 220 198
179 173 170 177 181 182 186 149 168 192 182 164 180 165 145 137 146 189 162 151 184 241 202 237 180 170 228 241 265 229 302 181 232 363 320 382 275 272 312 266 383 245 316
174 180 179 152 187 192 170 186 135 131 125 125 158 146 157 134 146 204 191 188 210 189 191 263 231 268 354 200 225 298 289 323 212 284 269 283 356 262 231 348 338 293 373
188 140 186 188 159 144 139 121 117 117 141 135 151 163 236 182 238 202 230 220 254 257 254 388 319 396 285 238 274 244 252 298 348 195 376 372 375 392 379 341 386 375 289
191 168 193 196 137 107 133 130 135 173 194 169 164 230 239 222 240 243 331 347 370 256 265 359 404 361 227 402 397 328 318 392 365 378 312 337 369 369 369 370 376 377 371
201 216 132 133 186 133 134 197 181 130 138 193 210 229 345 277 273 238 278 374 302 393 393 392 391 389 369 333 327 325 329 353 391 384 359 376 375 376 375 377 390 342 398
189 145 134 151 143 220 231 198 77 120 279 289 313 262 292 393 387 386 387 386 388 389 392 356 324 321 323 325 333 336 395 398 407 355 320 309 310 308 337 366 360 374 325
155 140 123 134 149 190 177 191 242 234 298 405 397 264 317 388 385 384 384 386 384 378 324 326 331 323 320 399 410 411 335 411 413 398 414 415 428 390 378 356 331 353 360
119 129 187 211 241 244 277 292 159 318 392 272 379 317 319 379 376 374 368 365 367 339 384 384 383 375 365 363 368 370 370 350 317 355 346 355 367 435 374 312 298 338 368
222 227 194 139 257 279 312 267 341 306 388 382 372 330 377 377 372 366 367 371 372 369 362 355 362 362 354 355 356 350 344 343 343 344 345 338 302 376 360 329 291 305 424
236 194 234 226 266 298 329 410 392 390 384 380 374 373 369 365 315 286 289 353 351 356 352 350 353 351 351 351 347 340 338 324 330 331 332 334 337 355 476 315 280 281 274

GFSMW_2pvu_pres_006.txt.gz
Presure
135 178 174 167 169 163 157 200 162 159 157 156 95 95 158 97 96 157 160 151 147 147 145 159 152 135 152 166 164 161 171 175 158 159 170 163 78 188 171 174 193 151 146
138 131 151 173 162 166 158 163 140 149 149 148 158 161 161 102 122 149 146 141 152 160 164 159 144 150 161 171 145 163 158 172 171 150 151 158 158 152 183 193 194 154 193
157 152 151 147 168 166 167 157 151 159 157 169 167 148 152 158 90 141 152 139 135 135 161 147 165 179 153 159 157 177 160 119 170 163 168 166 183 164 173 165 198 198 184
163 147 155 176 161 159 163 169 165 169 167 155 144 118 145 147 159 121 125 126 141 154 167 152 175 157 132 165 150 170 158 177 143 94 155 104 172 169 204 179 193 181 183
163 160 123 106 171 178 156 166 126 128 132 168 137 158 137 164 130 131 95 167 139 108 149 130 169 169 155 167 145 164 172 161 174 146 187 186 168 184 209 197 151 203 183
177 118 139 110 108 166 114 165 169 138 102 108 144 172 168 166 169 150 163 133 116 156 176 169 173 166 165 177 172 178 153 123 106 119 182 171 173 109 65 194 193 189 197
168 154 103 101 178 164 129 100 142 138 147 140 144 169 146 161 149 147 171 160 160 160 168 169 157 177 126 167 180 182 167 78 189 124 171 172 190 65 82 152 187 211 209
96 99 102 172 151 175 150 171 148 155 172 171 166 132 170 156 151 172 172 169 179 172 161 170 166 167 170 187 178 166 186 192 191 174 176 193 197 183 185 141 186 211 183
120 158 155 94 165 168 168 152 159 145 145 143 177 174 77 155 170 167 167 167 169 159 169 173 175 177 181 173 181 189 190 177 169 185 198 191 179 211 204 170 208 202 174
168 131 108 164 169 155 157 154 175 165 169 168 162 167 169 166 173 181 181 169 159 177 175 178 185 174 174 191 184 185 185 184 196 169 180 194 183 128 210 201 208 167 197
153 158 160 167 174 179 165 165 140 163 177 167 167 166 165 146 157 168 165 154 175 177 187 180 178 183 194 203 202 183 205 189 169 217 192 151 163 177 196 155 156 227 199
168 170 161 137 178 141 134 141 178 167 173 161 163 180 177 170 163 175 176 133 181 139 172 192 156 200 189 161 213 205 163 208 158 143 142 151 205 163 161 207 225 162 224
168 170 143 132 179 178 103 134 170 162 175 183 180 163 160 168 159 161 180 194 182 181 193 122 148 188 155 183 152 155 241 227 184 156 160 166 154 236 171 187 217 170 189
155 173 162 179 158 157 152 161 175 180 178 166 162 178 178 181 167 192 185 183 179 147 149 152 136 180 167 196 180 157 161 169 182 228 199 193 251 343 179 218 284 169 212
167 178 158 157 151 173 177 180 172 166 172 171 181 183 134 193 191 139 139 121 161 139 144 148 185 147 214 216 179 370 190 158 258 275 309 313 241 246 241 248 309 243 206
148 187 179 177 166 163 163 181 184 181 187 197 200 105 159 146 121 151 132 133 238 132 159 211 198 235 199 164 260 212 370 365 266 264 237 256 404 394 379 176 368 368 407
188 184 175 168 168 182 189 191 192 181 150 173 150 102 130 131 173 157 137 137 141 147 238 134 245 406 444 292 381 241 377 341 430 420 350 411 395 383 378 369 324 353 337
152 137 191 192 194 192 162 169 199 193 194 132 123 118 180 135 182 152 151 189 229 226 310 274 325 242 240 313 360 398 404 409 410 411 409 414 414 403 348 393 359 332 375
187 188 192 199 200 125 135 193 187 167 128 125 134 158 133 91 132 205 155 211 225 320 416 380 379 319 302 323 398 401 406 408 408 406 388 349 344 324 331 280 334 385 386
165 187 167 195 147 207 152 197 182 161 136 134 138 132 176 155 300 222 141 254 413 404 406 400 396 394 393 393 392 388 389 380 330 326 327 325 326 341 334 341 407 403 391
169 199 207 210 152 184 126 185 187 152 138 126 140 230 244 298 395 411 403 395 388 388 387 388 389 378 380 379 383 391 394 394 398 397 395 393 400 411 420 388 400 380 321
192 196 178 169 162 152 164 172 165 187 192 227 241 270 294 426 414 399 392 387 380 383 381 387 386 377 334 296 292 304 372 370 375 371 375 379 354 372 375 304 400 424 427
147 129 172 140 191 192 178 217 195 217 252 208 279 299 412 415 404 394 382 376 379 384 389 380 380 319 294 314 368 372 371 368 367 365 362 361 363 356 360 359 348 365 376
159 153 111 177 148 188 200 141 231 260 191 286 310 404 415 408 394 378 378 385 384 377 379 367 362 363 364 376 394 368 363 357 355 354 355 351 340 339 343 348 349 315 383
150 182 206 225 217 233 230 245 226 270 283 328 421 412 402 390 382 381 381 370 368 355 354 360 445 536 534 524 515 504 493 478 425 347 348 346 345 326 327 331 336 331 294
138 191 215 224 224 218 189 215 265 289 363 423 408 396 384 380 375 376 378 346 342 350 469 510 507 504 494 484 476 468 454 441 443 440 427 387 352 352 320 324 330 351 418

GFSMW_2pvu_pres_009.txt.gz
Presure
165 165 171 165 144 163 168 216 173 173 161 166 142 153 144 143 156 158 159 158 155 160 157 161 148 150 131 126 137 161 117 163 166 169 166 164 144 165 180 164 152 180 186
160 156 175 165 135 135 150 159 167 166 170 169 166 163 163 168 164 154 151 157 147 152 153 139 124 128 139 104 147 126 133 162 172 156 163 170 144 173 176 141 114 104 165
168 155 157 156 169 149 156 163 159 158 157 152 163 166 161 155 159 87 134 153 158 141 135 148 129 154 149 155 168 157 165 171 166 154 167 165 173 181 163 159 183 182 67
159 153 131 131 168 166 157 153 106 135 123 176 171 168 136 137 144 163 163 166 152 142 173 158 148 153 155 169 108 176 177 161 158 167 163 155 180 175 161 173 176 73 83
115 153 131 157 179 110 163 153 103 111 114 103 112 117 130 136 160 141 130 135 142 162 158 167 176 181 165 160 170 165 164 164 153 168 166 188 171 167 189 179 170 152 61
108 128 159 177 165 180 116 99 102 106 108 159 147 138 135 158 131 154 158 168 172 132 158 162 151 149 165 179 177 156 165 170 171 181 176 168 179 187 186 176 194 170 183
169 143 156 157 123 95 97 149 102 97 168 172 167 152 171 164 149 148 153 159 149 154 160 155 157 183 171 170 163 154 169 173 189 187 177 178 184 174 193 193 205 183 160
167 160 151 168 95 163 162 96 153 164 166 159 167 171 182 147 157 139 159 174 164 149 150 180 178 142 169 176 158 169 175 183 181 179 181 168 189 197 183 200 197 213 209
141 158 160 175 160 178 177 167 159 154 156 171 174 89 154 163 182 174 151 158 147 181 176 172 182 173 171 165 188 178 182 149 182 189 190 174 156 137 213 208 207 201 192
139 122 153 162 168 155 179 172 173 171 166 160 162 153 153 153 151 161 153 167 179 180 176 168 175 176 178 188 187 169 181 176 173 146 129 157 152 144 219 198 219 172 194
163 97 96 136 185 172 175 173 165 145 181 171 145 155 147 150 172 163 180 173 170 167 163 165 184 193 198 207 197 117 144 173 215 154 155 182 161 143 156 157 155 177 210
148 157 166 170 137 153 152 171 172 163 180 175 149 181 179 178 170 176 170 168 168 189 192 195 196 202 120 149 177 206 187 140 180 133 149 157 280 150 275 208 200 166 168
203 176 171 143 142 180 179 172 180 155 161 159 175 181 172 173 175 175 193 193 183 193 148 183 187 140 156 134 152 138 225 146 150 158 146 179 236 218 253 172 216 243 295
198 198 191 172 179 149 164 152 183 176 188 188 176 170 172 180 190 154 194 189 154 170 206 141 218 134 222 153 154 159 186 159 189 151 206 323 392 423 414 341 322 372 325
198 193 156 156 189 133 176 192 175 168 173 175 182 189 153 195 190 167 230 215 217 140 127 142 139 139 140 171 131 212 181 161 358 411 399 402 397 332 318 374 373 406 409
157 199 186 189 185 176 169 187 172 173 188 187 178 167 189 159 198 213 211 137 224 164 145 132 135 141 150 208 286 412 416 405 408 408 405 336 357 397 400 398 398 402 404
188 200 197 167 171 169 171 176 190 180 187 193 182 166 130 199 146 218 132 205 146 134 128 186 149 289 343 204 407 402 402 403 398 399 401 398 394 389 391 392 396 401 402
168 205 183 184 199 195 194 175 160 198 194 209 214 142 188 198 131 124 144 142 190 224 152 210 247 413 413 402 399 398 398 402 402 405 399 392 390 388 354 404 373 369 324
192 203 192 190 121 199 197 201 201 194 148 214 126 216 207 172 203 145 133 206 262 161 221 331 429 417 405 398 395 400 401 397 393 389 388 381 345 293 290 372 389 392 397
207 189 113 101 125 154 185 232 151 147 143 173 192 184 214 188 199 192 158 148 235 314 435 426 413 396 390 390 386 382 384 385 377 370 365 359 362 371 378 376 371 375 381
178 177 202 154 176 196 181 201 168 118 182 187 201 195 200 223 228 208 243 312 362 433 418 404 398 391 385 375 368 364 368 403 520 553 558 550 386 361 364 369 370 369 383
210 186 214 177 175 168 173 183 176 149 203 193 208 201 198 218 277 296 315 353 426 414 408 399 391 369 359 256 263 479 538 531 525 528 520 510 502 496 362 359 359 356 360
229 187 189 138 197 158 167 185 213 198 192 226 196 223 140 235 284 317 337 422 413 407 398 376 367 366 183 283 419 410 477 476 477 475 473 472 471 471 435 353 349 347 339
180 205 139 171 151 176 206 183 183 224 223 243 170 245 280 282 307 347 416 415 401 389 370 366 196 177 247 409 387 422 437 434 439 441 439 438 440 443 451 357 341 337 325
180 186 175 176 195 182 209 207 217 207 177 246 265 279 283 289 360 407 408 400 387 370 365 289 180 274 405 393 370 374 406 410 411 409 410 413 421 425 440 457 342 335 323
162 172 162 183 205 195 225 226 149 235 247 197 275 285 294 403 412 406 406 381 365 351 360 445 431 403 384 386 374 353 366 383 388 392 402 409 416 421 437 538 349 332 322

GFSMW_2pvu_pres_012.txt.gz
Presure
196 135 186 178 172 163 180 142 139 164 157 161 166 162 173 168 170 166 165 161 161 159 152 162 158 136 166 169 154 163 142 164 163 169 166 152 168 179 168 167 159 154 154
137 135 182 165 174 158 170 173 158 133 141 155 135 156 115 152 126 161 165 161 160 138 155 158 142 169 134 139 174 162 142 163 168 164 167 157 166 170 168 163 165 155 182
153 104 154 167 166 162 150 159 146 171 156 154 104 104 136 104 112 167 168 167 144 145 131 167 173 155 139 135 156 173 156 152 150 156 184 170 174 158 148 159 163 177 187
132 129 102 116 167 164 124 129 132 169 132 114 103 103 105 102 128 161 170 141 160 144 133 134 155 145 176 169 166 162 168 155 151 142 180 175 176 170 152 156 171 177 180
97 150 145 107 106 111 142 149 170 170 119 104 102 101 93 173 161 171 174 152 172 175 182 161 141 168 174 168 147 152 153 169 160 179 176 158 172 193 186 188 181 183 175
167 97 101 164 110 126 155 158 153 140 115 163 96 97 163 152 166 158 163 177 180 157 163 148 165 158 142 159 165 181 179 180 175 171 174 175 172 182 190 181 162 197 185
139 200 183 125 164 162 152 145 157 142 135 147 174 168 165 161 158 169 176 164 152 161 174 154 173 176 175 160 169 167 172 176 179 132 187 191 187 189 191 176 129 133 206
195 192 199 128 165 169 170 157 161 152 175 163 165 168 167 160 174 160 180 174 134 140 177 143 156 157 169 164 169 172 194 183 186 194 187 162 192 195 158 172 180 142 154
185 171 191 138 177 154 144 155 160 126 166 154 155 171 160 164 179 178 141 170 160 157 147 175 172 158 165 192 184 140 188 192 189 186 211 199 132 139 225 143 215 151 164
178 183 180 140 130 152 142 91 140 167 155 173 165 172 182 184 176 165 148 163 158 189 158 157 175 181 183 192 185 192 167 217 170 237 161 139 144 149 140 149 139 158 171
185 184 136 180 180 191 184 198 170 170 171 140 171 144 174 170 177 155 148 176 177 176 174 184 170 185 191 156 186 133 129 127 135 217 210 158 137 152 248 265 221 165 161
195 190 189 182 181 188 164 201 202 179 160 182 124 164 159 161 153 174 165 164 189 191 185 178 162 186 136 100 218 146 126 131 135 131 134 144 249 281 151 168 308 409 410
140 181 178 177 181 181 190 199 205 191 202 196 192 186 184 155 176 192 176 191 191 176 127 196 162 150 152 204 135 151 154 188 143 169 147 167 250 418 272 407 408 408 222
178 189 198 192 186 142 191 155 184 193 151 178 185 175 178 163 187 192 184 185 160 180 170 195 197 160 129 165 170 226 215 257 262 206 205 420 410 403 399 395 392 392 393
170 174 173 185 185 186 185 184 186 190 192 202 198 181 189 192 194 185 171 189 151 187 200 187 146 214 237 201 232 164 173 358 453 391 429 419 404 394 392 390 386 392 398
180 190 129 189 142 189 200 201 162 168 188 198 201 200 184 186 124 130 154 218 187 113 122 135 205 196 205 262 220 244 451 436 427 421 410 399 394 390 387 385 387 395 398
179 172 158 191 181 205 188 209 192 193 118 174 180 186 169 203 146 165 183 187 211 214 215 212 226 244 227 248 184 440 433 426 415 404 393 385 377 376 326 325 376 379 379
159 134 166 208 216 205 203 202 188 125 100 192 200 161 188 128 136 146 200 216 190 217 223 221 207 236 282 360 436 428 415 396 378 371 369 328 193 381 477 477 479 475 375
173 213 218 215 213 206 199 211 200 212 214 158 193 194 190 138 173 214 223 226 224 228 132 242 217 312 421 433 425 408 388 380 377 459 190 193 205 507 522 524 526 530 533
226 215 183 208 198 191 202 214 206 200 141 215 134 132 184 212 128 216 200 203 185 232 218 295 315 418 428 420 400 387 383 424 280 181 184 217 462 482 494 501 503 507 509
209 211 213 154 211 220 186 204 130 134 193 135 155 205 204 207 212 225 215 120 211 271 295 329 348 427 418 398 383 379 454 426 308 262 380 400 438 451 459 465 473 480 482
188 206 203 202 195 199 191 162 136 209 154 183 187 190 120 221 180 235 249 245 242 283 298 409 430 419 399 380 375 373 424 398 383 375 372 381 414 424 429 435 441 446 452
201 206 208 207 139 165 214 142 133 159 191 193 199 184 121 197 207 202 253 265 292 317 439 432 422 405 379 373 370 435 407 382 368 374 364 370 394 409 414 419 428 435 448
203 186 127 161 205 180 141 149 204 207 204 206 186 156 199 196 210 212 261 289 316 442 428 419 409 385 372 374 427 424 403 353 373 364 358 365 381 400 412 420 423 442 370
154 141 215 183 177 194 154 189 189 186 184 146 206 212 234 231 245 260 281 285 444 426 414 410 394 375 373 412 413 418 412 386 366 363 363 361 373 394 411 416 436 535 342
186 206 149 160 142 182 200 183 184 176 211 213 200 234 232 195 261 279 311 445 432 403 399 312 369 370 372 425 394 384 415 397 348 358 361 357 376 407 419 436 538 344 335

GFSMW_2pvu_pres_018.txt.gz
Presure
180 189 156 140 223 223 110 201 191 158 142 156 176 180 168 172 186 182 177 143 102 102 95 93 163 147 163 172 171 168 163 173 161 146 135 176 132 181 153 145 178 165 154
118 174 195 231 224 223 213 131 160 166 148 147 173 179 166 150 125 170 160 111 109 95 116 159 171 165 179 171 168 170 154 152 147 166 172 179 183 180 156 147 165 159 172
185 157 169 94 226 214 215 201 138 170 126 124 147 118 138 167 117 124 126 156 168 172 174 162 165 144 151 163 154 155 153 169 151 173 172 160 166 158 152 165 159 162 161
179 183 152 208 203 208 210 213 117 93 96 186 149 159 170 167 156 156 149 162 166 170 171 154 139 173 169 161 166 161 180 153 170 158 167 162 182 170 168 168 139 134 181
185 190 180 198 196 168 114 125 201 193 181 182 157 117 169 155 176 168 159 159 133 163 160 165 167 162 178 168 65 140 175 167 150 179 167 188 183 172 190 139 204 71 190
186 121 190 196 170 202 190 142 150 199 195 181 181 175 150 171 139 151 174 167 167 170 152 163 172 145 174 148 177 178 184 193 198 201 169 199 169 173 194 194 147 108 191
170 187 174 157 191 192 189 192 194 200 192 188 190 173 191 179 159 135 169 176 143 169 142 156 178 155 194 182 203 173 162 194 206 208 173 162 169 146 116 188 208 231 188
89 154 191 185 174 188 178 187 191 193 192 194 196 197 193 193 191 195 199 141 145 168 199 144 179 194 195 184 191 185 186 179 194 204 205 158 172 191 195 219 216 193 190
181 157 161 181 184 184 149 190 192 187 187 184 185 185 184 187 185 185 192 188 190 199 187 173 191 183 213 186 168 175 181 199 183 154 156 201 148 187 170 205 223 197 237
173 176 180 160 162 176 186 187 186 192 191 184 183 188 190 191 192 191 184 186 190 157 197 195 205 158 187 182 189 184 190 196 141 191 186 114 152 217 199 215 241 220 235
170 180 171 179 176 164 177 171 194 190 187 180 177 190 188 188 180 186 184 176 194 193 213 139 134 182 184 208 208 184 144 141 217 151 185 170 214 211 212 219 226 235 233
182 171 168 163 161 166 180 181 172 169 173 173 190 176 180 172 180 174 182 194 207 180 103 220 210 220 206 133 168 212 127 196 140 211 215 194 214 215 226 228 238 239 317
174 168 171 188 192 164 177 191 173 168 176 165 150 174 162 170 191 184 194 182 226 222 235 220 221 209 131 161 204 149 212 197 217 130 211 217 232 229 234 238 238 303 439
186 179 187 179 186 163 179 177 180 172 168 155 159 162 162 195 198 194 225 226 230 224 213 210 154 135 186 138 138 187 163 210 218 233 217 220 237 236 258 242 423 429 407
174 190 178 179 186 194 186 183 187 195 186 156 193 197 200 202 166 229 230 216 178 221 220 146 191 144 114 193 217 194 220 190 199 211 228 229 244 244 411 437 420 404 453
186 187 188 187 177 179 144 191 187 186 132 193 200 200 229 231 229 221 231 147 217 134 250 228 144 128 214 209 145 204 218 213 212 206 237 300 425 452 436 413 397 449 431
186 174 186 192 193 203 191 139 191 144 194 187 181 227 227 225 212 224 140 142 241 176 215 173 142 193 201 185 214 195 198 213 211 240 279 448 439 427 412 395 446 419 419
192 200 199 196 129 162 160 191 186 172 180 208 218 234 222 220 202 172 229 214 219 171 144 166 201 213 211 209 215 220 221 229 258 382 452 417 426 404 392 441 436 429 409
191 130 142 133 181 175 164 194 198 205 209 236 229 209 212 129 186 215 190 193 214 204 209 202 192 215 204 202 218 225 230 261 449 449 434 422 400 384 444 433 415 428 387
181 139 191 189 193 194 202 205 218 223 230 210 137 125 213 236 181 184 206 142 201 208 209 203 207 203 200 216 230 232 294 461 413 441 422 397 375 391 429 411 432 417 364
176 183 196 178 198 202 203 241 231 190 173 126 160 230 209 205 132 136 160 212 210 205 212 206 202 207 219 236 237 362 452 444 380 422 400 377 397 432 420 388 401 363 370
191 179 164 201 234 236 224 216 140 224 136 216 233 203 129 144 173 202 197 202 209 204 199 203 216 227 233 283 462 446 438 371 415 399 372 376 437 471 423 405 365 365 392
200 239 242 231 222 164 145 148 164 181 230 208 203 129 189 190 200 200 194 198 199 201 214 222 231 271 335 374 448 438 364 423 402 375 364 432 410 115 415 472 436 398 471
228 225 215 221 192 155 226 149 142 225 201 225 130 187 146 192 204 204 195 199 205 214 230 237 287 421 468 453 400 380 426 403 376 361 431 402 411 479 454 428 411 522 362
222 228 126 137 239 232 218 207 210 220 143 192 160 135 195 208 208 198 210 214 223 232 283 434 463 467 453 371 420 429 407 375 361 439 402 412 427 419 397 421 391 333 342
139 130 178 176 194 204 221 215 208 201 193 182 148 206 210 198 208 213 214 242 273 303 462 395 457 446 366 429 422 408 373 356 453 407 406 410 433 378 425 365 325 336 322

GFSMW_2pvu_pres_021.txt.gz
Presure
84 91 84 204 122 142 99 230 143 221 126 204 198 189 141 186 146 176 183 172 114 106 124 179 134 104 130 178 180 156 179 166 179 143 174 173 153 147 148 168 159 151 163
97 105 101 92 191 189 174 223 217 219 208 155 177 124 188 97 142 131 120 175 172 169 167 164 172 169 173 172 172 145 158 175 169 157 162 156 158 161 163 179 179 179 164
107 121 191 189 188 91 192 89 197 184 215 109 197 116 108 141 119 162 149 130 177 165 171 164 165 160 138 152 166 169 144 158 171 167 140 149 161 174 166 158 162 179 185
189 189 177 196 178 195 196 176 201 178 185 188 211 142 184 189 182 186 179 125 134 170 172 136 173 165 160 152 152 132 156 132 162 147 147 180 142 156 163 196 159 188 127
190 172 196 181 198 184 179 196 193 216 208 105 119 123 203 205 191 182 182 188 173 151 177 176 122 169 165 173 173 173 174 146 154 203 161 198 153 192 172 173 190 194 184
189 194 189 154 178 182 173 161 177 200 199 169 129 203 209 205 198 198 183 187 183 172 178 177 178 144 167 196 197 150 133 193 165 196 171 204 200 197 219 209 189 187 210
179 172 177 184 182 172 186 190 181 187 109 167 190 194 193 195 201 199 198 153 194 194 194 198 192 187 188 159 135 168 191 185 204 177 223 206 221 205 161 220 168 176 122
178 101 173 100 171 181 168 181 169 181 192 188 190 192 192 192 188 188 186 186 187 192 195 197 200 196 193 193 191 181 200 229 227 224 149 221 210 208 162 181 210 136 216
205 177 174 182 174 169 163 186 180 158 169 183 189 186 186 187 191 192 192 191 182 190 192 192 190 182 210 180 199 213 218 172 230 223 213 201 217 154 216 149 219 227 133
187 173 190 172 140 169 172 168 178 170 182 167 178 190 188 174 183 185 176 178 189 188 167 153 166 181 189 183 97 230 224 214 191 202 222 218 188 123 157 194 224 215 215
182 169 195 95 149 177 164 167 174 168 173 173 166 168 176 178 177 170 174 169 136 163 191 192 168 204 235 232 222 178 222 214 220 222 166 146 145 195 165 211 214 219 223
107 90 194 195 173 185 184 195 202 180 174 177 174 188 171 183 187 128 142 193 194 181 144 208 222 235 237 217 220 216 219 227 242 137 130 145 222 198 214 216 223 230 240
96 181 174 183 161 174 162 172 177 181 185 182 175 189 183 190 192 197 196 196 193 197 210 235 238 221 220 223 213 212 231 210 213 220 201 153 210 227 217 206 234 251 250
170 163 158 176 177 163 190 161 174 190 191 188 175 189 187 174 159 165 185 192 203 214 236 237 212 222 212 222 202 206 219 214 209 161 217 208 214 221 238 246 249 265 477
159 163 159 163 189 175 181 183 171 196 193 171 192 197 177 196 189 192 195 205 213 236 234 217 158 216 231 212 168 158 197 203 189 207 215 218 228 240 247 255 457 468 450
182 174 174 182 183 183 177 178 179 183 199 200 199 180 149 195 198 202 210 215 237 227 222 201 218 240 147 194 210 155 206 204 207 199 218 230 242 253 267 453 459 438 421
170 162 171 169 174 187 188 188 191 177 145 152 185 194 195 198 203 215 219 194 194 176 211 231 169 138 141 175 204 203 201 217 210 224 237 249 301 453 449 407 437 417 389
182 182 176 184 189 189 190 161 132 171 204 193 194 199 196 187 187 239 232 155 229 212 237 208 210 204 194 202 205 205 217 223 229 242 260 466 450 444 424 432 416 389 393
186 185 185 187 183 131 131 134 193 217 197 190 195 223 205 223 234 141 216 237 230 157 187 215 202 195 192 207 218 221 227 238 248 436 461 449 392 437 424 409 390 441 419
187 191 159 130 193 167 142 234 210 186 191 196 216 181 231 150 185 244 215 218 128 229 214 196 193 198 215 215 224 230 244 352 446 460 446 367 425 417 397 379 441 420 433
179 186 185 186 170 234 218 189 193 192 203 240 134 218 206 122 223 226 214 219 212 161 192 193 205 214 219 227 235 249 416 464 433 365 385 421 409 390 370 427 415 482 475
245 241 191 232 224 186 193 196 202 233 135 143 234 217 232 221 214 210 212 186 163 190 202 215 213 195 231 241 446 465 457 439 419 435 421 404 382 363 423 420 437 430 420
231 228 220 192 195 194 198 237 144 137 157 234 232 216 214 216 208 201 207 194 191 212 204 216 225 235 290 475 455 408 448 438 427 416 396 373 354 424 419 428 448 421 397
191 197 192 198 236 235 230 133 163 235 228 215 211 210 208 186 190 205 196 213 202 209 222 229 252 490 473 465 456 448 439 425 411 387 362 372 426 416 441 413 407 358 336
198 224 235 231 231 226 135 138 204 214 207 216 208 203 143 172 202 199 205 208 216 224 237 301 404 478 470 455 444 435 421 401 378 359 475 425 413 435 417 376 324 333 327
231 230 222 224 225 140 136 212 206 212 206 205 201 200 180 205 207 201 171 217 183 278 301 285 403 465 454 442 428 409 384 361 496 467 422 412 442 411 346 321 362 329 390

GFSMW_2pvu_pres_024.txt.gz
Presure
91 93 90 97 176 92 102 177 104 209 181 111 136 224 137 211 172 175 118 144 96 104 109 110 169 186 169 168 176 169 177 170 167 168 167 168 134 167 166 171 173 145 150
88 94 96 86 98 143 97 104 101 198 192 97 223 115 184 219 211 196 143 183 172 181 175 148 129 153 135 177 180 142 167 159 156 156 153 138 169 141 158 137 154 176 173
95 95 95 97 153 115 95 100 108 174 202 144 204 180 220 200 206 205 199 94 132 189 185 178 177 188 194 169 159 177 161 171 141 168 147 164 182 134 189 196 179 178 202
199 115 88 197 196 198 184 194 185 187 181 198 208 186 209 209 205 200 197 107 196 205 204 193 194 187 182 181 186 174 185 189 186 198 182 134 134 198 189 184 189 193 181
189 198 192 190 177 202 192 195 183 163 181 189 191 183 199 201 199 207 115 146 200 199 198 199 201 195 186 201 199 195 194 207 198 131 184 187 140 196 186 182 184 189 202
198 188 190 180 174 189 198 182 185 182 172 118 198 193 157 134 189 189 145 194 193 193 193 190 192 193 189 185 187 193 198 201 201 200 193 191 196 182 179 198 233 233 209
188 191 187 189 190 181 191 178 161 178 181 173 183 105 187 179 169 173 189 178 141 183 184 193 194 195 199 185 185 189 188 189 181 169 181 181 173 240 223 241 236 228 218
190 191 186 187 186 178 190 174 175 176 180 168 175 176 182 184 178 179 169 170 168 177 178 180 176 172 173 174 177 171 174 155 182 184 205 158 237 231 226 227 230 232 234
198 185 182 186 185 177 192 180 170 138 186 176 164 165 179 171 172 166 164 176 182 171 182 190 180 189 198 201 199 144 200 210 234 241 235 230 203 220 229 230 228 250 241
190 191 186 184 181 160 183 181 181 156 175 179 173 172 173 171 183 187 183 181 177 197 181 193 195 172 164 202 198 178 213 235 242 228 218 225 197 219 233 235 217 102 126
184 190 182 183 169 169 184 179 182 183 181 171 176 175 188 183 203 171 179 176 181 191 201 192 188 196 187 191 196 221 226 239 217 223 215 216 226 230 173 206 179 211 209
182 186 181 163 169 179 177 179 189 170 186 177 179 170 182 171 171 174 197 204 187 197 211 163 144 194 202 208 213 239 241 187 225 165 218 146 175 206 225 209 207 218 223
185 178 160 186 178 128 165 185 177 179 168 192 196 178 170 193 187 171 192 186 204 194 189 162 199 201 208 225 241 228 214 188 219 221 135 180 168 200 207 213 219 227 235
176 179 176 169 169 172 161 166 185 165 180 178 178 191 186 178 169 191 201 198 140 169 198 201 207 212 241 172 169 231 229 216 196 221 208 225 217 209 218 227 236 257 276
171 172 174 177 170 172 165 162 169 166 162 172 171 173 186 188 192 174 205 154 204 196 208 211 233 224 149 233 239 236 227 138 206 220 219 204 215 218 235 253 267 465 401
178 178 173 172 175 176 195 185 184 181 171 170 175 191 195 191 176 134 235 196 197 204 247 219 127 147 238 227 188 149 204 176 216 202 214 215 230 251 265 480 458 460 447
182 179 181 184 190 193 193 193 190 173 174 187 189 185 172 161 247 224 199 227 217 239 213 179 237 231 240 222 135 217 214 206 209 213 227 247 260 477 476 468 455 445 421
177 181 187 182 177 175 176 172 178 189 190 190 134 196 233 232 205 220 205 246 187 155 241 190 231 219 215 211 211 212 207 214 226 239 249 326 459 465 454 452 443 421 388
183 176 177 180 183 186 187 188 188 195 155 149 133 244 202 218 199 221 239 128 226 229 235 217 216 119 212 199 211 212 218 234 243 303 463 465 458 452 445 434 415 384 367
184 183 183 189 189 189 188 197 125 132 252 237 217 198 253 207 208 137 197 241 235 217 215 208 150 204 207 205 213 229 242 254 325 472 461 452 442 434 413 392 374 478 425
187 177 187 161 196 195 198 209 222 245 235 207 234 205 186 142 137 218 229 217 205 213 212 166 208 201 209 216 233 243 290 376 473 465 454 436 414 391 385 505 462 424 437
196 198 201 165 166 236 248 239 176 220 245 206 211 180 136 175 165 231 207 211 210 209 209 205 203 212 221 234 251 440 441 466 455 445 418 393 442 509 480 440 420 408 411
202 131 127 128 188 236 227 149 166 205 203 237 149 133 136 269 208 214 208 209 207 206 203 208 213 226 238 290 451 476 463 449 433 401 378 494 479 452 413 422 397 399 341
170 186 134 222 208 147 210 202 219 237 217 136 190 273 124 211 206 207 204 205 207 202 212 215 228 248 349 442 473 460 446 421 395 503 481 462 422 409 425 393 376 323 332
205 206 224 216 205 204 244 238 204 202 187 262 201 208 204 203 202 201 162 196 209 212 218 233 296 354 349 470 455 439 414 519 500 475 451 407 414 419 384 337 346 337 372
216 202 201 227 243 231 183 137 248 244 214 207 203 201 201 199 208 202 197 211 215 223 252 326 360 362 469 450 433 463 496 487 463 434 403 415 393 376 327 366 371 333 303

GFSMW_2pvu_pres_027.txt.gz
Presure
119 109 110 106 98 148 189 100 85 94 99 197 99 99 103 203 225 135 215 88 149 207 202 200 107 176 182 178 172 177 187 187 187 161 155 161 177 170 173 152 170 171 168
92 195 97 106 104 95 90 95 98 100 95 190 122 180 154 106 209 201 209 216 198 205 207 206 203 111 124 133 201 204 196 199 196 187 184 179 172 199 167 200 201 196 202
85 175 201 209 91 93 121 93 201 163 202 166 204 175 144 194 205 195 203 208 211 203 196 202 175 196 121 205 203 201 201 203 203 200 200 196 195 190 199 202 202 200 192
86 86 83 81 192 100 119 104 95 163 200 193 194 138 183 180 167 193 197 182 183 116 186 190 191 149 182 194 194 198 197 199 200 200 201 201 191 188 189 190 192 193 179
167 97 203 111 192 201 206 195 197 189 194 198 187 189 185 191 177 183 176 171 181 166 182 178 178 180 183 180 182 178 173 173 172 172 179 179 179 174 174 171 164 172 108
110 143 109 141 176 165 198 196 187 187 190 192 184 187 183 182 175 183 175 182 149 181 175 179 170 179 183 182 172 178 192 189 176 180 191 186 186 195 199 200 192 195 193
179 188 202 159 194 179 197 191 185 191 185 191 182 182 177 182 176 172 174 162 181 170 168 184 184 180 190 177 179 177 179 190 195 193 198 173 200 202 204 199 215 245 255
185 206 198 196 193 196 191 189 191 182 186 193 190 125 184 177 180 177 178 174 178 170 179 188 181 184 178 185 177 191 191 199 195 214 150 199 203 207 218 250 260 259 252
192 205 198 98 197 194 195 184 183 190 171 189 196 186 177 180 190 184 181 181 173 182 186 176 194 170 188 182 209 193 212 216 152 194 203 213 231 245 252 253 240 236 252
201 203 198 192 195 195 192 185 185 186 183 173 151 191 187 184 171 186 174 176 180 185 188 175 184 184 174 195 211 205 215 151 167 216 228 240 213 161 190 243 252 240 132
206 202 193 194 202 191 151 188 188 180 180 181 176 178 190 180 190 168 180 173 188 173 194 194 195 195 182 215 238 147 190 210 216 248 251 157 231 247 235 165 192 223 231
201 198 196 196 196 186 189 85 176 180 173 184 122 181 173 190 181 170 174 174 189 177 179 187 202 202 229 243 144 206 214 244 250 126 168 244 233 246 136 225 223 220 222
207 196 199 194 188 71 184 179 177 181 173 178 167 164 171 173 199 173 173 165 171 183 194 201 215 176 166 206 215 228 251 187 143 242 249 229 135 168 222 218 216 217 224
202 203 192 188 182 182 177 179 179 178 176 175 171 173 171 172 179 187 196 186 185 196 225 176 245 230 205 215 247 242 142 170 244 226 222 200 184 217 213 216 224 243 272
189 185 184 179 179 176 180 175 177 176 174 175 177 185 197 196 196 191 184 194 201 237 143 231 228 212 216 245 196 142 247 224 216 220 168 216 211 214 225 243 263 495 485
189 185 173 173 172 176 173 173 177 180 181 187 193 190 173 178 190 193 201 193 137 247 231 230 214 238 244 143 207 235 208 217 217 153 210 212 218 236 257 494 484 475 462
176 177 181 176 174 180 185 182 180 179 185 171 173 184 191 192 199 200 135 139 234 230 213 226 214 226 136 196 222 218 218 206 212 203 216 227 247 429 490 478 465 443 410
180 179 177 182 184 180 168 171 186 173 181 183 189 190 196 171 166 262 236 230 229 214 156 226 142 184 222 220 218 210 215 201 211 223 239 270 450 481 466 450 423 393 485
181 180 176 172 175 173 173 179 183 182 188 193 191 200 147 249 242 234 224 212 249 238 140 135 229 217 215 212 210 215 208 216 234 253 362 484 471 456 435 521 523 504 472
178 177 179 179 178 182 185 183 188 191 192 191 202 235 248 225 225 213 247 243 136 140 135 165 215 211 204 209 208 210 231 246 293 376 477 462 572 545 513 490 478 435 419
181 183 184 186 184 183 189 190 180 129 146 194 224 236 216 214 224 239 237 186 132 153 214 206 197 202 204 212 220 240 265 366 490 472 459 523 513 491 475 442 421 437 400
183 183 184 189 159 167 126 133 200 191 224 239 231 222 244 197 239 223 137 234 208 210 200 199 199 199 206 224 241 287 419 481 462 442 507 498 476 460 419 427 406 392 366
190 156 188 195 193 191 204 194 131 238 239 226 218 197 140 214 274 239 209 211 195 190 200 194 197 210 227 262 316 423 483 458 439 499 482 459 437 412 428 387 377 336 409
148 172 169 187 207 226 245 237 233 230 203 241 192 144 164 252 211 211 201 180 194 192 215 203 216 232 283 320 437 488 459 446 499 474 445 423 417 415 380 365 388 391 321
198 200 241 140 238 235 233 214 203 241 147 134 146 260 214 209 202 187 184 183 206 219 215 236 268 298 309 429 485 457 460 494 474 439 413 419 396 371 363 374 374 320 311
123 243 193 230 224 207 204 234 134 134 197 232 216 206 201 194 174 190 179 197 207 215 243 271 297 309 392 485 456 471 485 466 454 410 419 385 353 357 378 350 322 313 302

GFSMW_2pvu_pres_030.txt.gz
Presure
172 123 109 110 82 98 105 107 111 111 128 189 98 97 98 102 137 131 172 120 203 195 210 222 219 215 209 205 203 201 200 200 204 209 132 203 203 204 205 204 203 203 201
178 98 107 108 108 114 104 86 95 95 92 100 94 92 102 125 107 197 206 199 198 209 192 196 205 206 196 196 194 192 193 194 193 192 192 185 185 183 189 192 193 193 193
184 120 187 145 149 117 176 117 103 95 103 94 134 122 150 195 190 202 99 195 189 191 193 189 165 187 185 186 180 186 177 180 174 181 188 178 180 180 176 178 184 175 192
102 189 175 82 170 85 93 108 202 96 201 191 124 189 178 181 177 190 190 192 192 180 186 182 181 183 170 183 178 185 184 189 177 189 181 175 180 192 188 184 185 183 183
105 83 83 169 91 91 117 198 197 162 123 180 191 200 199 194 189 192 190 192 187 180 184 182 176 177 181 172 179 181 179 177 162 174 175 185 192 187 185 187 182 182 198
115 123 181 180 132 166 175 205 164 117 111 204 160 201 199 190 194 190 191 184 181 183 178 187 178 174 180 173 183 170 177 181 177 171 183 178 189 192 190 202 213 218 198
184 188 161 180 181 176 124 104 106 106 138 144 135 159 190 192 186 193 189 111 186 185 173 191 185 183 187 178 167 184 180 182 185 180 197 188 192 241 231 214 201 195 193
193 185 184 185 179 117 111 112 201 194 195 198 197 188 187 186 192 192 192 193 177 183 188 176 186 181 186 176 179 176 186 192 174 193 203 246 243 210 193 187 261 273 270
189 177 173 187 183 175 179 202 196 192 198 193 192 191 192 184 169 190 189 188 192 187 196 173 175 167 176 173 172 195 176 184 209 215 242 240 196 159 237 261 242 147 239
183 180 186 188 186 184 205 198 196 194 198 190 196 190 187 188 188 138 179 162 179 181 173 176 167 188 192 173 202 190 196 259 256 242 187 220 227 254 249 134 212 153 191
181 190 183 182 180 194 201 199 193 190 196 200 192 193 192 175 142 176 166 148 172 174 176 176 193 200 203 194 195 212 261 249 236 224 225 251 253 226 207 189 194 233 206
187 181 186 182 182 197 202 198 196 198 202 194 192 191 175 184 184 175 178 177 176 180 191 200 196 177 194 211 244 260 230 228 218 249 251 232 144 151 229 234 218 219 162
181 177 179 185 194 205 202 200 195 190 194 191 187 184 181 179 183 181 180 184 190 195 182 179 195 205 212 203 250 236 211 230 250 220 247 142 164 232 221 216 208 217 217
180 179 184 187 199 201 199 194 197 191 191 186 183 183 180 180 181 182 184 180 179 184 193 197 207 186 139 158 227 216 256 245 245 147 186 228 219 219 218 223 218 235 267
176 181 187 195 201 201 197 196 193 189 183 183 181 178 182 179 187 174 174 184 189 194 197 205 262 207 230 218 250 251 158 137 143 201 214 215 210 220 219 234 286 499 487
179 188 192 199 196 200 198 191 181 174 174 178 185 186 188 173 180 182 185 191 198 198 203 256 228 227 223 249 248 154 134 142 209 214 208 214 217 227 288 425 484 474 578
185 193 195 196 198 192 187 187 180 185 182 186 169 175 177 181 184 187 189 178 155 210 250 231 217 258 251 221 126 139 207 206 212 220 222 224 261 311 503 477 521 533 505
192 197 195 192 185 177 179 181 180 177 168 182 173 182 183 187 186 172 192 196 244 149 231 242 253 224 272 177 186 207 197 208 216 224 241 278 404 488 476 526 519 492 457
187 186 164 172 182 182 179 184 185 180 179 182 182 184 125 148 192 142 192 250 228 211 253 238 265 208 214 174 193 196 202 216 220 255 294 338 480 515 517 506 478 434 421
176 180 183 183 185 186 182 178 183 181 184 173 186 181 165 192 203 227 237 240 214 153 135 265 215 171 198 201 201 213 224 234 254 304 321 471 508 506 487 459 428 442 396
178 179 181 180 177 182 184 181 185 180 187 180 179 155 140 209 249 225 212 240 155 217 219 204 168 193 197 212 221 225 251 274 313 319 470 505 503 475 444 427 412 390 396
174 179 180 181 181 180 183 180 188 184 193 173 200 204 255 232 219 232 178 149 261 204 161 191 185 194 217 222 229 251 284 307 325 462 486 499 470 434 431 396 379 402 378
181 181 184 177 182 178 189 177 185 147 201 206 254 240 225 213 146 198 257 210 209 188 189 187 200 213 216 244 252 297 296 324 461 502 486 462 430 430 389 367 393 387 338
182 182 174 185 184 192 194 195 204 180 257 238 226 211 128 163 182 226 213 174 196 190 197 202 210 229 242 261 301 294 324 470 468 484 453 460 421 372 356 375 390 335 315
154 190 192 194 121 204 204 253 252 243 227 208 130 128 145 266 214 200 198 191 192 196 209 210 233 246 275 301 300 317 471 458 491 444 427 399 363 363 384 381 334 304 306
197 202 142 135 147 235 246 232 211 211 175 127 132 140 215 198 191 190 189 196 190 211 219 235 251 294 300 308 315 463 461 500 466 419 388 357 360 370 329 312 305 303 318

GFSMW_2pvu_pres_033.txt.gz
Presure
87 183 120 103 91 89 94 97 113 108 110 108 111 110 111 80 94 104 110 118 99 118 186 201 199 198 193 199 194 186 185 191 184 184 182 191 183 182 186 184 189 187 175
135 187 115 110 120 116 77 98 98 88 104 104 94 98 87 104 96 88 195 110 187 184 199 198 208 184 188 193 191 192 185 197 180 178 163 173 174 171 176 169 189 181 190
205 199 146 146 190 150 116 180 111 107 95 107 95 118 88 110 98 101 195 195 102 202 193 201 199 190 193 174 185 180 180 180 179 180 172 176 164 179 180 178 175 169 176
245 201 193 184 166 194 161 154 115 118 185 75 96 88 90 194 170 179 188 183 207 191 201 199 186 190 182 186 178 178 185 178 165 181 180 180 175 171 167 181 182 188 187
214 87 197 190 90 84 181 176 179 79 90 173 161 115 195 202 201 115 117 190 110 178 195 187 192 191 186 176 182 185 188 186 182 183 186 169 172 176 162 164 177 196 190
226 134 207 189 86 156 91 98 181 117 199 183 167 170 112 208 104 109 108 111 110 200 192 192 193 184 181 189 191 191 182 173 186 171 173 195 179 186 173 171 173 163 179
226 197 83 91 156 187 188 136 179 162 188 143 148 213 197 181 111 162 194 199 192 190 190 191 191 191 129 192 186 177 178 180 170 173 169 194 177 188 206 205 241 256 244
214 82 204 90 187 185 184 186 176 171 191 180 177 198 125 205 185 192 196 193 188 188 181 184 183 182 173 176 177 173 178 173 185 203 200 200 193 193 272 201 239 203 264
216 229 224 207 185 183 189 180 178 178 189 179 195 203 200 195 195 199 195 186 194 191 187 190 185 172 175 167 177 174 186 198 194 185 202 260 274 251 236 233 268 267 250
214 228 229 211 183 183 182 179 188 183 186 184 181 202 197 194 198 194 195 193 169 190 188 182 183 184 183 176 181 188 185 182 205 214 199 257 235 238 261 254 240 284 246
215 201 194 207 190 183 182 186 181 186 185 183 205 200 196 193 190 194 201 194 196 182 181 184 183 183 182 184 181 186 199 202 214 267 231 144 262 254 233 264 185 145 199
216 230 226 206 194 183 189 180 175 187 186 192 123 198 101 193 195 204 198 192 190 189 188 181 188 181 179 185 192 196 205 223 263 226 258 261 243 269 137 145 144 213 220
213 228 221 208 191 184 184 180 181 182 182 198 201 196 195 198 194 195 192 190 187 182 191 184 178 182 189 193 194 207 215 260 211 262 251 247 215 136 153 164 211 230 230
220 227 218 204 187 181 177 183 182 178 193 199 198 199 194 201 195 191 189 180 190 183 176 182 188 188 191 196 207 230 254 220 258 207 237 157 181 211 217 230 236 241 274
227 221 212 199 183 186 180 179 175 184 196 199 199 199 199 192 186 177 183 185 171 180 187 188 186 193 184 205 240 203 248 257 209 217 218 205 209 223 233 235 259 284 331
225 219 208 187 183 179 177 176 184 194 202 203 200 199 190 175 187 183 164 177 185 189 181 177 141 199 212 256 218 262 137 179 213 182 164 212 226 230 241 267 314 324 518
221 212 189 185 178 177 174 184 193 204 198 196 195 187 186 181 178 174 182 171 149 147 192 180 203 227 252 221 216 238 223 206 176 209 212 225 229 248 279 326 383 519 487
212 187 180 177 178 179 184 193 198 197 193 184 183 182 185 174 180 185 185 152 176 155 197 208 243 226 196 195 243 210 182 183 203 216 224 234 257 308 331 453 521 478 439
181 176 175 177 175 185 193 199 196 193 186 185 186 177 182 184 172 191 186 187 167 204 225 258 215 180 152 233 202 163 198 199 216 218 237 267 314 328 501 511 478 433 436
178 176 179 180 189 193 190 161 180 188 185 178 181 183 187 185 129 174 190 200 214 252 210 140 210 287 209 182 191 198 199 210 217 241 267 309 324 510 496 470 436 415 386
179 180 183 190 190 182 183 183 181 178 180 184 186 182 188 191 190 168 209 236 249 170 141 273 242 194 204 183 200 207 213 223 255 284 307 320 508 487 465 436 403 381 398
182 184 185 184 183 185 178 180 181 163 188 181 185 164 191 200 204 231 258 163 135 235 284 214 169 189 193 205 211 213 232 254 304 304 329 529 486 447 420 383 369 375 392
184 179 178 181 177 181 182 185 185 171 188 191 190 201 200 225 256 222 134 135 142 227 202 200 185 194 201 208 207 228 253 306 313 347 559 486 448 405 373 369 388 398 345
180 183 181 180 175 162 168 178 187 179 190 201 202 238 254 224 148 135 134 142 143 201 197 187 177 198 210 215 245 299 310 329 479 557 486 450 408 370 373 388 391 319 321
176 183 137 123 183 188 187 134 193 150 175 247 245 224 206 315 134 134 139 143 200 191 179 189 202 218 225 249 308 305 331 478 530 507 451 408 372 369 347 333 321 318 316
183 186 187 186 184 191 198 203 235 245 236 220 209 263 291 233 131 136 139 187 195 194 205 206 219 234 263 297 317 330 447 499 533 453 420 369 356 339 324 315 312 305 300

GFSMW_2pvu_pres_036.txt.gz
Presure
238 238 245 91 84 192 182 110 103 126 200 118 116 185 222 210 102 104 84 96 98 88 89 105 189 186 201 139 144 202 192 191 198 199 191 173 178 180 184 183 185 177 182
289 146 170 241 95 98 165 175 145 104 97 96 92 96 114 106 101 90 94 109 109 120 105 172 157 201 190 103 199 192 194 194 188 188 182 183 179 188 185 185 180 192 180
285 266 230 236 219 177 115 100 179 116 93 95 97 136 95 104 94 112 86 88 104 100 197 203 199 144 110 122 192 196 195 189 180 193 189 176 189 185 190 189 191 189 185
280 259 234 230 232 204 159 96 132 173 164 190 173 139 107 84 116 101 84 188 192 107 103 127 159 111 111 191 195 197 184 192 194 178 181 193 189 168 177 178 171 177 178
260 270 151 82 233 223 204 198 192 103 183 198 174 77 82 105 117 84 123 184 108 105 201 197 108 117 188 196 198 198 187 189 186 192 193 188 180 181 170 164 168 173 156
249 263 257 229 193 233 208 200 156 192 79 109 185 176 162 182 184 118 94 188 200 203 203 105 186 194 195 195 189 193 189 193 170 189 184 183 177 178 172 175 196 188 182
250 247 259 232 225 236 207 210 153 196 190 173 86 85 180 142 189 138 181 179 206 196 186 204 193 192 197 192 188 194 187 153 188 184 181 177 171 178 191 192 194 212 250
123 240 254 237 223 151 80 199 200 144 108 187 184 185 178 179 177 191 180 182 190 191 202 192 193 195 196 186 194 186 188 188 187 187 187 189 187 191 198 208 221 272 245
237 105 249 252 226 218 233 208 89 96 184 184 187 189 187 176 172 187 180 181 202 199 193 194 200 194 200 197 194 196 186 191 186 194 188 185 193 200 210 223 266 241 243
225 206 246 255 232 217 205 146 215 198 188 182 184 183 180 174 175 183 181 177 200 195 194 193 108 200 201 196 195 188 189 197 188 185 195 196 200 213 226 268 222 270 284
241 241 240 251 234 219 215 224 218 202 191 186 183 188 173 185 179 181 188 198 198 201 200 200 203 207 196 191 190 188 191 182 190 197 196 201 213 232 260 239 281 266 241
238 239 189 250 233 222 217 223 221 205 192 187 190 178 187 180 177 188 184 201 202 202 201 198 199 192 190 182 196 182 181 193 193 202 199 211 253 224 268 147 228 230 194
240 239 239 252 232 194 219 222 217 204 193 183 180 186 175 175 180 180 197 206 204 199 203 201 192 185 182 184 173 188 193 197 201 197 224 259 230 241 234 231 207 173 179
249 246 245 254 229 220 224 220 213 204 192 183 185 181 176 181 180 186 200 204 199 202 197 178 182 183 173 185 191 192 200 200 211 233 233 200 271 224 220 181 188 225 238
249 249 253 262 228 218 228 219 212 198 187 183 176 180 182 178 175 194 201 202 202 193 190 182 183 178 185 182 176 198 200 218 187 223 279 265 228 212 199 218 230 239 254
293 294 261 239 223 207 226 214 202 187 180 176 174 178 177 175 194 203 201 197 197 183 185 182 186 174 188 157 197 207 225 264 192 291 231 212 172 208 221 224 239 274 320
290 150 270 229 221 230 216 203 191 186 181 178 178 177 178 191 202 198 198 184 186 186 184 184 142 192 194 191 219 250 211 231 274 225 207 191 209 225 232 245 275 354 500
300 269 228 216 226 215 203 193 187 179 179 177 176 182 191 199 200 189 187 186 182 187 127 173 193 200 205 210 197 222 286 225 199 173 198 210 222 229 255 299 510 496 470
277 218 219 224 215 204 193 183 180 178 173 178 183 191 198 187 183 187 181 184 189 188 194 194 204 156 240 143 169 249 222 193 194 188 211 218 231 265 326 485 513 457 429
202 217 216 211 203 192 187 183 175 178 180 183 192 189 173 186 182 182 188 186 196 191 206 210 172 140 144 145 190 207 198 185 203 207 219 237 265 349 524 513 460 412 385
216 218 208 199 188 181 177 177 177 182 187 189 181 183 180 181 187 153 191 192 199 206 227 205 139 142 144 221 187 203 199 210 216 215 235 277 352 568 509 458 405 381 392
212 208 186 181 169 174 177 180 186 188 183 184 180 181 163 186 190 193 198 206 220 256 227 136 143 142 175 191 186 202 206 216 218 242 312 392 519 510 463 403 372 393 352
189 187 171 175 181 182 180 173 182 182 178 133 184 186 121 136 141 206 217 251 236 255 132 149 141 141 166 193 202 212 215 217 241 307 477 504 507 465 406 368 373 346 335
174 175 179 178 174 179 176 178 183 180 184 186 191 147 193 205 213 252 241 208 210 274 140 141 144 174 200 208 211 206 217 260 307 494 509 508 464 407 372 361 339 328 320
174 170 174 179 181 182 183 147 184 188 190 190 194 204 220 250 240 204 257 297 247 141 142 176 198 200 203 211 213 217 311 306 496 511 518 459 396 366 355 352 327 311 307
177 180 180 182 169 183 186 190 188 188 198 204 209 247 242 207 236 266 306 164 142 201 201 200 202 207 211 225 222 312 307 496 515 522 450 386 363 349 345 319 307 309 305

GFSMW_2pvu_pres_039.txt.gz
Presure
219 222 205 230 299 123 125 242 206 166 198 133 183 185 203 193 130 122 130 127 86 102 96 113 93 115 106 94 112 105 198 140 105 192 200 196 194 203 197 190 196 165 194
219 97 212 107 105 233 163 243 96 111 170 197 122 183 154 172 187 96 95 94 93 99 92 91 87 85 115 111 105 115 126 200 144 201 192 190 199 195 196 190 198 178 188
220 212 206 203 245 288 238 161 92 100 149 128 166 176 105 109 94 95 102 99 124 101 103 84 108 113 151 110 107 200 111 199 197 151 184 195 199 195 151 196 195 197 195
229 149 225 178 119 280 259 233 234 93 120 103 99 98 162 93 97 100 180 170 84 102 83 198 140 120 106 161 195 202 202 194 201 189 194 198 193 188 187 187 187 189 192
220 232 220 215 220 275 277 237 226 232 236 229 146 101 106 167 175 183 180 83 164 190 182 190 188 203 109 144 205 201 199 191 196 193 198 198 190 190 190 183 186 188 183
224 227 214 208 197 267 278 191 192 225 237 227 219 98 190 180 175 115 132 179 178 172 184 200 211 143 175 200 205 190 203 199 166 194 194 191 189 196 188 184 182 183 178
231 223 227 188 227 241 274 259 230 160 228 232 160 152 186 193 151 181 170 121 179 175 182 181 191 185 180 207 188 203 200 193 197 199 194 199 201 193 201 183 181 186 184
228 225 223 220 215 214 268 265 233 224 223 229 188 150 107 193 192 187 171 181 180 176 182 174 189 184 182 187 201 202 193 197 198 198 202 207 196 195 190 189 190 178 191
234 230 225 219 219 235 256 264 235 223 220 83 84 162 198 190 101 190 189 179 190 188 184 178 179 183 177 190 200 202 200 198 196 203 208 197 191 182 191 181 185 202 208
231 217 226 220 217 234 252 260 232 221 218 228 228 212 202 192 188 188 189 185 189 181 179 176 184 178 187 202 200 202 200 201 208 202 198 180 187 184 185 197 203 210 227
223 217 227 216 221 243 254 256 238 219 217 229 232 216 202 192 188 184 182 182 184 177 188 182 180 184 183 203 204 203 202 207 195 181 182 190 185 195 201 209 217 238 259
212 210 219 215 228 246 249 253 245 220 216 226 232 221 205 194 190 186 182 177 191 178 183 177 181 180 198 203 204 204 206 182 186 187 189 189 200 202 211 227 270 235 286
250 215 217 218 228 248 244 248 247 216 217 221 230 222 211 199 192 186 183 186 180 185 172 180 181 193 200 203 208 202 186 185 193 140 137 199 207 210 238 260 277 239 218
238 231 223 224 222 245 242 248 248 219 217 215 223 221 212 203 194 186 181 178 187 176 182 180 188 201 205 204 195 187 192 188 192 197 199 211 225 270 250 273 224 225 195
239 227 223 219 200 244 239 245 257 222 222 215 223 219 211 201 194 183 180 185 175 181 182 188 200 204 200 189 192 187 146 195 199 200 214 239 203 260 240 221 215 202 225
224 227 215 218 242 241 239 245 264 223 219 220 218 214 208 200 192 188 178 174 177 181 188 198 203 193 191 188 184 186 191 198 159 223 264 145 192 210 225 211 215 226 228
255 240 239 236 244 240 243 250 261 219 211 222 221 211 203 197 186 177 178 179 180 190 197 201 188 189 187 189 193 199 201 179 219 251 140 157 224 207 216 209 226 233 255
221 254 255 241 245 239 252 256 223 213 220 217 211 202 197 187 181 182 177 179 190 196 192 184 188 184 192 188 198 212 233 168 136 141 158 221 211 210 216 225 237 267 533
267 253 259 257 251 198 262 266 210 219 216 210 204 195 188 182 180 175 183 190 192 189 188 142 184 190 197 208 224 166 222 145 141 162 211 197 211 217 227 238 423 541 489
250 282 285 287 263 264 259 210 224 214 207 203 193 185 180 179 179 185 190 191 183 180 185 191 193 201 213 239 251 225 255 144 201 204 210 209 217 228 243 341 547 487 429
261 264 264 259 240 207 220 217 212 205 198 187 176 180 178 182 189 191 183 183 164 149 174 198 211 232 259 219 292 234 177 203 205 211 208 221 228 247 438 537 477 417 379
249 224 204 208 216 216 213 208 200 189 184 180 179 182 186 188 175 183 185 188 192 195 207 225 253 235 224 282 149 203 205 204 208 214 225 231 249 541 529 469 400 377 360
207 211 217 215 212 206 198 188 179 178 179 181 186 182 180 182 184 187 191 193 204 214 266 255 217 272 163 174 203 202 203 203 216 225 236 279 522 525 453 396 369 351 356
215 214 211 204 189 180 179 176 177 183 184 121 128 185 186 188 191 192 201 211 234 250 209 215 207 161 205 213 199 194 202 207 217 233 315 507 523 432 385 364 354 345 315
205 193 184 185 179 175 175 175 181 184 186 185 187 188 191 191 200 210 226 257 206 237 277 152 203 195 203 197 197 197 206 216 253 311 490 515 417 376 359 344 328 315 307
185 176 170 171 172 175 182 185 181 185 187 186 192 191 201 210 223 249 204 248 309 199 206 212 204 205 193 203 199 206 219 298 310 458 517 410 370 350 336 325 317 309 316

GFSMW_2pvu_pres_042.txt.gz
Presure
196 226 231 224 234 214 204 214 225 222 249 251 216 245 194 90 98 84 90 177 195 140 102 123 128 90 213 105 96 84 113 91 106 109 102 110 180 183 214 192 200 191 188
192 212 227 231 230 226 212 202 219 218 237 247 216 205 83 200 200 195 187 88 185 176 196 101 186 91 100 107 84 92 90 100 143 106 103 160 197 195 190 200 196 197 192
192 221 232 176 230 224 222 202 224 217 158 260 246 212 237 227 175 198 196 153 118 115 187 109 105 108 84 153 91 121 163 204 201 198 201 200 201 202 197 197 193 197 196
225 220 222 238 229 226 207 224 225 217 232 251 261 88 115 145 235 124 128 191 95 89 98 103 104 174 89 115 193 182 189 185 185 185 177 202 207 199 190 204 199 197 201
221 229 215 231 238 236 220 111 103 209 113 108 268 93 124 247 111 96 199 166 100 98 175 179 127 182 96 167 175 197 210 191 184 180 177 207 180 196 207 193 194 199 200
230 234 233 231 222 232 152 227 231 218 130 286 271 252 238 241 247 224 184 209 103 159 127 132 179 134 180 180 181 201 177 186 189 181 179 183 196 205 201 196 188 191 196
257 251 243 241 245 229 229 215 233 227 218 244 268 254 238 230 243 232 229 97 98 146 189 180 173 170 187 185 178 180 180 173 186 183 176 199 202 201 202 199 198 197 201
245 247 256 253 250 237 225 220 231 98 104 204 266 252 238 227 82 232 223 217 201 195 195 192 187 188 172 182 188 174 187 173 186 183 188 189 199 201 203 201 202 206 205
282 248 244 243 246 233 215 225 227 213 230 224 265 252 238 226 226 221 220 178 200 195 192 96 194 187 185 188 188 182 179 187 185 186 183 198 207 205 204 206 207 186 185
275 311 267 239 247 235 227 220 231 224 216 190 265 248 235 226 224 234 224 157 206 202 189 192 195 189 186 185 184 174 184 178 186 183 194 199 204 205 212 194 185 169 187
322 296 295 262 245 236 231 223 226 125 207 211 264 244 235 227 225 231 224 220 210 200 198 187 184 185 181 181 189 183 184 185 184 189 199 204 210 206 191 191 151 193 199
417 287 289 262 243 233 225 221 225 223 218 204 257 242 230 226 221 217 223 221 212 203 195 192 187 185 181 185 183 184 184 185 189 198 205 210 195 193 187 171 196 205 138
378 270 278 257 245 232 221 222 216 218 212 126 251 241 227 225 148 218 224 220 211 204 198 194 192 185 183 182 182 184 184 186 195 203 208 192 185 189 195 190 142 137 194
84 85 270 250 239 224 231 201 215 218 217 239 242 246 226 222 217 220 222 220 215 206 203 195 193 188 181 182 182 182 180 193 204 200 193 186 169 195 193 127 133 141 149
104 203 266 245 234 238 221 217 207 207 234 237 236 244 227 218 216 215 223 221 214 209 206 200 192 185 184 183 180 182 191 204 188 193 188 188 197 211 237 131 139 230 222
273 81 260 245 235 232 212 204 216 218 236 237 239 246 229 217 214 212 217 217 210 208 204 201 191 189 183 176 183 190 199 193 184 148 191 202 215 130 135 134 216 240 215
265 261 199 250 245 213 223 215 220 221 237 235 237 244 229 217 212 210 218 214 210 206 201 195 186 181 178 182 192 195 185 190 190 197 212 236 127 182 266 191 229 212 216
186 245 247 234 232 221 215 216 214 225 233 234 238 248 229 216 207 220 213 209 207 202 196 184 176 183 185 194 192 192 192 192 201 216 245 233 292 207 209 214 186 216 227
225 223 227 222 223 220 220 226 236 226 226 237 242 253 216 206 220 215 211 205 201 187 177 186 182 192 194 185 191 154 195 208 232 226 243 215 197 226 216 214 216 226 241
231 184 223 216 216 216 229 225 236 238 230 246 251 215 204 220 214 209 202 201 189 186 183 187 192 183 189 191 193 204 216 233 217 280 168 217 213 170 216 221 231 243 496
252 256 248 252 246 239 241 240 243 243 251 242 205 200 216 212 205 204 191 185 182 184 190 182 186 192 191 195 207 229 242 285 188 237 220 213 219 216 222 237 276 485 423
261 274 275 280 285 284 272 257 256 227 204 206 215 211 206 204 191 184 180 183 187 182 186 190 192 194 205 225 226 237 281 183 190 211 222 212 216 227 240 382 466 401 373
247 256 258 249 251 246 211 204 217 217 213 210 207 202 188 179 181 167 187 190 185 189 186 194 202 221 253 216 282 175 214 215 217 206 213 222 220 242 506 447 392 368 355
213 206 204 204 204 211 213 212 210 207 205 193 173 179 181 182 189 188 184 189 191 193 200 214 215 209 295 267 248 225 210 207 205 211 217 229 324 497 430 383 365 351 332
207 212 214 212 211 211 209 204 187 172 176 182 180 183 188 184 186 190 190 194 201 214 182 205 245 281 260 235 206 209 204 197 213 219 245 365 472 412 375 358 345 328 319
216 213 211 205 200 188 179 181 177 174 178 186 186 188 189 189 189 196 204 219 212 201 245 285 263 245 218 205 205 209 196 212 229 301 485 451 397 366 350 335 323 317 313

GFSMW_2pvu_pres_045.txt.gz
Presure
195 199 186 189 188 202 189 193 193 235 225 95 221 220 102 241 223 225 91 212 151 82 97 103 100 203 181 190 109 206 81 155 92 83 104 93 116 117 108 194 194 194 195
216 197 212 221 212 211 222 212 203 242 225 247 230 201 215 85 88 90 87 90 109 86 102 133 198 193 121 139 91 97 121 117 84 137 189 147 136 120 203 105 103 195 174
211 210 221 216 197 198 207 214 198 227 227 244 244 229 204 215 213 236 233 182 123 214 239 199 202 195 189 187 147 186 185 101 106 85 119 188 194 182 168 185 186 179 180
214 216 217 212 209 208 217 211 214 223 236 239 231 240 241 205 213 215 238 208 232 221 233 218 204 200 91 102 95 101 106 188 187 173 165 171 193 187 146 190 192 185 198
224 221 220 222 224 215 211 219 214 218 221 247 243 230 230 227 211 135 205 98 228 203 102 106 215 104 97 190 177 99 116 148 112 188 184 180 185 185 178 171 191 185 190
219 226 216 211 213 220 195 162 218 205 215 229 244 226 239 225 213 197 268 249 231 168 234 102 144 135 101 104 189 96 173 175 174 183 184 191 185 182 187 177 187 186 188
236 201 217 206 196 216 217 210 223 227 231 216 158 234 228 137 224 122 109 192 236 231 233 240 230 226 222 212 199 185 184 180 175 99 171 181 189 190 180 184 186 188 184
250 249 178 241 238 237 234 209 192 226 224 233 228 236 201 229 226 202 265 252 238 230 232 234 229 223 214 217 210 195 192 190 190 184 188 188 185 186 179 186 190 187 189
167 233 252 258 261 262 263 252 239 236 231 231 239 227 219 225 150 217 204 231 237 213 220 238 229 222 219 90 192 183 191 192 192 190 190 183 184 188 188 189 190 183 192
196 222 312 268 235 240 239 245 244 242 242 149 236 224 222 225 225 225 200 252 241 228 221 164 227 221 217 212 209 195 196 190 190 187 185 186 182 188 189 188 182 189 201
110 287 288 316 281 314 248 228 226 234 245 236 231 215 218 218 223 220 262 252 239 230 225 218 225 223 217 210 208 199 198 193 191 191 188 183 187 184 186 183 187 198 209
123 139 299 286 339 287 303 271 233 227 234 238 226 218 214 220 218 219 214 241 238 230 225 221 224 221 217 210 209 203 199 194 194 193 190 188 182 188 182 189 194 202 194
90 351 344 320 315 391 302 280 252 235 226 233 226 223 220 220 217 216 261 250 236 229 224 220 221 219 218 214 209 207 206 197 195 198 194 185 189 182 189 193 198 196 194
368 366 294 353 305 287 268 283 256 237 225 228 221 219 218 224 223 217 250 252 235 227 223 221 217 216 218 216 212 209 207 209 200 201 197 189 180 190 192 198 195 197 203
373 377 401 82 205 279 104 282 255 233 231 228 217 211 218 216 214 241 244 249 235 224 220 217 217 220 218 218 215 214 211 210 206 203 184 185 188 194 199 194 200 208 236
366 265 397 302 280 270 281 255 237 233 229 224 216 210 196 216 234 240 234 242 236 224 218 212 215 222 219 216 213 210 211 208 200 182 191 189 197 194 195 204 218 240 233
394 308 282 270 129 268 249 210 233 231 223 225 217 209 209 218 229 237 234 242 239 224 216 211 207 207 215 215 213 212 209 199 178 185 192 196 198 199 208 233 127 171 154
269 274 271 260 250 239 234 227 230 227 217 211 206 204 220 215 236 234 234 240 240 221 214 210 206 217 214 213 212 204 193 185 189 187 196 195 203 217 221 163 151 197 224
262 259 252 245 239 232 228 228 221 222 215 215 216 216 208 227 233 232 236 239 238 217 211 218 217 214 212 206 197 184 187 187 196 194 200 208 227 127 285 208 227 215 212
241 240 198 238 236 228 215 226 222 211 209 213 220 226 227 236 232 236 240 241 214 207 218 216 213 208 198 181 184 191 198 196 195 203 206 131 267 286 248 231 224 217 235
231 232 234 234 228 223 219 219 208 206 219 221 236 241 232 244 244 241 214 205 209 214 212 209 193 181 189 192 195 193 195 199 206 166 263 288 269 229 215 218 227 243 247
225 221 214 214 215 213 212 218 228 235 242 246 188 245 248 225 207 203 210 213 210 203 180 183 190 190 189 192 193 199 205 224 248 288 272 239 215 222 223 243 241 368 403
254 240 263 272 266 250 250 288 287 291 253 238 215 207 199 208 214 212 208 180 179 188 190 188 190 192 193 199 208 223 223 282 269 251 199 217 216 236 236 241 420 390 374
238 256 250 250 258 257 248 238 214 210 208 205 210 212 212 205 181 182 189 190 189 189 190 191 194 201 211 219 240 276 264 250 241 214 203 228 237 236 316 409 384 367 349
221 217 213 212 211 208 203 203 207 211 211 210 196 177 176 185 190 189 187 191 190 192 196 204 213 214 249 273 260 245 239 214 203 224 232 231 321 429 397 376 358 338 329
203 202 203 205 207 208 209 211 208 190 175 179 186 188 188 187 189 190 192 195 200 208 210 215 264 265 251 239 235 215 222 227 228 227 249 392 422 390 368 349 332 323 341

GFSMW_2pvu_pres_048.txt.gz
Presure
220 219 217 219 224 222 216 211 198 85 92 213 208 193 98 226 248 238 225 222 166 107 84 103 99 105 87 83 93 115 94 88 194 199 84 143 170 97 84 90 102 111 146
207 203 220 217 215 216 216 212 185 232 204 194 159 197 193 195 211 135 187 99 103 103 133 156 91 88 85 88 85 100 125 196 193 192 152 185 187 158 186 108 184 176 162
203 205 209 218 212 216 215 214 173 206 210 225 214 223 205 212 201 201 187 212 225 216 145 205 230 85 161 168 175 223 239 208 194 88 173 100 97 97 182 189 151 138 168
198 209 202 202 212 217 217 216 207 219 184 168 216 192 209 83 109 224 232 239 219 194 124 215 203 235 231 238 240 227 238 238 201 189 120 104 132 119 104 163 189 179 187
207 208 206 206 204 232 232 218 216 201 219 221 219 207 225 210 194 233 238 231 228 234 208 210 220 217 237 185 195 240 115 179 96 201 193 134 103 181 178 180 181 185 179
211 214 217 223 230 235 233 229 202 215 210 213 222 219 207 211 209 215 228 247 228 221 225 209 208 259 248 176 229 225 236 225 195 216 216 203 198 192 182 178 179 177 188
225 229 215 234 246 251 255 246 235 225 221 217 218 213 212 210 206 206 235 240 232 233 230 226 207 190 252 216 187 182 233 232 227 220 141 129 216 204 137 195 191 190 188
234 242 266 141 142 257 252 252 255 232 222 213 195 207 204 204 213 231 224 143 242 220 209 142 96 225 108 104 236 229 232 183 95 223 219 218 214 212 207 200 196 192 193
166 261 238 230 249 243 241 150 244 243 238 236 238 129 220 210 230 231 231 233 240 218 227 229 218 258 250 240 234 229 224 89 234 223 220 217 216 210 201 203 196 193 190
163 257 261 200 108 265 260 260 263 257 251 248 242 233 227 234 205 230 227 233 240 226 207 222 237 252 225 241 235 228 220 222 225 226 222 218 215 214 210 202 204 202 200
78 262 242 273 267 234 259 252 248 243 242 261 260 249 242 243 238 231 228 235 236 225 221 228 220 269 248 238 233 227 220 217 215 220 218 219 212 213 213 210 206 205 204
309 183 310 312 307 120 281 285 282 224 325 223 235 248 249 246 238 231 230 236 228 213 222 224 224 257 246 239 229 225 219 217 215 217 217 218 216 214 215 212 211 210 215
325 332 339 363 121 115 394 291 290 267 304 300 228 224 226 217 227 233 233 230 225 215 222 221 240 244 251 235 227 225 218 216 216 219 217 219 219 219 217 217 218 220 220
347 341 344 381 123 129 211 338 336 287 278 310 271 235 217 207 221 231 229 228 223 220 223 225 214 244 243 237 228 225 220 217 216 218 218 221 222 223 222 223 221 220 220
361 348 327 358 302 135 182 305 140 275 287 303 254 251 226 219 220 224 228 224 219 216 214 215 234 237 240 239 234 226 221 218 218 223 225 225 223 222 221 222 221 204 195
366 361 384 366 338 325 303 307 305 289 280 285 262 243 233 220 218 228 223 215 185 204 205 221 234 229 239 241 236 228 220 215 214 215 215 218 220 224 222 202 195 197 201
406 411 400 350 298 307 321 346 317 286 275 264 249 235 216 219 226 226 215 213 205 215 211 233 237 233 238 242 241 228 217 213 212 214 219 222 222 200 191 197 198 204 212
270 273 279 283 282 283 283 281 276 265 254 247 235 229 218 224 191 218 210 204 216 211 224 237 231 234 241 242 237 216 214 214 218 220 221 200 193 195 202 204 208 219 240
252 257 259 259 257 258 256 251 246 240 233 226 221 222 222 208 211 203 211 216 206 235 238 240 237 241 232 223 215 212 217 220 220 191 195 197 198 204 209 219 216 272 278
241 239 240 237 236 234 232 230 228 225 224 224 220 220 220 211 217 209 230 229 233 229 239 240 223 214 210 206 216 218 177 191 193 194 199 204 214 220 235 279 274 266 248
239 236 237 228 236 226 225 223 225 161 215 215 215 210 216 209 215 226 242 236 244 238 215 209 204 208 214 210 191 191 195 196 198 204 213 222 237 276 268 257 236 236 244
227 227 229 228 222 214 219 214 216 225 218 201 204 206 208 217 234 241 236 217 208 204 208 213 212 197 190 186 193 198 200 209 217 218 243 267 264 250 237 239 234 251 288
236 224 214 216 206 208 206 206 205 210 212 211 218 235 244 245 219 209 201 207 212 210 192 188 184 188 194 197 204 210 218 220 249 266 258 243 233 235 235 250 254 410 390
244 253 247 248 246 235 228 228 237 251 257 258 242 217 209 204 207 177 205 188 185 183 185 192 196 201 207 209 219 210 257 264 252 238 232 221 228 242 260 435 403 379 358
235 237 239 246 256 258 251 245 225 215 208 204 204 197 191 184 188 184 182 185 190 194 198 203 206 211 217 228 255 257 244 235 227 220 220 232 246 389 423 394 371 350 336
211 209 210 210 209 208 206 206 207 206 207 208 208 197 183 183 187 190 192 198 201 206 206 216 216 238 257 250 240 229 226 221 223 231 245 313 467 416 385 362 343 332 322

GFSMW_2pvu_pres_051.txt.gz
Presure
202 209 205 197 199 192 192 225 187 231 123 226 221 217 209 208 200 197 214 214 219 235 211 251 95 131 101 102 102 103 102 106 92 91 90 100 99 105 133 192 192 192 96
183 192 197 202 205 216 196 227 224 224 224 225 222 215 184 231 225 213 186 192 205 204 205 174 188 225 118 163 95 91 90 90 117 96 93 102 102 202 209 196 194 192 136
197 198 204 199 214 218 203 218 215 209 217 225 217 217 215 218 217 198 215 222 191 158 213 192 197 239 156 107 102 106 102 182 236 173 99 103 223 218 241 237 157 90 120
206 210 211 216 215 215 214 205 211 205 208 213 219 224 224 226 211 226 236 228 216 221 187 210 204 234 207 140 205 225 215 216 221 230 236 229 239 117 132 95 86 121 187
206 206 211 213 206 209 201 206 212 206 207 214 205 215 220 217 162 213 191 209 208 203 198 209 219 233 241 229 227 231 219 215 225 254 184 179 234 227 135 169 217 213 214
211 210 209 212 204 213 212 195 200 205 209 214 206 205 217 220 200 212 207 211 213 197 211 216 210 220 244 234 234 236 230 210 211 210 251 249 108 152 226 197 225 214 165
213 218 220 221 217 211 208 214 213 207 213 217 216 216 224 239 245 224 217 206 202 216 201 208 204 230 235 240 233 241 231 227 244 252 232 180 241 236 208 230 231 224 220
226 224 226 219 218 209 213 217 217 216 217 229 231 231 235 259 247 244 225 221 209 221 201 206 217 236 228 198 232 129 111 228 253 256 212 246 241 236 215 226 229 223 222
234 106 235 215 212 224 229 229 162 231 237 242 252 265 258 76 100 152 106 218 215 203 200 213 230 227 237 239 232 226 225 229 263 254 250 245 241 236 229 225 228 231 226
244 245 243 245 117 209 240 244 190 260 273 269 263 255 250 244 228 227 240 237 83 144 233 228 232 235 237 238 230 226 227 226 271 258 244 238 234 234 231 227 225 219 221
200 88 235 98 113 125 136 103 112 240 266 260 260 257 239 225 221 222 223 221 224 228 229 235 231 233 236 238 226 224 231 221 254 256 252 242 236 233 228 228 227 226 226
267 83 258 95 146 289 233 280 289 270 119 255 234 222 237 245 248 250 247 248 244 235 235 230 230 230 235 229 223 214 222 224 231 254 257 248 242 236 232 229 227 225 225
375 392 354 330 287 346 329 320 317 301 278 268 286 277 241 156 236 232 224 231 241 242 237 230 228 227 231 227 215 208 222 227 219 248 248 251 244 238 235 230 227 225 226
403 403 350 352 336 334 347 340 348 355 126 145 273 190 280 282 245 278 215 223 234 227 223 223 227 223 223 219 218 220 219 228 241 240 244 246 249 247 236 229 226 222 223
428 390 363 353 366 357 347 351 337 222 129 130 180 265 267 252 217 282 215 207 208 209 214 217 222 219 220 143 219 211 208 241 246 240 244 246 245 242 240 229 220 219 219
439 408 417 372 364 368 366 376 305 207 136 323 331 263 274 264 291 262 227 151 207 208 222 214 220 218 212 206 221 214 226 236 236 240 246 242 241 238 224 223 223 232 230
282 309 327 318 349 336 324 327 316 314 317 307 318 282 264 284 269 240 232 226 219 212 210 220 222 215 207 215 214 238 237 240 243 240 232 226 222 219 223 227 198 200 205
250 270 279 286 294 306 306 284 277 279 279 276 267 273 276 245 235 227 225 191 215 216 221 219 214 202 215 227 224 237 242 240 224 218 216 221 221 205 193 198 208 206 219
245 246 240 239 262 267 266 267 269 267 259 258 243 242 227 232 223 221 219 217 219 226 203 209 211 219 227 236 246 235 218 215 217 201 196 189 194 205 204 212 224 238 266
236 234 239 237 240 240 239 238 240 235 219 234 229 229 226 223 220 221 222 223 206 213 205 216 229 241 247 238 215 213 215 202 190 198 199 202 208 219 227 248 271 266 251
227 227 222 222 220 219 221 225 224 223 225 216 213 215 220 224 222 221 220 206 207 215 234 244 241 218 209 213 207 186 188 193 197 203 212 221 231 252 266 262 245 222 231
233 230 225 225 219 227 227 223 223 226 220 215 216 199 208 216 209 213 219 234 237 240 218 207 208 189 173 181 188 196 197 207 213 222 235 254 260 253 237 220 220 235 249
214 217 228 257 241 233 245 245 220 247 200 229 223 207 215 224 227 227 228 230 206 203 176 174 181 187 190 194 203 209 215 227 239 255 253 245 215 222 227 226 242 272 414
242 234 221 217 224 225 224 222 223 219 222 223 223 224 229 233 232 207 201 189 174 180 185 189 191 200 207 212 217 229 258 252 249 233 216 213 222 221 246 316 440 407 382
239 248 249 261 241 232 228 230 233 232 233 237 230 220 202 186 177 179 180 185 187 189 196 203 208 215 219 231 239 253 205 227 218 221 187 227 269 322 369 428 399 374 353
212 210 227 231 237 237 236 220 220 202 185 180 181 179 180 182 184 186 190 196 202 208 208 214 222 229 236 248 246 223 213 221 179 231 254 316 326 474 419 391 365 347 334

GFSMW_2pvu_pres_054.txt.gz
Presure
180 179 183 190 191 183 207 209 192 185 211 201 208 205 190 196 188 178 200 212 221 218 206 203 103 219 213 107 110 221 94 99 105 102 104 96 103 104 103 90 96 240 148
184 181 193 199 192 188 198 165 199 208 204 204 211 206 227 227 218 213 204 218 216 220 218 222 215 215 189 220 194 206 205 109 91 148 106 98 91 90 99 97 98 132 127
194 196 198 205 201 198 190 207 209 200 190 201 207 201 219 212 208 207 150 210 213 206 205 211 214 209 152 211 203 201 211 140 100 103 97 94 101 105 106 211 208 224 220
196 197 206 207 189 202 202 205 211 205 205 210 211 214 204 175 217 215 199 198 151 203 203 201 195 193 175 203 201 199 213 116 103 247 219 110 100 100 192 162 216 117 156
208 209 201 202 200 206 206 206 209 206 212 209 206 212 213 207 205 213 216 208 202 198 204 210 222 88 207 97 213 195 198 177 189 200 246 240 243 218 232 218 209 213 256
203 205 209 208 206 199 197 205 209 207 208 208 205 207 208 208 205 191 197 195 209 198 203 207 221 209 220 199 209 207 210 221 216 221 238 239 231 233 278 270 226 180 223
210 208 204 202 201 206 207 210 212 214 213 213 213 216 221 207 211 203 207 211 213 198 203 206 217 221 210 212 211 200 209 206 208 233 242 240 232 238 212 234 86 252 246
210 208 208 210 211 212 213 211 212 220 222 224 228 226 226 221 205 206 213 215 213 205 209 225 226 230 224 220 207 215 220 204 212 234 238 109 201 211 234 253 231 253 250
210 210 197 92 217 222 222 221 224 229 230 243 243 231 229 218 208 205 209 206 213 217 220 249 248 243 228 224 223 216 203 233 226 232 235 237 234 229 229 229 227 264 255
225 223 224 87 231 214 230 257 256 254 255 258 253 252 252 248 221 223 140 219 236 263 252 240 240 240 175 136 177 217 223 224 234 228 234 237 230 227 233 223 233 262 261
242 220 197 96 140 144 224 91 222 242 267 209 170 152 152 238 210 243 254 268 260 249 243 237 183 223 231 230 222 221 229 230 229 227 232 232 227 222 224 230 226 235 249
244 169 260 260 255 251 258 111 260 128 128 143 273 258 142 140 265 263 266 250 236 236 236 230 231 214 214 219 228 231 230 232 226 226 235 229 224 216 223 228 250 248 246
245 258 138 310 328 348 343 340 342 122 123 289 292 289 258 240 233 230 225 232 226 162 145 230 234 236 229 239 237 233 230 183 227 230 230 223 227 218 221 237 250 243 247
279 276 301 282 344 417 395 390 358 349 343 324 318 297 288 209 279 270 193 261 220 212 226 181 213 214 220 231 233 223 208 150 228 184 221 216 222 221 235 245 249 251 252
279 310 140 168 413 364 357 343 333 337 335 338 330 321 320 123 126 133 275 250 271 256 215 225 225 205 216 215 201 211 219 218 225 221 217 213 217 233 242 246 250 226 225
273 301 291 344 383 384 376 369 362 354 354 341 326 318 311 285 123 141 286 271 266 269 199 219 241 133 205 202 140 222 215 197 216 212 215 215 237 242 251 221 223 222 219
219 269 288 298 305 308 329 329 327 331 331 328 334 326 309 137 145 192 261 247 256 275 238 211 220 162 205 209 158 216 223 216 210 216 231 243 250 221 221 218 209 200 197
247 238 260 279 283 291 291 294 316 302 312 328 329 323 281 208 252 252 263 207 235 237 236 225 215 219 218 218 219 223 208 217 228 243 248 224 218 207 198 194 200 205 223
248 234 247 248 258 261 263 264 267 269 268 267 262 259 250 242 241 239 234 229 229 210 223 223 225 225 216 223 207 214 224 232 257 215 214 193 190 200 201 206 233 243 264
243 240 237 225 238 239 247 245 243 239 243 241 239 230 228 231 224 226 226 226 220 225 228 227 225 224 213 214 220 231 249 212 194 188 183 198 204 214 236 244 267 253 235
235 228 227 233 221 237 238 221 227 232 226 225 230 232 222 224 226 227 228 229 232 229 221 211 211 217 222 235 231 186 186 184 194 201 207 228 237 243 260 246 230 226 232
220 228 223 235 211 214 238 227 237 225 239 239 227 226 226 226 226 224 205 210 210 213 216 231 240 240 183 183 182 189 198 200 212 227 235 241 248 235 225 224 229 232 249
223 221 218 229 252 217 243 234 243 235 234 231 218 214 209 204 212 214 216 229 239 236 216 210 182 177 185 195 200 203 214 229 232 239 244 222 218 226 225 235 258 295 331
239 235 236 230 223 225 227 218 214 218 219 220 231 235 218 228 240 242 235 204 174 178 183 193 194 197 201 205 214 227 234 238 241 217 212 226 225 239 275 301 340 343 417
236 244 262 259 246 239 235 235 236 236 233 232 229 231 206 201 181 181 185 192 194 195 196 200 202 205 213 227 235 236 230 210 215 217 224 243 292 302 322 343 389 406 389
215 214 219 213 252 249 236 245 248 221 212 190 177 183 186 192 194 193 199 197 197 202 207 209 224 231 239 225 216 207 206 212 221 199 297 309 335 335 436 424 391 380 355

GFSMW_2pvu_pres_057.txt.gz
Presure
178 169 152 169 172 187 98 69 166 177 170 168 175 182 179 174 185 196 193 192 185 205 216 212 229 90 217 185 227 121 113 202 221 205 111 105 111 102 98 104 102 108 101
178 178 174 182 207 165 164 166 166 160 173 174 181 180 201 202 199 197 191 191 199 205 227 214 217 214 215 209 211 212 129 225 214 213 207 143 191 163 105 145 107 105 94
194 206 207 203 195 201 196 188 188 184 181 189 189 198 205 201 195 189 196 199 185 183 189 182 196 185 211 201 206 210 214 221 177 216 192 153 199 221 189 182 159 198 163
210 200 193 188 197 192 183 189 196 198 204 197 194 199 207 189 202 200 212 202 209 202 211 214 228 215 203 201 204 204 203 236 219 220 228 230 201 119 121 204 212 216 230
205 199 202 205 201 203 205 206 207 201 203 201 197 203 195 198 204 211 210 210 215 208 199 206 206 207 205 208 195 201 211 204 212 207 210 226 207 209 203 220 211 205 229
207 209 201 203 200 201 206 199 200 204 209 212 208 208 212 206 196 196 210 210 209 205 199 203 215 194 188 198 195 204 206 198 208 214 220 217 213 209 222 210 217 209 243
211 208 206 203 204 202 197 207 204 206 206 205 204 205 205 205 205 204 204 204 203 202 205 207 221 205 202 198 203 206 210 204 210 211 225 234 222 220 220 216 213 235 235
209 208 206 209 209 205 204 208 209 208 204 203 202 210 213 211 208 201 205 212 208 208 210 215 210 209 207 201 204 206 205 212 213 223 244 231 220 223 219 215 224 226 231
208 210 210 211 213 213 211 212 212 213 214 213 211 213 215 216 215 216 209 208 207 209 227 230 214 219 212 204 203 209 208 210 235 247 241 234 228 207 212 225 227 233 228
219 218 217 217 217 212 217 218 193 186 224 224 223 224 226 223 221 222 221 230 244 247 146 149 238 233 217 206 206 219 248 248 242 238 234 225 228 224 222 231 232 231 228
251 252 248 242 243 129 211 131 246 177 91 248 224 262 217 258 216 251 256 255 244 247 245 246 241 236 232 220 250 203 246 240 231 217 217 215 213 224 236 237 235 229 229
249 249 254 245 277 185 274 273 277 190 284 96 287 285 278 271 263 258 249 231 115 133 230 169 226 230 253 252 250 238 236 226 227 211 208 231 237 238 240 221 228 229 227
285 275 264 260 231 259 263 276 290 297 296 292 288 288 279 273 126 199 264 255 250 243 250 249 249 254 253 245 234 228 224 198 219 228 220 228 235 230 211 204 210 230 225
249 244 253 267 275 300 346 375 450 431 433 363 292 283 284 301 294 286 284 278 266 262 291 242 224 205 210 221 233 239 226 229 222 181 220 226 213 208 223 226 231 224 214
242 255 261 259 273 278 270 394 382 352 360 376 374 357 368 383 356 301 280 273 263 223 121 246 245 247 264 204 210 207 218 219 195 211 218 198 205 219 221 226 215 223 232
236 246 246 244 301 223 342 359 378 375 362 343 332 338 326 323 329 315 303 304 278 285 121 125 265 244 253 251 128 170 207 126 227 224 200 211 216 221 225 215 228 242 249
247 258 229 263 279 307 321 313 316 319 326 354 339 333 323 316 304 291 281 283 284 291 126 142 260 257 242 241 265 227 200 212 232 218 217 222 226 224 225 238 218 210 199
245 238 230 248 270 244 277 296 323 316 313 317 323 348 322 313 303 303 286 272 252 185 244 254 184 259 244 247 223 244 231 198 217 222 227 228 224 232 216 200 191 193 200
228 232 217 218 209 245 261 270 270 255 279 278 279 275 269 271 261 257 245 250 234 236 224 231 236 246 236 235 228 226 227 226 227 222 220 230 210 193 195 199 210 230 243
232 230 222 233 250 249 239 259 256 251 251 251 251 251 249 248 247 253 241 231 228 226 229 239 230 239 235 228 227 227 220 218 219 227 200 189 190 204 218 232 241 235 221
227 223 229 221 235 214 224 246 229 256 227 253 256 251 246 243 238 234 238 243 234 237 236 231 235 234 224 222 217 214 219 215 187 191 206 215 226 236 242 226 222 225 213
217 226 231 231 245 216 232 221 228 234 229 223 222 222 221 220 222 215 226 216 215 213 215 215 216 217 223 227 205 185 184 201 208 214 225 233 240 217 224 217 221 229 243
239 233 224 220 209 222 216 214 213 217 209 217 226 222 217 213 216 217 216 214 210 209 222 216 189 185 184 183 200 209 210 221 225 235 240 206 222 214 216 227 243 256 312
237 246 245 259 251 226 226 227 232 235 231 231 221 216 216 212 224 191 194 190 193 192 191 189 195 203 206 210 210 227 241 246 203 199 225 214 212 222 247 263 318 355 447
236 236 207 224 231 258 246 247 245 243 241 234 229 227 194 193 192 190 191 187 192 201 204 210 203 221 246 244 234 215 191 199 216 215 214 200 248 310 324 452 459 401 397
217 221 218 213 211 205 206 217 212 198 184 183 187 197 199 198 198 196 209 209 210 201 229 234 227 224 217 203 198 189 204 207 200 217 281 318 456 551 460 364 376 389 367

GFSMW_2pvu_pres_060.txt.gz
Presure
162 162 161 165 171 189 189 170 161 161 162 160 163 157 83 149 168 179 175 164 177 171 167 179 192 201 210 204 203 211 200 188 189 212 216 217 100 105 214 219 212 220 172
167 167 163 164 167 174 169 163 161 164 163 166 169 177 166 172 202 162 171 171 162 172 185 191 198 203 191 190 212 203 214 211 225 177 221 212 209 213 202 215 223 216 124
173 181 170 173 164 171 170 167 169 165 174 140 178 175 177 204 194 192 187 190 185 193 196 197 203 185 201 209 211 207 216 210 212 213 229 212 213 205 207 214 215 207 207
202 176 180 184 180 175 184 180 179 179 180 181 188 206 205 200 201 193 184 195 195 196 203 199 201 193 204 194 204 203 200 202 205 210 214 215 219 207 203 216 204 211 215
219 217 209 209 206 202 198 200 206 206 203 212 206 200 191 201 198 200 204 205 209 194 201 209 203 195 193 197 204 202 200 198 202 209 221 218 206 206 209 209 211 220 216
218 217 215 213 213 214 216 213 212 214 213 205 205 202 209 204 201 198 201 205 211 208 203 202 198 198 200 197 196 205 207 204 203 204 217 207 219 203 204 202 214 210 218
225 224 217 218 218 211 213 215 209 207 210 209 210 197 197 200 201 199 200 203 195 204 202 200 204 200 192 197 200 204 201 193 204 215 222 215 213 209 205 207 209 216 246
219 213 208 206 215 212 205 207 191 187 210 213 211 210 204 208 211 194 200 205 205 202 202 203 201 200 196 199 205 200 205 206 218 223 214 211 209 205 210 207 226 249 238
210 210 212 205 203 203 201 211 213 211 206 204 206 206 205 206 212 212 212 213 214 212 205 207 210 204 205 205 204 209 210 224 228 233 230 226 224 220 210 229 250 243 239
217 216 211 211 212 214 213 207 202 206 216 218 202 156 222 225 193 226 223 208 200 209 210 218 214 210 210 163 226 229 225 237 220 225 226 226 226 223 247 245 239 235 226
222 185 215 213 211 208 211 213 213 190 159 217 195 173 235 235 236 235 235 232 226 224 220 213 219 229 155 234 236 240 231 231 227 228 228 205 226 245 242 237 230 224 215
249 246 246 245 227 225 236 250 254 165 114 254 263 266 272 264 168 271 270 265 258 253 250 249 251 246 247 242 238 227 216 214 221 244 227 240 240 231 227 235 217 216 231
250 253 253 247 248 262 279 227 257 134 289 293 294 302 302 290 295 292 286 279 275 269 267 258 204 245 233 230 231 238 246 243 242 245 256 236 226 224 223 222 221 234 216
253 258 271 280 275 263 261 264 296 296 300 323 356 335 344 311 311 293 294 285 292 283 286 265 258 255 249 210 125 247 239 235 222 213 211 213 225 229 223 237 238 221 223
285 265 251 249 256 268 277 279 290 352 346 182 396 374 364 402 376 413 395 371 277 277 230 175 282 270 263 245 126 123 171 257 209 218 205 177 200 212 216 205 202 206 223
244 244 252 271 261 260 257 244 356 306 351 347 367 353 341 337 340 348 390 366 366 347 266 254 252 250 259 243 238 237 146 233 236 240 249 252 245 209 212 214 206 232 231
249 256 260 258 243 240 236 242 254 330 325 324 357 327 319 319 317 322 323 313 314 302 306 315 315 289 260 252 261 237 226 256 245 245 254 251 243 234 235 248 244 233 231
248 253 248 239 227 231 230 235 233 281 289 313 342 322 324 318 305 303 295 301 303 301 297 292 285 273 266 263 183 259 250 241 242 209 241 245 244 241 235 228 227 232 200
238 244 237 238 230 236 225 227 226 263 269 268 278 283 282 283 280 270 267 270 268 256 249 238 245 243 241 246 265 245 247 249 245 247 241 229 227 227 225 225 185 193 207
239 242 236 236 232 231 239 225 228 244 240 225 265 262 262 262 258 261 247 244 242 243 239 239 237 238 248 239 228 235 245 225 221 225 224 226 223 189 186 199 207 220 250
251 245 232 235 236 240 222 251 230 220 215 227 232 221 231 233 242 253 247 247 240 227 240 245 246 221 219 222 225 226 224 220 209 203 191 188 199 219 236 250 239 210 212
249 236 223 222 215 216 215 216 217 221 216 226 231 228 227 229 234 223 220 225 226 225 224 223 226 218 211 207 202 199 196 191 200 205 250 246 236 224 216 203 216 220 228
242 256 261 252 247 259 257 226 231 232 236 234 231 235 224 227 233 238 234 229 208 202 198 197 190 188 189 192 207 207 207 236 230 223 215 216 212 203 212 222 222 236 306
238 246 242 242 237 240 251 263 246 251 249 242 232 228 202 199 194 195 196 195 196 196 196 208 212 207 204 199 222 226 224 220 215 213 212 209 213 223 221 235 452 423 393
224 219 204 212 219 211 213 216 215 214 214 198 184 199 197 208 208 204 204 201 202 207 204 203 199 202 232 225 224 223 214 214 213 207 208 221 224 233 309 378 433 412 399
207 212 225 225 217 214 212 206 209 210 215 219 217 215 209 204 209 208 215 211 203 199 200 214 235 231 227 225 220 207 210 211 210 204 222 222 237 395 367 337 333 344 334

GFSMW_2pvu_pres_063.txt.gz
Presure
159 166 169 167 170 170 169 172 172 179 180 189 190 183 180 185 175 180 181 165 161 160 154 167 176 165 173 190 162 192 186 195 202 200 188 201 197 200 209 210 216 213 236
180 167 162 170 171 175 173 164 162 168 178 172 169 170 172 180 185 186 161 158 165 166 167 171 176 198 204 196 195 187 192 195 191 204 207 198 198 206 206 213 205 212 210
188 192 183 185 181 177 179 171 172 167 163 162 166 170 170 165 170 171 172 172 171 172 187 177 203 204 196 195 191 197 202 194 211 200 138 206 196 200 213 205 213 212 216
185 191 190 187 188 189 189 182 172 172 171 172 172 173 173 172 172 174 175 182 188 199 198 211 206 191 201 199 198 196 204 205 196 207 204 198 199 199 202 204 204 205 213
227 203 202 195 195 197 192 191 191 178 184 173 178 175 178 183 180 200 195 202 204 204 207 204 198 206 207 199 193 192 194 196 200 201 209 201 199 193 199 201 205 204 223
224 212 215 210 212 211 205 202 201 208 214 213 208 179 190 207 203 206 212 212 211 212 204 202 197 194 199 195 204 190 200 203 196 200 204 199 210 197 200 197 204 222 223
220 222 206 222 226 233 196 226 221 215 215 217 215 212 212 212 212 211 211 211 204 205 211 212 210 202 202 198 199 201 204 199 204 205 206 202 204 203 200 206 214 221 228
219 200 219 222 222 224 170 218 222 218 217 225 226 221 220 217 211 209 206 201 180 202 204 207 206 203 198 198 195 194 205 201 209 200 195 211 201 203 209 217 222 230 232
217 218 219 219 218 215 209 212 207 195 219 218 209 210 205 207 194 211 208 208 207 202 202 208 211 211 213 214 214 211 205 197 203 212 202 200 200 214 218 227 237 223 232
216 219 219 221 221 220 220 219 214 215 218 216 213 215 215 216 163 171 219 223 226 222 215 217 209 206 202 205 206 202 199 207 206 204 214 219 216 222 221 234 187 226 220
220 218 218 214 214 213 214 218 218 217 219 221 220 225 224 225 225 232 234 228 223 230 145 227 222 215 212 210 216 216 216 217 221 230 201 223 227 234 233 229 223 230 235
267 274 273 229 226 227 222 221 222 224 227 230 231 234 231 237 240 266 285 280 286 276 269 264 259 251 245 239 194 237 235 227 230 227 228 236 235 234 224 232 233 240 232
262 265 265 256 250 249 250 249 250 256 255 130 290 266 278 294 299 301 305 303 303 299 295 291 283 280 277 269 256 251 252 245 242 245 237 228 225 227 232 235 235 153 233
253 248 247 246 250 254 255 259 273 291 165 293 269 275 281 347 346 338 356 304 298 297 294 296 291 282 276 269 267 253 236 234 232 175 134 122 122 193 186 254 239 229 222
250 250 255 252 252 261 289 273 261 282 263 262 254 333 351 408 422 394 386 374 398 428 463 435 325 277 279 280 245 252 252 231 258 259 257 247 242 230 231 175 243 236 240
249 260 259 287 271 265 248 273 263 252 253 261 278 377 359 353 346 344 343 353 365 315 338 423 397 351 315 267 277 256 256 266 260 255 265 264 231 230 215 238 238 260 246
257 271 253 251 252 273 256 254 251 239 246 242 264 349 338 321 306 295 300 298 293 282 288 279 310 279 315 323 293 243 234 229 233 237 245 247 242 242 244 240 257 250 251
240 246 246 266 259 259 242 249 240 236 233 239 246 253 302 307 305 309 306 311 289 277 283 267 260 280 295 287 284 283 278 273 265 263 257 252 249 253 255 255 226 229 227
258 231 244 252 251 241 239 234 238 233 225 230 221 228 245 288 267 271 264 264 264 264 260 260 257 264 266 268 269 264 263 263 260 269 234 224 221 223 221 224 223 219 201
235 244 247 252 255 242 236 241 236 238 231 227 220 231 227 228 239 242 232 240 240 260 260 260 257 260 227 229 225 225 229 224 225 219 219 211 214 211 196 195 198 240 243
247 260 259 249 249 234 235 228 214 215 217 235 224 227 225 225 224 240 234 238 238 240 239 235 235 232 226 223 221 219 218 214 212 205 192 199 204 218 224 229 230 229 225
256 250 252 251 223 224 217 215 216 230 233 237 230 239 240 239 233 227 221 218 216 215 215 215 212 209 200 196 192 195 199 204 207 216 224 226 227 228 227 219 218 225 225
233 244 240 242 253 260 261 256 261 258 241 240 241 213 210 214 216 214 210 191 195 197 215 217 206 200 213 210 206 202 212 227 227 226 224 223 221 209 212 215 228 228 233
233 244 240 242 239 235 236 235 210 204 213 219 217 201 188 200 219 222 215 217 221 217 214 210 207 203 206 228 232 235 233 229 225 221 224 219 198 205 219 234 228 235 271
230 231 244 225 231 215 210 215 219 217 218 215 217 223 224 223 220 216 212 204 202 203 210 227 221 221 231 244 241 233 228 227 225 213 198 192 211 186 235 225 293 367 349
213 229 205 216 215 224 225 220 212 214 223 217 210 217 218 222 214 199 194 208 215 222 222 226 230 226 235 237 239 236 233 218 222 215 210 220 200 227 263 393 360 339 327

GFSMW_2pvu_pres_066.txt.gz
Presure
175 175 173 169 162 76 74 174 175 66 176 164 171 172 170 171 114 175 173 169 178 187 192 189 173 181 178 182 178 174 173 173 191 208 210 195 203 202 195 207 201 196 204
160 166 170 172 176 173 167 164 162 141 171 169 162 163 168 169 170 169 167 181 172 176 172 166 174 173 173 173 174 174 187 193 203 206 201 199 205 204 201 195 200 200 202
176 171 157 158 165 170 169 169 164 160 161 162 164 166 164 169 170 173 174 171 170 172 170 171 171 170 174 182 180 193 203 205 206 202 200 199 196 197 193 198 197 198 195
171 178 178 171 164 169 175 176 181 183 180 181 180 177 176 182 184 180 190 176 180 178 179 172 180 180 182 206 202 205 208 202 203 199 199 194 203 194 195 199 201 193 195
187 175 171 166 168 168 170 168 170 176 182 186 188 193 196 188 188 188 193 196 197 183 190 210 208 220 205 205 211 210 211 205 201 203 204 199 199 202 196 203 191 202 203
186 189 189 192 192 188 184 187 184 185 180 181 187 195 199 197 197 198 202 205 201 218 212 216 215 209 210 203 210 201 200 184 193 192 196 200 200 198 196 205 208 199 199
186 184 191 198 218 204 203 193 193 196 196 190 203 209 202 197 203 219 218 224 218 213 214 213 213 213 209 212 206 203 202 202 204 199 195 200 195 196 206 205 208 207 193
204 180 240 240 210 206 204 196 188 191 196 237 226 220 225 231 223 190 211 215 216 214 217 223 217 205 206 212 211 206 204 193 189 200 199 202 203 212 197 189 194 225 203
229 216 194 199 235 238 183 227 228 233 224 226 224 221 223 222 221 210 214 217 209 189 208 121 210 214 213 212 213 211 212 212 212 145 199 198 192 198 198 195 177 220 209
224 227 222 229 225 223 221 222 228 226 223 219 221 222 225 226 222 223 222 221 223 224 225 223 155 222 220 168 168 208 207 214 206 207 206 205 207 205 205 210 222 217 218
214 215 214 212 214 219 217 216 214 217 218 217 214 214 220 222 215 194 223 223 224 101 222 230 225 223 223 223 221 219 218 222 221 214 214 215 216 222 190 221 219 220 225
227 227 227 228 230 230 223 223 223 220 220 219 221 223 223 112 231 180 231 234 236 242 250 249 258 260 255 251 250 250 248 241 240 239 238 233 229 229 229 227 228 227 230
250 248 254 265 270 267 267 267 260 259 257 124 257 261 142 270 292 292 281 295 306 295 294 295 293 288 297 296 284 268 269 262 254 239 234 239 238 235 239 243 244 237 233
254 250 246 247 244 243 243 247 252 258 258 255 261 272 293 270 271 272 290 349 384 368 358 274 287 316 320 309 293 276 271 253 253 258 262 258 243 239 237 237 228 223 232
243 244 243 243 243 244 240 244 247 259 262 297 281 256 262 252 329 369 355 364 377 354 350 343 379 438 418 389 405 360 328 270 252 251 253 243 243 243 239 247 250 265 259
252 253 245 255 244 248 257 255 267 281 261 249 251 261 245 252 251 322 327 311 306 302 306 310 295 321 337 402 362 356 336 305 286 285 254 253 251 251 236 256 259 253 253
244 250 247 256 263 252 261 275 255 248 258 253 251 249 238 241 264 262 335 290 288 291 296 293 289 281 283 292 295 304 316 320 311 307 286 292 242 250 243 245 252 252 258
248 267 263 254 258 261 253 235 261 261 251 243 248 238 237 239 240 242 242 246 268 284 282 282 285 286 286 282 281 278 280 280 279 276 264 255 256 269 268 279 253 232 229
256 260 260 249 244 240 246 262 254 244 240 252 241 235 221 227 228 245 224 225 226 245 252 250 256 241 245 247 246 248 255 257 268 275 253 242 233 230 229 227 223 219 215
241 243 229 240 253 235 248 247 250 241 239 238 229 219 234 239 238 233 236 235 235 237 235 234 232 235 232 236 236 233 232 230 229 227 224 221 218 214 214 218 196 229 229
235 237 245 246 251 260 259 250 242 231 232 218 217 231 244 238 240 222 216 210 206 206 213 222 219 218 221 219 217 218 216 214 211 211 195 201 220 224 227 227 228 228 229
232 237 252 259 254 256 255 227 229 227 217 238 237 235 248 234 206 210 211 205 184 184 191 226 216 202 209 212 219 219 224 229 228 228 231 232 231 230 228 226 226 220 233
217 238 233 244 239 244 253 247 249 251 242 248 255 230 213 215 211 188 219 224 221 221 211 212 214 223 227 224 222 228 229 236 239 238 234 230 229 227 218 233 230 224 231
236 234 232 239 243 237 238 242 241 236 244 246 212 219 217 212 223 225 229 224 214 202 208 225 225 225 228 223 232 220 230 236 237 235 233 232 232 233 230 214 220 222 240
225 228 228 234 244 243 242 224 217 215 215 217 214 212 217 228 223 229 222 209 201 217 225 230 226 230 225 219 219 223 223 233 229 225 199 221 217 217 178 227 271 323 323
229 233 228 236 230 208 219 214 223 226 220 214 220 223 217 224 233 213 208 199 215 221 225 227 226 223 226 225 223 226 223 227 230 233 228 222 222 126 290 313 283 313 341

GFSMW_2pvu_pres_069.txt.gz
Presure
166 164 161 161 161 161 161 159 158 159 162 160 161 159 160 161 161 156 156 162 165 169 77 172 161 166 169 172 173 179 173 175 170 170 173 171 182 175 199 206 202 201 199
170 175 161 165 170 166 162 101 160 161 164 142 166 169 173 175 139 169 167 177 180 173 171 173 169 168 171 177 192 190 192 198 196 191 195 206 208 203 206 202 204 202 200
172 174 175 171 175 175 171 167 164 166 167 168 156 170 168 164 165 164 165 162 159 162 166 169 177 188 192 192 193 194 195 196 193 203 214 221 204 201 203 202 198 189 189
153 168 163 167 169 168 172 181 180 178 177 179 178 173 168 172 174 174 170 171 174 183 180 188 190 189 191 196 197 196 208 209 214 208 207 206 204 206 205 202 202 201 203
165 173 176 177 158 177 178 174 173 170 167 173 146 162 153 165 168 170 180 177 176 174 187 183 194 205 211 202 196 215 221 218 216 213 211 211 209 197 202 201 203 201 194
176 172 170 169 177 177 165 159 160 163 166 169 179 181 181 170 166 176 183 193 197 190 202 200 197 214 210 209 225 226 221 206 215 208 206 195 208 199 195 201 196 195 192
193 189 186 181 178 172 182 188 178 174 168 177 178 178 184 189 194 199 207 206 204 206 201 205 240 228 231 226 222 219 213 212 211 198 209 212 204 202 200 195 197 196 200
209 209 201 184 180 181 187 193 196 194 184 188 193 193 190 192 196 200 205 207 201 195 198 233 227 222 224 218 218 211 205 200 208 209 210 208 209 211 209 203 201 196 196
221 194 202 203 202 187 205 211 210 208 174 199 186 185 192 210 242 211 216 238 211 229 224 219 222 232 232 157 228 225 219 212 217 216 140 211 210 207 202 203 205 201 198
230 229 230 229 226 192 187 183 228 219 220 219 208 181 180 184 210 225 227 227 228 225 223 223 224 181 227 225 223 222 222 222 218 217 217 216 212 211 206 201 202 199 198
226 229 230 227 228 226 235 234 250 248 241 238 244 228 222 223 222 216 217 146 214 148 222 225 228 232 231 231 235 235 231 231 242 248 246 243 236 237 229 230 224 225 221
232 239 239 239 240 251 236 223 232 223 228 220 219 216 215 221 228 231 224 228 229 236 238 248 275 287 285 290 280 275 272 265 259 256 255 250 242 239 239 236 231 233 231
224 217 217 221 221 226 226 223 214 218 223 221 222 226 236 267 274 267 268 280 288 305 296 297 344 322 317 282 275 286 285 285 276 278 277 275 271 263 256 249 241 244 240
214 217 221 221 220 215 223 222 220 219 228 255 260 257 253 251 250 246 265 270 264 268 279 344 338 335 354 399 397 386 375 332 301 275 266 257 240 235 254 254 251 251 247
223 217 231 230 226 224 225 230 252 260 257 256 257 253 261 261 271 263 264 261 248 304 318 290 303 307 301 289 350 370 438 426 405 391 374 325 299 258 249 245 230 233 242
253 256 255 254 256 256 251 253 248 247 249 258 255 259 272 271 265 249 240 259 242 268 271 276 303 306 315 308 302 301 304 311 319 327 320 322 317 301 288 288 302 246 245
248 249 251 244 245 247 248 251 256 262 256 276 259 263 257 245 253 254 249 243 236 241 227 263 253 253 253 270 298 297 293 288 289 289 278 304 292 285 288 286 287 279 277
235 236 238 234 242 239 234 257 252 273 264 263 252 258 251 248 250 256 238 229 239 246 233 238 232 233 235 251 255 254 257 259 259 263 271 273 274 277 276 275 267 260 250
237 237 247 251 252 253 258 272 264 263 247 265 254 260 244 242 250 237 238 251 240 224 211 205 201 203 206 215 231 224 234 234 231 231 233 238 238 239 240 236 235 232 214
250 251 252 250 256 267 266 253 248 250 240 229 252 249 239 242 239 225 247 249 214 204 201 216 219 227 222 223 235 209 207 198 215 200 239 238 238 235 234 236 237 237 235
256 261 264 263 254 245 238 238 236 238 252 250 254 243 240 237 225 236 247 208 205 192 228 218 225 209 214 234 233 234 230 229 233 227 231 239 237 235 236 236 236 236 234
259 259 241 237 233 240 252 258 266 260 260 252 244 236 243 222 261 253 230 215 192 218 234 225 208 222 229 230 229 229 226 222 222 219 223 218 225 227 227 227 228 229 226
232 231 226 235 239 247 245 243 249 253 247 232 233 244 251 253 271 242 215 214 225 224 228 210 205 224 226 230 230 228 227 227 225 220 215 223 224 224 230 233 227 159 222
228 237 225 228 233 238 239 239 239 245 248 249 250 245 212 222 222 213 215 226 220 228 213 197 209 225 233 229 228 229 230 227 224 225 227 227 235 234 229 210 220 232 310
227 225 233 221 235 231 234 237 245 242 245 236 223 216 215 205 211 216 225 223 228 225 210 205 203 208 215 217 225 227 228 230 228 225 227 234 236 228 218 229 239 311 269
225 227 226 226 226 233 236 236 247 239 213 219 223 220 216 216 215 223 215 237 236 216 207 201 204 204 210 206 212 218 226 229 237 237 236 229 207 230 233 243 313 261 269

GFSMW_2pvu_pres_072.txt.gz
Presure
162 164 149 144 156 156 157 151 151 146 148 151 151 145 147 153 152 152 154 154 151 154 161 153 164 171 175 178 165 170 169 171 171 177 181 183 191 201 205 196 215 211 222
168 163 160 159 163 161 156 154 156 154 88 153 152 150 151 135 156 158 162 162 160 164 167 170 170 173 174 173 176 170 165 175 179 177 188 191 193 218 208 215 212 217 204
182 168 168 165 160 158 162 162 159 139 159 157 105 160 162 160 161 151 170 171 172 170 163 170 176 169 164 167 160 172 176 173 179 192 211 194 197 230 219 213 215 212 206
179 178 176 171 170 167 165 165 162 160 163 163 161 164 159 167 170 170 164 172 172 152 151 167 161 161 167 176 170 175 179 202 212 224 203 206 235 218 220 216 212 210 208
182 176 178 179 159 176 175 171 173 173 171 171 172 180 174 169 172 170 171 172 177 166 177 173 172 177 158 178 187 196 208 202 210 199 205 232 206 216 217 214 203 201 201
183 176 173 171 175 165 153 155 153 153 161 171 171 166 166 168 166 169 178 180 162 174 163 174 181 180 192 191 202 214 232 222 217 223 207 222 221 219 220 215 211 206 204
185 183 181 177 173 175 178 175 173 162 167 161 169 168 172 177 178 179 179 183 188 192 190 180 198 202 199 209 204 224 228 244 229 232 213 224 224 220 216 211 211 208 213
191 187 188 187 179 171 170 170 176 174 173 172 174 164 176 177 172 178 186 188 190 203 209 205 205 207 236 203 212 230 219 233 233 229 223 207 219 214 217 215 213 210 210
200 195 195 191 190 187 184 187 186 183 183 180 182 180 179 178 183 194 174 192 206 221 249 218 216 212 234 232 242 247 234 161 238 236 230 227 220 221 220 215 215 210 212
214 202 199 198 197 195 193 188 197 201 203 196 193 195 202 200 201 203 196 189 191 228 241 238 232 232 232 240 242 253 268 285 285 284 280 280 270 264 256 250 241 230 226
229 226 225 217 213 213 209 191 190 199 203 182 196 204 196 198 206 217 241 208 237 233 220 221 227 236 241 282 272 355 323 313 303 296 287 278 274 267 263 254 251 247 245
250 246 237 230 233 235 233 214 219 221 222 223 224 226 246 241 246 254 244 243 231 225 225 226 238 276 263 301 289 326 324 373 313 302 295 286 272 267 287 272 264 259 254
253 248 248 240 235 230 225 224 223 224 226 224 237 258 257 247 236 229 232 227 220 232 235 252 254 280 278 271 331 324 323 325 375 390 373 365 342 340 305 260 248 268 261
247 247 243 240 238 237 234 245 233 231 228 233 230 232 222 230 235 223 219 228 235 266 263 277 271 254 267 246 272 277 287 306 319 338 419 390 366 343 331 305 303 285 249
251 249 255 253 246 246 247 242 241 239 238 228 204 230 227 219 220 229 253 261 269 271 267 268 255 255 243 261 277 268 256 262 271 308 307 346 330 320 343 346 328 314 287
245 241 234 231 233 231 230 227 232 225 223 229 221 217 229 230 258 269 273 279 272 264 259 256 253 241 240 230 217 207 218 226 232 252 267 278 296 298 296 292 293 293 298
264 255 250 247 242 235 229 227 223 226 226 227 226 250 260 263 273 260 267 268 263 266 263 245 243 242 223 210 193 225 241 221 205 209 211 236 245 254 255 253 254 255 261
249 248 249 253 252 251 245 248 243 245 248 252 251 248 242 261 279 265 260 256 254 253 253 236 252 240 215 204 230 226 209 233 245 243 245 242 245 227 217 246 217 218 221
254 250 245 245 247 244 244 248 249 251 242 238 239 253 280 271 259 252 248 251 248 249 235 250 244 214 194 232 225 204 245 242 242 242 238 241 237 233 232 235 236 236 237
250 252 244 239 237 246 240 240 243 238 239 262 269 269 251 250 248 236 259 251 249 232 238 248 208 195 230 225 205 233 237 239 239 236 236 233 229 225 221 223 231 231 230
241 245 245 246 244 241 234 242 250 259 262 263 250 242 241 239 255 261 250 244 237 228 239 236 212 228 230 218 206 232 237 236 236 236 235 232 231 233 232 231 229 229 236
258 256 252 251 256 253 252 260 265 252 243 240 252 268 269 263 256 252 246 226 254 280 270 217 228 227 230 206 201 209 216 216 220 230 231 230 230 230 234 238 240 233 230
246 248 257 274 266 267 255 242 238 250 260 251 259 263 260 252 251 230 255 251 250 221 214 227 226 227 231 202 199 204 212 212 214 216 215 218 237 235 238 240 235 236 235
262 265 263 254 245 242 234 240 236 239 241 240 243 245 252 253 251 240 231 219 212 216 222 231 227 238 217 211 205 210 211 207 213 213 220 216 224 226 220 225 239 240 254
248 242 237 234 232 230 239 236 227 239 233 241 246 244 247 243 223 216 213 211 216 217 222 226 234 236 221 208 211 214 209 209 218 216 216 221 225 221 227 235 248 294 331
234 232 228 229 239 228 235 225 228 233 238 236 243 249 217 225 213 213 216 216 221 227 234 236 235 243 219 207 212 208 221 210 221 215 216 222 225 227 231 248 258 306 264

GFSMW_2pvu_pres_075.txt.gz
Presure
160 174 161 137 157 155 151 152 151 150 151 152 145 142 148 136 144 150 147 147 155 153 152 148 151 159 152 155 163 168 161 169 165 171 175 160 173 179 175 185 193 225 227
163 166 173 161 153 159 99 97 113 151 154 153 152 153 156 152 150 142 150 152 150 152 160 160 153 160 161 167 165 166 177 175 161 187 181 170 172 169 181 199 229 224 212
190 169 166 159 166 163 161 159 152 148 151 150 144 150 150 151 158 158 154 158 158 158 152 161 159 167 172 168 172 169 176 178 180 182 160 188 187 192 215 242 193 197 224
186 191 171 162 159 159 144 162 161 159 158 154 154 154 158 158 92 153 153 158 160 158 163 165 172 175 176 183 168 169 167 168 185 191 195 222 225 228 238 213 227 232 208
197 179 185 184 173 168 165 167 166 161 160 160 162 160 150 158 164 167 165 155 160 169 140 169 150 177 171 170 173 178 175 175 186 186 231 244 254 243 210 223 220 206 224
192 188 196 182 186 185 179 166 164 166 168 168 165 161 162 164 164 167 169 170 162 151 161 152 165 171 173 162 176 181 179 185 182 196 228 234 221 238 227 231 231 237 233
194 196 180 197 189 182 187 186 180 181 184 180 176 173 174 172 170 166 172 158 163 166 170 166 176 173 179 183 188 179 196 205 227 212 235 216 227 223 233 235 233 230 218
197 192 193 188 189 189 187 185 185 187 184 181 181 180 180 182 180 177 177 177 163 177 175 178 185 180 194 195 207 216 231 250 252 234 245 243 280 281 279 276 249 240 264
222 203 194 189 188 184 184 180 185 184 180 179 174 174 175 175 164 171 172 181 181 183 184 182 198 204 210 208 212 233 247 246 242 249 297 290 304 289 287 274 274 273 268
239 234 210 200 193 188 187 184 180 184 185 183 179 178 180 181 184 186 183 186 186 196 197 200 203 208 205 247 242 238 229 250 258 283 287 280 376 376 396 345 343 306 264
256 237 237 236 223 204 196 192 190 189 181 182 183 186 187 188 191 194 200 195 187 190 200 223 227 207 243 247 234 239 240 272 290 282 292 251 251 354 393 376 352 376 303
275 271 244 237 235 235 234 232 203 202 199 195 195 193 191 192 196 197 195 202 220 226 228 236 250 237 232 228 82 210 274 284 276 256 245 236 224 227 420 362 351 377 351
277 269 269 265 246 236 233 231 230 227 225 206 204 202 202 200 213 224 228 233 227 228 242 239 233 233 233 231 243 282 272 266 250 241 225 216 255 252 235 404 357 364 345
275 269 267 265 263 258 245 241 226 226 228 226 231 238 241 258 246 240 241 242 250 242 231 227 229 224 237 285 279 270 264 250 240 226 224 229 218 259 248 221 334 343 350
277 264 264 260 258 256 255 256 259 255 256 245 247 248 254 244 244 239 246 243 240 232 229 225 229 269 276 269 259 264 253 247 236 223 234 220 251 254 251 265 226 275 276
276 258 256 252 249 247 247 249 258 248 239 235 236 235 244 247 234 249 231 235 229 222 234 240 264 279 266 256 264 251 257 243 217 206 219 255 254 253 247 245 246 250 253
273 271 256 248 251 251 246 248 267 239 240 251 251 249 245 228 232 229 223 222 230 234 262 254 276 268 255 253 250 236 248 223 197 229 242 250 246 249 249 243 242 246 240
281 267 275 252 243 239 239 243 243 249 235 225 224 221 224 229 227 225 233 240 259 246 285 266 259 255 255 252 232 252 227 197 238 214 247 239 232 244 247 250 245 242 241
276 276 277 270 258 255 246 236 235 234 231 232 236 237 239 239 250 255 252 246 251 280 265 252 241 263 250 232 240 231 210 232 230 211 205 222 220 225 227 228 234 238 240
261 262 260 264 261 264 266 264 255 252 251 253 252 251 248 251 246 246 245 275 264 251 245 249 269 244 230 244 263 220 228 237 216 211 206 212 217 218 218 227 221 230 227
249 251 251 254 250 255 256 252 251 251 246 245 239 243 240 240 245 269 262 244 240 245 265 266 233 261 278 269 220 225 229 236 215 204 204 215 217 215 224 224 225 228 229
257 265 268 256 248 248 249 249 245 242 241 244 244 238 252 269 260 241 248 274 270 264 261 246 256 251 223 213 210 230 236 238 222 207 211 224 223 217 222 227 225 232 231
266 261 262 260 240 235 236 236 238 238 239 250 255 269 252 240 262 265 270 266 260 233 254 244 220 217 215 225 227 231 241 231 221 210 215 216 227 224 238 226 231 241 229
248 250 250 250 251 255 256 254 252 250 263 264 248 240 240 245 249 251 248 251 250 238 216 220 213 221 224 229 240 242 248 238 216 212 211 215 218 236 220 222 243 227 238
243 246 245 245 245 254 259 265 260 250 243 234 244 235 243 241 241 251 241 236 221 218 217 218 219 228 237 236 238 241 256 223 215 216 224 216 218 218 239 239 231 235 237
268 269 268 270 266 257 248 241 238 232 242 244 232 231 235 239 235 242 221 229 212 211 213 216 228 226 236 238 242 248 231 198 219 226 204 217 238 232 234 231 239 235 244

GFSMW_2pvu_pres_078.txt.gz
Presure
160 171 151 168 159 158 149 150 150 151 150 148 145 142 144 142 144 148 143 144 143 144 144 152 150 146 151 147 162 150 147 156 161 156 168 161 168 183 177 172 177 183 191
180 180 171 168 158 157 160 160 151 146 153 149 148 125 148 145 137 84 147 141 149 151 151 153 147 151 150 143 152 153 157 159 165 171 178 154 172 179 178 175 185 182 204
161 188 180 170 163 163 163 162 159 151 161 155 146 150 150 151 151 152 152 150 152 150 143 143 153 145 147 160 154 164 158 163 170 162 171 168 170 173 180 184 188 210 238
176 162 185 179 169 169 167 163 161 159 160 159 158 157 155 155 138 140 144 150 148 147 144 155 156 156 160 150 156 142 169 168 159 172 172 178 184 189 199 213 237 254 247
175 190 182 162 164 179 176 164 164 163 163 167 166 157 146 150 151 153 151 153 164 159 159 137 161 157 146 163 165 164 179 169 169 167 183 187 184 209 252 239 244 238 235
193 192 172 189 177 191 185 172 168 159 156 157 162 164 161 159 160 161 160 158 159 158 158 158 156 162 157 155 170 158 172 178 172 182 188 192 206 249 249 244 238 274 308
214 154 192 198 179 192 190 185 174 167 165 166 168 163 153 161 169 165 165 161 164 165 163 169 168 168 173 177 176 175 165 181 184 189 205 217 262 251 238 246 293 294 276
234 205 209 201 199 191 198 195 189 191 188 185 173 169 167 165 163 159 167 167 165 167 171 183 183 181 172 177 180 185 190 192 183 211 221 259 249 244 249 294 276 264 248
182 180 153 154 195 193 201 205 192 192 194 188 186 188 188 190 187 185 185 185 182 182 181 180 176 181 180 181 188 188 185 203 196 261 258 249 242 246 277 282 266 252 265
227 193 186 222 200 204 205 199 194 203 202 190 185 190 193 190 187 182 182 180 180 185 189 185 183 182 185 185 188 194 203 148 251 250 190 240 254 261 268 254 252 250 224
322 308 229 194 207 205 205 208 208 200 194 189 186 189 189 187 181 184 182 177 183 176 177 177 183 187 191 192 199 231 258 252 246 242 239 261 275 267 257 251 247 243 273
320 306 314 312 232 233 234 208 205 207 203 200 198 194 189 189 185 187 179 184 190 184 190 190 195 200 201 207 247 253 250 236 238 238 257 278 270 262 258 246 235 229 268
324 296 285 286 286 293 296 276 239 239 232 245 236 213 196 201 201 197 193 195 183 194 224 233 219 214 253 253 250 244 242 237 238 246 281 269 260 257 247 228 229 262 268
276 296 291 285 284 284 283 285 276 266 253 250 245 244 240 233 232 232 234 227 231 228 221 231 255 252 250 245 240 236 233 236 270 280 264 267 247 249 228 240 258 255 257
251 335 294 224 280 279 281 282 281 275 269 259 250 242 236 235 236 236 237 237 239 258 254 242 252 242 230 236 228 234 236 276 269 264 258 249 255 237 240 224 232 224 226
304 249 278 301 280 269 269 271 273 285 287 287 273 258 263 275 260 261 256 260 247 253 239 242 233 230 234 231 233 238 262 278 257 265 256 239 241 216 240 214 212 206 230
301 282 285 292 295 265 272 264 257 257 255 274 268 249 259 256 241 259 241 252 240 236 235 230 223 227 235 235 262 257 270 250 265 253 233 247 218 228 233 218 210 206 227
281 282 287 272 274 281 277 267 256 260 253 248 260 245 268 242 237 245 245 236 228 226 221 225 229 235 245 254 284 259 242 267 253 233 246 231 224 240 230 217 210 216 228
283 299 282 284 266 260 257 256 262 255 249 248 260 237 247 232 226 242 234 226 220 230 225 240 257 251 254 273 247 245 268 244 267 280 230 226 225 239 230 220 212 217 222
282 280 284 290 285 279 257 249 247 246 244 244 234 245 230 229 230 223 234 227 231 251 253 245 244 279 252 247 263 271 242 267 237 225 218 235 237 249 230 217 213 218 221
269 273 275 275 281 283 286 271 266 257 246 240 241 238 241 241 235 236 243 258 246 252 245 277 256 245 258 275 263 249 254 225 221 219 232 234 239 239 233 219 221 220 224
258 257 256 258 257 259 262 260 261 263 267 269 262 256 252 250 258 252 241 245 247 269 260 251 273 272 266 245 253 237 220 217 222 232 241 233 235 246 228 218 225 234 243
249 251 249 250 247 242 244 247 245 245 250 246 244 248 247 243 241 240 247 266 260 249 252 250 252 253 249 240 224 219 220 228 234 231 235 257 249 236 200 222 209 257 248
258 257 252 254 262 258 258 262 256 249 246 243 247 248 237 243 255 270 258 240 248 250 251 248 241 238 226 220 221 218 222 227 233 237 242 243 236 202 233 235 252 236 244
266 263 262 261 262 262 260 258 258 258 258 256 252 252 257 265 256 236 235 245 239 236 244 241 227 225 218 214 220 227 234 238 238 256 244 232 236 254 249 242 246 243 252
256 250 248 245 246 249 248 246 247 247 245 249 261 259 249 234 232 240 234 230 233 233 230 209 224 216 210 217 237 231 252 255 246 238 234 248 245 228 236 235 261 265 249

GFSMW_2pvu_pres_081.txt.gz
Presure
80 183 171 172 172 160 154 156 158 151 149 151 153 155 150 151 148 144 142 141 147 143 141 145 147 146 150 149 149 150 144 147 154 156 158 159 146 155 164 156 172 180 182
185 152 170 173 167 165 157 159 153 151 163 155 152 149 157 159 151 153 155 151 148 136 147 151 151 151 149 149 153 159 143 156 159 159 159 155 158 162 158 171 180 178 168
185 191 175 176 167 157 164 162 161 156 152 155 153 150 151 142 144 143 108 148 151 152 151 149 155 159 156 155 148 152 157 159 158 156 156 157 161 149 165 179 176 180 191
189 181 155 184 172 160 167 164 164 154 158 156 154 156 152 152 155 152 152 148 149 152 156 152 150 149 156 158 161 159 158 157 160 159 157 163 168 179 176 177 182 190 187
193 167 162 188 146 144 161 164 155 162 161 162 165 163 157 155 155 159 161 158 154 152 158 158 160 157 157 158 159 156 158 159 149 167 160 169 182 181 181 184 188 189 208
179 94 94 178 188 189 149 176 168 151 165 169 168 162 160 159 158 158 157 157 158 151 149 155 153 152 153 158 160 152 150 165 156 167 178 181 180 195 187 192 190 204 251
203 173 173 192 181 156 181 191 187 163 161 173 174 167 164 163 161 159 157 154 153 154 158 157 159 161 160 155 150 160 161 167 179 181 178 187 189 182 195 199 222 237 247
201 141 179 182 183 187 188 185 178 169 167 188 186 176 174 173 172 170 168 161 155 153 160 160 158 160 160 159 164 172 179 172 179 178 186 182 189 198 208 259 139 248 270
215 204 180 157 172 179 183 192 184 178 183 197 192 183 185 185 188 183 177 173 168 162 164 167 174 180 184 178 175 177 187 186 183 186 188 197 198 262 251 238 244 263 283
214 207 204 192 184 172 168 161 157 179 189 189 186 183 183 173 177 191 187 185 183 182 181 181 180 178 178 185 187 184 181 181 183 192 194 203 253 246 244 240 260 269 274
328 219 209 210 205 191 187 190 194 205 203 206 197 195 198 197 191 186 187 190 188 184 180 180 183 182 182 182 179 183 187 193 197 215 229 252 243 230 236 238 278 267 263
388 298 295 216 212 208 198 154 191 195 200 218 196 200 203 189 187 198 196 188 182 182 184 183 185 189 191 190 188 196 193 233 233 244 253 243 241 233 240 282 269 263 254
270 315 304 279 272 275 227 209 202 199 182 182 182 185 177 206 199 194 192 194 197 200 196 191 191 193 189 207 234 231 152 238 251 252 240 236 236 239 278 271 261 262 249
356 276 274 270 347 313 284 273 270 237 240 233 199 198 188 182 186 238 220 234 204 200 207 217 242 246 233 233 242 178 259 248 243 237 230 235 237 272 268 261 261 253 249
356 339 306 285 270 265 306 315 277 269 270 297 298 298 300 287 260 272 270 260 252 249 249 244 238 236 263 257 240 249 245 236 233 228 231 238 269 264 257 262 254 236 246
328 332 301 289 316 273 314 300 298 296 293 291 288 291 287 281 286 285 277 278 267 261 266 268 262 261 253 249 242 241 236 225 230 233 243 266 264 244 263 252 242 258 220
317 304 320 278 291 305 300 307 283 276 272 276 279 284 276 272 274 273 280 276 245 249 263 252 244 255 245 239 233 233 222 226 231 246 266 256 249 263 252 283 260 219 236
304 298 303 302 274 303 272 255 292 271 270 284 289 284 265 259 257 265 255 248 262 260 247 249 239 246 241 231 219 234 224 233 255 266 247 261 263 252 265 227 226 232 241
298 317 299 293 275 299 288 272 262 310 274 260 255 274 263 257 246 260 250 256 255 258 239 243 228 239 224 226 224 228 251 249 273 244 282 263 251 254 228 222 224 242 238
279 283 294 296 274 290 270 280 283 283 294 270 259 258 260 268 254 263 260 246 236 250 234 221 230 232 225 224 241 241 256 257 279 276 257 251 245 225 215 221 234 237 257
276 283 267 278 294 281 281 270 259 263 261 270 261 261 264 257 247 245 230 242 246 225 229 223 226 226 239 244 251 265 258 273 264 253 249 235 212 215 222 232 238 256 249
273 268 271 277 284 282 292 286 275 265 261 257 249 252 250 244 244 237 234 229 226 227 236 249 250 239 246 265 246 251 253 260 252 241 214 218 220 227 236 239 254 244 241
268 263 261 261 262 264 268 275 276 287 292 284 268 259 249 249 258 262 260 253 256 253 245 241 244 268 248 250 253 251 249 242 220 221 216 218 219 228 238 248 240 243 231
252 255 254 254 253 253 250 250 250 249 249 249 249 251 249 248 249 248 242 244 242 238 245 265 250 239 239 236 246 247 230 223 215 211 223 220 242 252 243 241 242 218 229
261 255 250 252 253 248 249 247 243 241 240 243 245 246 244 241 244 238 234 239 244 261 256 237 232 239 237 238 237 229 224 217 206 210 224 222 222 245 241 230 218 234 236
264 259 261 262 263 253 271 268 263 262 262 263 261 259 254 251 249 246 245 259 258 236 232 236 230 223 234 234 226 213 218 211 221 228 216 208 224 234 224 241 232 232 226

GFSMW_2pvu_pres_084.txt.gz
Presure
175 177 169 191 182 180 171 163 157 153 150 155 155 151 150 146 145 152 153 144 142 144 146 151 155 155 152 153 144 158 157 149 155 144 146 153 163 157 161 146 162 158 160
188 179 174 185 167 181 187 171 154 150 155 151 164 149 157 159 159 155 157 151 155 158 161 160 156 144 145 152 147 147 157 153 152 155 157 157 159 151 156 157 165 155 169
209 194 178 200 177 178 190 182 172 160 158 159 158 161 157 156 154 153 149 158 159 151 145 145 149 146 154 154 161 148 155 155 161 160 154 150 158 156 156 165 161 173 180
104 212 184 171 162 171 172 188 179 171 161 156 155 156 154 155 152 160 162 152 151 158 163 156 159 156 153 153 157 160 153 146 160 153 161 158 157 148 152 157 172 180 169
195 239 196 183 154 189 171 159 185 177 168 168 160 165 139 161 152 145 151 154 156 158 160 161 159 152 159 162 154 160 146 157 157 160 153 153 158 169 174 178 170 188 184
220 212 182 197 187 178 193 178 171 184 182 171 171 164 152 147 152 162 161 163 158 159 160 161 165 157 157 160 159 158 160 161 161 159 153 163 172 178 180 179 181 188 182
220 165 228 197 197 106 166 182 173 186 159 179 146 171 166 163 160 149 150 149 159 168 168 158 160 153 156 160 165 163 164 168 164 170 172 179 180 179 176 190 195 197 195
239 231 225 236 198 196 187 180 133 89 184 176 178 173 167 165 164 162 165 168 158 158 157 159 173 174 148 162 170 167 170 174 174 176 177 181 176 182 189 192 197 196 236
279 237 233 227 103 204 192 182 213 181 177 181 186 185 185 181 175 174 171 165 167 164 163 169 173 164 170 169 163 163 177 178 181 184 176 178 183 186 191 172 202 230 253
280 274 234 226 225 225 212 184 173 187 197 184 176 170 168 176 161 186 177 175 175 162 173 179 171 166 176 164 176 175 175 174 171 178 183 188 197 191 193 241 245 252 247
288 289 273 231 226 222 226 165 188 180 174 210 186 188 189 170 174 180 182 181 181 178 180 186 183 179 176 180 189 181 182 188 190 185 193 190 190 223 253 238 248 244 242
304 294 291 281 233 223 218 215 193 188 174 173 176 177 180 183 184 163 151 151 143 184 146 188 188 188 191 183 191 197 192 186 196 199 231 231 210 258 238 194 244 235 240
293 329 287 268 289 270 239 221 214 206 195 192 163 162 164 168 164 188 186 193 186 184 185 189 153 173 199 196 195 184 189 234 230 245 239 147 247 249 243 244 236 234 239
324 276 281 355 284 285 286 267 237 220 185 208 190 196 179 175 178 182 177 182 187 191 196 175 164 175 211 169 177 203 203 256 248 264 253 241 244 240 245 236 230 234 274
311 330 326 276 270 350 361 339 331 307 294 266 215 207 204 201 194 192 184 185 184 181 181 185 183 175 192 260 272 267 259 266 253 247 242 240 237 242 230 229 235 267 262
329 308 390 316 353 330 268 272 285 338 324 308 287 279 238 216 211 207 205 203 228 194 258 194 191 282 266 265 249 263 249 259 250 243 245 237 231 231 227 241 256 257 278
313 297 340 336 312 335 335 311 325 271 274 281 284 304 319 315 299 287 272 258 257 286 284 273 248 256 257 268 263 249 244 245 244 240 240 231 226 230 243 258 256 274 260
297 295 322 325 324 330 342 331 303 323 311 300 270 270 276 301 296 296 282 296 281 265 270 262 270 262 257 240 245 248 245 247 231 227 234 227 230 251 262 258 264 258 251
294 284 316 314 294 325 289 296 334 281 275 302 274 287 271 291 298 278 290 282 274 269 267 252 255 243 248 250 247 247 242 226 225 228 223 237 253 263 267 266 256 245 218
288 292 289 289 317 300 304 271 294 294 294 278 294 284 289 274 271 263 248 269 246 259 253 236 245 262 259 239 250 231 227 222 227 230 247 246 260 253 258 256 235 217 218
285 274 285 288 286 313 289 293 285 297 289 270 259 264 305 255 284 270 253 261 248 251 262 263 251 236 237 237 227 223 226 226 248 240 258 248 253 250 246 217 222 216 230
276 283 272 280 272 275 297 282 279 286 277 270 275 285 288 285 285 277 280 271 262 252 250 243 244 228 235 227 226 228 244 246 247 254 246 247 250 240 219 212 212 232 230
262 268 273 272 273 282 287 285 297 282 288 279 274 264 267 266 263 250 249 246 249 238 245 240 226 235 250 249 247 242 240 261 245 236 231 242 251 219 239 211 231 228 215
247 258 259 277 274 268 271 259 266 272 288 281 275 261 261 254 249 246 240 243 239 240 238 249 250 241 237 244 238 252 247 242 235 237 239 234 215 218 213 220 228 243 236
245 264 247 255 254 253 261 261 255 256 257 259 264 266 268 271 267 260 258 256 251 249 245 238 239 235 237 245 259 241 235 236 227 235 238 225 215 212 215 217 220 234 227
266 250 250 257 258 255 247 251 248 241 241 246 245 241 242 240 239 237 238 244 245 241 247 244 242 243 256 245 237 236 233 228 239 240 236 243 237 202 226 223 230 229 231

GFSMW_2pvu_pres_087.txt.gz
Presure
108 178 185 197 185 172 168 161 162 158 162 159 164 158 160 160 159 159 153 156 159 151 165 157 151 152 152 158 155 154 145 157 147 157 149 148 159 147 153 149 163 169 154
161 165 166 130 202 185 175 166 167 166 163 157 159 169 157 158 161 156 158 157 152 150 155 156 153 153 150 158 164 166 148 155 164 155 145 155 158 147 160 158 163 157 169
204 159 192 180 186 173 196 178 170 177 170 123 166 165 163 153 165 148 149 157 162 163 151 154 154 156 144 157 149 154 159 157 158 157 167 150 162 152 163 160 170 177 178
222 209 161 202 169 180 178 182 180 185 179 177 169 173 178 174 160 165 159 150 157 152 156 157 152 161 158 156 159 157 157 152 163 158 154 156 164 165 162 164 169 177 174
181 179 167 212 206 193 172 170 186 170 197 183 179 185 185 180 175 166 147 161 153 156 153 165 172 154 168 161 159 156 155 160 159 157 155 165 154 177 162 174 153 179 168
188 138 180 162 216 205 194 181 178 177 181 173 172 184 189 152 177 176 170 166 161 152 151 153 148 164 157 155 144 154 159 157 155 165 155 168 175 180 170 170 173 177 180
198 194 188 185 219 205 214 199 191 185 179 160 179 176 171 175 184 176 175 136 171 160 169 166 161 165 146 152 157 170 158 157 162 160 170 170 171 171 185 178 180 188 178
207 203 200 192 155 145 229 171 152 197 190 187 176 151 182 183 167 171 156 179 179 171 160 149 154 159 168 169 168 169 167 168 169 169 172 170 185 180 171 187 189 187 199
253 220 212 208 202 190 173 194 181 174 201 200 189 183 177 184 188 175 170 184 182 152 176 174 169 169 170 167 165 175 175 157 165 177 171 178 174 174 187 191 198 197 194
286 263 245 222 162 213 203 178 201 185 231 219 200 188 185 180 154 164 178 173 175 184 184 175 177 180 154 180 171 177 176 175 172 159 177 171 185 190 183 199 187 182 242
287 293 253 245 246 249 232 222 192 204 195 219 217 193 188 204 188 185 185 177 179 162 169 167 173 169 183 179 172 143 179 180 179 173 180 191 184 194 188 179 178 204 232
289 334 285 290 292 259 236 238 230 204 204 204 235 211 196 186 213 180 178 180 193 189 178 180 176 176 188 185 170 160 183 146 181 188 156 183 169 171 172 187 251 253 250
270 278 262 325 284 295 285 257 247 259 276 226 220 228 208 193 191 187 230 164 179 193 192 176 173 167 181 178 179 172 179 188 187 157 177 175 182 186 192 244 250 249 242
290 303 301 279 286 307 302 280 274 276 280 284 256 209 194 198 193 196 198 196 185 178 199 240 188 165 163 170 189 176 177 180 178 181 176 191 223 191 236 248 238 237 238
280 304 299 311 281 296 325 355 287 291 298 289 286 281 233 207 198 205 219 189 177 188 184 174 182 186 173 173 177 181 180 181 184 189 200 237 247 253 250 239 241 241 239
295 300 298 298 309 324 292 286 274 296 299 276 280 289 300 299 275 211 208 200 192 190 171 188 184 183 174 190 201 191 192 196 243 259 245 264 253 237 247 239 252 233 234
296 291 288 309 323 300 312 316 297 307 272 285 288 287 289 291 288 283 285 258 252 246 217 214 224 202 217 220 272 282 275 255 239 253 256 250 241 245 250 235 231 233 242
291 294 281 301 288 353 304 373 307 328 317 311 303 264 261 341 355 303 319 308 315 305 283 272 299 278 292 287 259 253 241 254 261 252 241 247 242 252 240 226 232 239 250
287 299 300 302 280 323 319 339 340 299 311 338 335 309 327 299 259 233 262 300 299 306 259 252 287 274 255 264 249 242 261 255 252 242 252 253 250 232 235 225 237 253 260
275 293 286 288 269 294 312 300 318 328 288 340 330 337 298 289 336 287 326 275 298 278 246 245 268 276 272 266 259 251 248 240 261 253 249 238 225 233 229 249 254 247 240
265 276 282 280 278 294 280 320 304 314 306 266 313 303 323 316 286 215 196 268 250 254 241 247 263 253 259 244 247 237 264 246 238 234 222 230 230 240 251 261 244 235 241
286 272 282 290 276 285 284 288 308 297 293 287 286 286 292 281 292 269 284 271 267 251 262 269 265 251 250 249 247 253 247 241 231 230 231 247 243 241 256 243 237 237 240
264 273 271 270 263 278 273 275 272 299 289 276 294 269 285 279 273 275 294 279 281 286 276 272 277 276 257 253 238 239 238 230 234 252 239 249 239 250 239 237 227 239 237
250 265 256 270 263 271 274 272 274 275 275 281 286 275 275 272 273 278 272 262 262 268 261 251 250 260 239 240 237 232 237 252 247 243 233 254 244 235 233 226 232 242 233
252 244 251 262 254 257 258 277 262 266 273 273 269 273 282 288 270 275 263 259 254 251 243 244 238 246 249 252 252 248 240 241 243 249 254 239 235 232 229 244 241 238 225
286 264 258 244 243 260 246 244 246 261 259 262 262 260 262 266 271 272 273 272 267 265 263 260 259 248 240 243 239 245 244 243 254 242 233 234 231 238 243 238 235 218 230

GFSMW_2pvu_pres_090.txt.gz
Presure
216 167 195 188 179 188 183 168 167 163 164 167 165 165 162 161 159 156 150 161 152 162 153 151 154 156 150 147 145 152 144 144 152 147 153 146 147 159 148 160 149 148 164
78 198 183 202 189 176 182 179 169 164 163 162 164 165 169 168 162 161 161 156 157 160 158 152 156 155 153 153 154 161 155 153 156 158 157 161 173 150 162 157 159 162 159
133 87 133 207 197 192 168 188 188 175 161 166 167 164 166 166 168 165 161 160 161 165 168 156 159 156 152 153 156 150 155 156 145 173 152 161 151 158 157 166 169 173 163
169 176 208 231 114 197 181 182 194 186 168 166 163 169 175 163 164 169 170 166 169 162 154 158 155 141 151 149 158 154 149 153 163 153 167 148 149 153 154 167 167 168 165
245 169 172 224 221 205 154 173 175 201 183 165 156 169 172 171 164 166 168 170 157 166 165 168 156 169 163 143 169 164 147 158 167 161 148 145 162 169 169 169 166 168 176
186 179 175 170 179 216 204 187 174 168 202 168 166 185 177 165 173 173 171 171 175 170 173 185 181 179 176 168 158 151 170 164 164 152 166 166 170 170 169 155 166 174 177
205 189 177 178 173 167 207 205 189 184 159 174 172 202 184 184 168 178 164 176 176 187 176 181 188 188 176 132 167 171 170 153 160 167 169 171 148 162 179 154 180 162 182
209 198 228 182 182 184 167 210 207 171 191 187 181 180 185 199 184 165 187 189 169 175 168 165 138 153 165 155 139 176 142 170 157 152 171 167 174 175 173 186 176 159 180
219 212 198 186 186 182 182 180 176 191 169 162 176 187 182 187 185 130 172 132 168 166 169 158 172 180 179 141 161 160 172 167 173 177 177 179 150 145 153 183 158 181 171
254 221 212 204 194 191 187 185 180 177 182 197 201 200 191 181 180 192 188 183 181 181 182 174 169 172 169 185 180 176 175 166 151 157 163 175 181 165 183 165 180 170 190
272 263 210 217 209 201 197 195 194 192 184 181 171 161 207 205 203 199 199 199 192 186 176 184 173 176 184 182 183 171 163 174 171 169 171 179 168 147 173 170 173 185 175
318 295 273 260 235 215 208 203 203 200 199 193 191 194 178 174 214 211 209 200 202 197 190 191 168 177 182 181 184 180 178 175 185 175 183 189 159 185 172 168 175 180 180
309 311 299 308 266 261 157 224 217 214 208 204 202 202 192 189 186 175 171 196 205 206 207 204 176 189 176 175 196 169 175 180 166 181 170 161 179 171 173 179 182 183 194
270 296 305 291 299 290 290 305 272 255 241 226 220 212 206 202 189 193 190 182 164 190 203 217 214 200 178 180 191 188 184 174 168 184 182 172 182 185 178 182 192 196 202
254 267 281 295 304 284 304 290 336 288 322 295 264 255 238 250 210 207 211 203 182 192 193 194 225 212 198 170 156 196 195 177 190 190 177 172 182 185 193 188 195 251 242
266 266 258 284 284 303 311 276 294 326 287 319 286 316 255 254 242 240 152 234 213 196 220 212 207 214 215 215 186 194 210 202 198 204 185 193 195 197 204 265 254 245 249
275 273 267 278 276 275 291 303 314 321 293 294 315 308 345 303 293 291 284 282 282 285 258 230 216 209 208 206 194 196 203 198 190 195 200 238 271 263 261 244 259 251 244
270 270 267 285 289 289 265 293 313 303 309 322 320 283 296 399 323 279 290 265 269 271 273 277 275 260 260 211 254 261 271 263 286 284 285 264 259 252 244 253 246 235 249
271 277 290 296 300 277 283 301 307 342 295 293 300 330 305 288 287 331 335 314 268 274 276 285 278 282 318 322 312 305 293 281 286 131 262 251 238 264 246 242 255 246 235
284 277 281 290 295 293 294 293 276 328 315 343 341 232 324 311 307 300 285 327 298 155 255 241 252 265 250 135 267 284 262 261 252 265 267 260 252 245 237 248 230 234 232
275 281 278 278 275 286 280 269 267 299 287 313 326 332 277 299 307 297 338 304 329 295 263 300 284 290 282 246 250 279 270 261 261 238 250 246 239 241 250 235 235 230 249
272 275 271 275 267 285 276 275 275 284 274 291 312 288 305 299 304 278 325 304 322 320 316 281 303 289 259 253 241 258 246 243 250 235 235 259 252 238 237 238 230 249 243
271 275 289 280 267 266 278 285 273 274 266 293 301 288 285 284 283 262 288 301 316 291 304 299 281 251 245 243 252 248 261 238 236 272 252 243 236 239 230 248 247 240 258
268 272 278 272 269 266 249 271 261 277 270 271 281 284 273 273 289 275 286 274 278 291 279 275 286 288 287 279 262 274 266 255 251 243 237 238 234 251 242 238 248 257 240
269 263 248 261 249 263 247 259 266 275 265 265 272 264 276 279 280 280 272 278 263 260 274 272 259 272 267 260 258 252 248 244 236 238 244 250 240 240 247 250 252 234 231
271 274 290 275 251 250 254 249 257 255 261 266 252 263 269 271 269 271 277 278 274 267 258 248 250 250 259 253 240 235 248 253 252 244 235 235 243 246 255 239 235 230 273

GFSMW_2pvu_pres_093.txt.gz
Presure
202 194 196 195 201 172 177 177 173 183 176 176 174 166 167 152 151 156 164 151 146 143 160 159 147 169 156 154 155 156 153 154 157 158 156 151 158 149 153 163 160 153 158
198 197 203 206 199 191 175 184 173 182 188 157 178 166 153 153 145 163 157 153 154 162 167 162 160 161 159 161 156 160 156 149 157 157 153 157 163 156 166 153 167 169 150
169 180 188 210 194 207 143 185 189 162 220 182 168 173 169 168 163 161 161 165 171 169 163 168 168 160 163 163 158 154 154 152 153 143 159 167 153 159 146 170 171 161 166
171 188 174 201 218 139 216 190 175 181 182 168 200 178 179 172 168 161 163 166 162 166 166 172 177 169 155 168 151 141 141 171 168 171 178 146 169 170 173 170 167 166 181
181 191 174 178 208 94 90 213 196 194 185 180 167 172 178 178 181 168 169 169 160 157 186 168 177 181 175 160 154 180 170 171 179 161 177 182 180 172 174 162 178 161 163
179 181 214 182 170 231 222 183 111 156 179 193 183 177 162 164 181 183 173 175 174 168 165 170 171 176 185 154 173 142 165 162 186 162 174 158 159 152 163 165 164 170 173
199 177 177 211 184 172 230 173 183 212 175 175 194 182 179 168 177 189 182 185 187 143 168 175 146 179 191 182 166 163 182 191 185 163 177 177 178 152 174 171 159 178 163
216 192 192 180 184 189 179 172 164 171 209 225 188 192 181 173 168 186 187 170 188 184 172 176 177 189 186 188 188 174 169 162 162 171 169 194 170 163 186 181 180 163 169
207 206 193 187 185 186 192 181 175 165 169 164 223 201 194 188 174 164 158 153 150 188 160 171 168 158 187 187 143 166 132 161 177 169 177 163 162 173 167 185 170 171 161
219 208 202 200 198 198 194 193 181 179 172 170 160 182 202 196 192 180 177 180 178 181 188 184 180 178 171 176 166 172 170 171 168 167 180 179 182 181 180 172 178 172 179
253 238 223 214 210 203 202 201 197 199 183 176 176 170 161 152 202 199 192 181 169 172 179 153 179 183 188 177 186 176 179 177 178 184 162 162 187 172 155 173 177 172 188
288 279 261 247 231 219 212 213 208 201 195 232 188 182 180 177 172 195 193 193 166 180 185 173 190 190 189 189 188 183 130 187 170 142 184 189 154 184 192 182 186 192 191
280 287 286 288 278 250 225 221 221 214 204 196 190 205 184 183 180 176 174 172 170 171 171 181 198 179 163 199 199 200 201 194 171 199 181 152 196 206 191 197 191 198 182
272 278 274 278 282 270 281 252 223 222 218 214 209 203 197 193 191 190 187 185 169 181 178 168 181 197 200 181 160 161 169 161 191 198 188 197 197 214 216 212 205 199 200
242 268 275 287 269 298 302 276 280 264 231 226 222 216 212 207 201 201 200 197 192 190 186 189 187 183 182 184 186 187 184 177 178 177 186 193 196 201 222 219 218 210 194
272 261 259 269 280 274 279 299 311 291 279 277 267 246 233 226 220 215 210 212 207 206 206 202 200 196 193 192 178 191 194 200 202 192 199 202 204 210 216 173 200 195 202
259 266 265 257 264 266 271 280 287 298 306 311 293 304 295 294 283 273 241 234 228 220 218 213 214 213 214 207 208 206 190 207 211 210 227 232 260 229 205 204 204 207 268
269 274 278 270 269 267 285 264 267 290 304 303 300 315 326 323 307 284 364 280 288 311 286 282 264 254 246 277 242 237 215 213 232 268 259 251 222 315 235 277 274 268 256
273 263 276 282 283 258 282 292 292 268 259 261 283 299 303 308 320 315 300 302 310 343 317 291 231 304 306 304 268 274 265 257 258 264 259 255 295 279 274 263 266 250 246
262 278 270 285 275 280 288 298 310 278 276 281 328 335 317 298 299 333 304 337 234 297 282 280 143 283 323 265 316 310 287 290 255 264 276 270 256 259 242 240 271 258 248
267 262 272 271 260 272 292 277 276 264 282 267 294 326 298 305 338 346 307 311 317 275 270 157 170 207 271 279 307 314 321 290 250 250 238 252 238 239 260 240 237 248 231
287 266 263 260 281 276 284 279 273 276 277 282 293 288 322 203 326 319 340 339 320 343 324 295 297 305 334 301 303 302 295 294 269 278 270 245 261 256 239 250 234 248 252
274 271 262 280 278 274 276 279 274 268 275 266 274 274 294 279 296 303 306 301 288 306 307 314 280 298 279 294 301 281 274 280 277 263 265 264 249 246 239 242 257 240 236
281 274 291 279 279 283 287 290 274 264 280 287 267 281 265 281 292 286 283 281 284 285 299 296 307 314 293 294 281 292 292 276 260 259 253 242 247 254 255 250 237 235 234
265 266 263 264 266 265 274 274 274 269 258 248 272 265 274 269 276 288 268 269 279 270 274 274 276 308 300 286 279 277 280 268 263 279 257 260 258 251 238 234 241 248 238
258 260 263 272 273 253 251 263 254 263 258 265 265 271 258 261 267 267 275 279 283 277 273 262 261 262 258 276 269 262 280 269 260 252 251 250 242 231 249 243 236 239 247

GFSMW_2pvu_pres_096.txt.gz
Presure
180 181 118 187 187 192 189 187 172 169 188 179 173 170 168 170 152 168 143 139 139 144 154 160 162 162 147 158 147 144 160 160 163 159 158 155 151 151 150 180 170 166 165
184 174 184 184 183 191 119 197 189 117 139 181 195 181 173 156 158 168 167 171 171 164 154 151 158 150 161 160 155 162 167 167 164 151 166 155 144 152 165 176 189 178 184
138 153 155 187 188 183 195 185 198 193 178 173 169 173 188 175 163 168 177 162 160 162 167 157 169 157 163 167 152 172 178 166 165 175 161 160 156 176 191 170 167 182 184
196 187 173 174 185 186 187 198 194 185 197 185 171 142 176 175 182 165 138 172 166 168 172 170 172 171 176 172 171 167 175 172 168 186 151 169 161 175 164 152 180 163 177
190 223 176 180 181 164 189 189 187 191 191 192 209 176 160 172 172 164 173 179 163 159 164 171 158 169 169 163 192 191 182 175 186 158 121 175 160 143 188 161 154 173 163
187 212 224 189 161 175 181 187 193 199 194 204 190 184 194 161 170 174 179 154 149 183 179 180 175 179 181 181 182 180 176 172 171 181 142 168 168 181 180 162 173 177 144
212 210 186 211 190 164 165 167 188 194 193 194 204 180 195 211 142 172 179 178 177 172 169 174 175 175 179 175 194 175 178 146 200 123 188 159 183 193 181 157 175 178 172
192 224 210 160 181 192 186 168 169 183 169 192 198 208 168 183 213 191 158 170 186 180 180 184 196 199 179 176 166 164 194 165 171 152 191 185 166 141 180 188 153 191 156
244 188 188 170 223 211 176 178 170 168 181 171 172 199 209 178 165 197 159 159 171 173 178 177 176 175 180 148 152 160 155 171 174 137 152 173 196 169 191 172 187 178 174
239 234 205 186 202 252 205 189 181 179 181 211 174 165 201 217 173 182 176 207 201 170 181 187 181 180 182 182 180 175 169 166 167 164 177 179 170 185 177 183 180 187 170
248 243 236 223 191 187 182 202 202 174 174 174 214 188 173 183 223 178 169 164 175 194 203 187 190 187 186 184 199 187 125 162 181 146 179 169 173 175 177 186 188 189 193
248 245 244 242 223 210 197 183 207 198 191 184 184 178 181 186 177 208 226 167 169 167 162 162 162 182 161 189 190 191 133 188 188 182 171 187 166 157 141 180 151 166 171
250 251 249 250 242 234 222 204 201 203 203 191 189 190 189 186 195 190 182 193 184 168 170 163 167 171 194 170 151 183 184 176 180 147 170 177 184 153 181 178 181 170 191
265 267 268 264 270 276 243 230 219 209 205 205 203 202 199 198 199 195 200 196 185 183 176 173 172 172 170 169 171 149 174 187 183 183 180 183 147 184 183 186 190 168 192
265 268 272 272 272 279 281 289 295 271 237 230 228 223 218 217 213 210 208 206 204 196 240 184 181 178 178 179 185 181 182 184 207 200 175 194 187 161 192 191 189 192 194
248 258 272 274 278 278 284 296 295 283 287 296 287 248 241 111 232 228 224 224 222 217 212 208 198 194 193 192 188 184 184 191 188 188 193 195 199 195 206 181 202 205 205
247 247 244 269 253 250 250 262 271 288 280 274 286 285 282 280 268 246 239 238 230 226 225 224 222 220 218 215 211 211 211 212 209 207 208 211 211 209 213 215 219 256 233
255 261 259 271 264 263 274 274 268 267 262 283 277 263 265 271 279 284 282 277 270 258 248 243 240 237 234 233 233 230 227 224 223 220 221 221 224 231 237 247 261 228 233
248 254 255 253 260 264 265 263 277 273 272 271 269 271 275 278 295 297 308 318 318 316 298 281 281 276 276 289 329 267 268 268 265 268 253 250 249 252 250 282 268 256 259
248 246 250 255 258 254 256 256 274 257 259 260 261 262 267 296 321 293 306 272 306 405 335 309 309 323 319 302 322 313 332 352 312 282 294 285 312 271 319 269 277 289 268
263 258 253 255 260 261 271 271 274 275 278 278 278 279 279 277 291 292 332 327 341 321 369 379 323 315 305 323 327 345 306 282 287 270 266 269 303 316 275 282 275 252 257
262 267 267 264 264 268 261 267 269 273 286 280 264 281 281 277 284 282 299 301 295 323 335 367 368 303 305 301 301 302 310 310 305 307 301 299 286 279 273 285 275 255 258
267 281 281 281 282 274 275 277 271 263 275 269 280 274 274 280 285 281 279 307 301 309 320 317 330 329 298 339 342 327 294 283 322 319 290 277 262 258 265 257 263 259 250
267 268 271 267 261 263 262 259 274 272 282 279 278 273 290 285 273 272 283 276 301 298 276 307 298 289 307 304 293 333 278 283 289 298 278 269 262 251 259 265 238 257 244
267 274 280 288 270 273 276 271 277 282 278 272 284 278 263 271 270 266 264 275 271 289 280 273 278 282 282 290 293 301 309 294 293 293 267 265 274 273 258 264 246 250 250
288 288 286 284 283 276 282 293 273 268 268 273 282 270 256 264 270 252 264 264 266 267 279 279 280 259 285 273 272 278 290 289 278 272 275 260 276 264 252 275 268 251 253

GFSMW_2pvu_pres_099.txt.gz
Presure
181 146 179 180 182 172 182 171 180 188 175 170 186 157 162 162 152 179 177 168 169 170 161 160 163 142 135 167 161 142 167 145 163 151 144 146 159 159 169 171 163 187 161
186 200 174 174 172 177 173 182 178 170 190 188 172 172 205 168 167 152 158 147 157 157 163 160 156 170 171 171 162 176 177 192 164 186 176 161 178 161 178 192 160 187 155
181 182 149 174 166 176 178 174 177 179 177 189 185 175 173 178 178 169 159 155 163 160 163 161 150 154 162 165 169 165 174 170 191 182 182 177 174 183 181 161 180 157 166
181 183 180 178 172 156 171 176 173 163 180 166 184 202 195 199 179 198 174 173 171 167 172 173 180 166 169 170 187 151 161 172 167 175 181 199 164 187 178 169 186 169 188
224 177 186 181 179 177 178 181 175 186 168 181 180 178 182 183 181 180 180 180 168 163 202 173 180 167 176 178 180 177 180 185 184 188 163 177 167 152 163 163 188 160 176
242 208 181 192 187 182 148 116 181 165 180 177 179 182 166 177 183 184 180 171 173 147 162 169 171 171 174 168 182 206 184 177 178 196 142 181 193 189 158 190 151 150 173
240 233 238 242 223 170 191 175 179 181 166 180 186 169 179 180 179 179 129 188 180 179 177 157 156 162 173 174 178 177 184 179 182 184 181 189 183 164 161 137 160 155 181
253 232 236 238 242 236 188 187 183 180 183 183 174 183 186 185 174 175 186 188 180 181 181 156 192 148 153 165 170 173 164 182 178 170 183 180 178 185 149 154 165 182 186
251 246 252 240 241 237 195 196 198 186 179 180 186 176 169 186 187 190 180 187 190 197 178 176 184 198 201 185 169 169 177 159 173 162 181 183 153 184 187 187 157 199 153
263 253 249 243 248 251 245 191 185 175 191 179 167 163 169 174 174 184 190 192 191 190 194 205 171 162 162 192 181 136 149 174 175 167 156 153 166 176 173 177 164 174 166
258 257 254 147 245 250 248 242 194 194 207 217 206 185 177 166 161 163 183 171 171 188 192 200 185 186 187 173 174 95 186 207 151 155 192 148 174 183 171 175 174 170 168
255 253 250 250 247 243 249 253 181 193 200 207 239 164 172 173 167 174 172 173 194 199 206 173 170 205 218 214 208 166 162 156 168 164 164 174 173 203 202 200 198 189 182
259 255 255 249 245 244 246 245 239 244 214 194 219 259 254 221 173 182 183 178 175 176 197 201 190 175 172 167 194 163 173 195 165 170 168 168 167 170 175 181 209 204 203
261 254 253 249 247 249 249 246 243 239 219 191 184 183 201 213 206 206 197 169 174 172 180 183 180 176 175 183 182 174 173 219 215 205 188 178 174 173 177 177 184 182 194
260 251 254 252 251 250 250 253 255 257 249 245 237 214 194 192 190 190 184 191 187 187 185 185 183 186 188 190 189 190 191 187 184 192 214 214 208 189 176 187 184 185 193
258 290 273 265 256 255 255 255 258 263 268 264 262 255 244 233 227 214 204 202 195 195 195 194 196 202 204 203 202 203 203 206 200 228 195 230 223 210 135 192 194 143 201
267 269 264 264 259 261 265 269 271 274 281 293 290 298 287 281 298 304 285 254 238 235 229 226 227 208 227 226 223 221 218 218 220 193 212 208 208 207 206 156 210 215 214
257 253 251 255 257 259 257 258 267 259 268 275 263 260 285 282 274 276 278 281 284 286 284 274 262 255 249 245 243 242 237 234 235 232 230 225 223 221 222 222 222 224 225
253 252 251 251 252 254 244 249 254 250 256 260 269 274 281 284 283 260 250 260 289 266 267 270 274 276 279 282 281 279 272 262 254 223 249 247 247 248 248 251 302 250 259
268 270 250 256 255 256 258 257 259 262 261 261 261 260 265 275 278 273 280 310 315 292 292 297 297 320 275 326 330 332 310 308 339 323 313 285 276 276 334 346 252 309 303
266 253 251 250 251 252 253 253 251 254 257 257 261 263 282 286 288 286 279 288 301 299 294 331 339 322 319 353 367 332 316 278 297 307 308 324 327 325 292 290 285 283 280
264 257 255 254 257 254 253 254 256 256 254 254 266 273 275 276 276 287 304 286 279 284 279 301 326 334 309 300 295 326 370 314 302 301 295 301 300 338 302 303 309 277 278
264 268 270 270 270 265 261 259 261 261 269 265 271 268 279 283 268 284 288 280 282 278 286 287 302 308 304 310 325 326 326 335 331 323 291 284 293 297 288 285 290 278 278
274 267 265 264 263 255 258 270 259 269 275 278 271 274 269 269 269 285 290 277 277 284 276 277 279 299 288 276 299 291 291 297 297 313 338 298 310 309 301 280 276 264 265
270 266 263 264 264 265 264 262 266 264 266 264 266 274 280 265 281 284 297 282 274 288 272 271 275 276 291 278 273 281 286 286 284 289 312 289 276 283 295 282 274 262 259
257 260 269 273 275 276 280 268 267 275 287 258 284 292 290 283 277 272 275 273 268 271 271 263 265 266 269 279 277 278 266 276 275 270 302 287 275 275 287 277 272 271 271

GFSMW_2pvu_pres_102.txt.gz
Presure
184 180 178 192 177 167 77 160 170 161 125 185 184 221 193 169 163 162 165 169 191 138 165 161 158 163 157 166 165 163 170 173 175 176 180 175 179 178 185 169 198 182 188
178 172 170 173 192 151 157 167 160 163 168 153 171 209 195 201 151 157 184 178 166 168 166 163 144 161 159 162 161 165 167 174 176 167 164 174 179 166 176 178 183 159 193
187 173 174 176 202 195 174 160 147 151 158 175 171 166 178 166 212 225 160 180 183 153 192 166 156 150 155 148 163 167 172 176 180 178 184 188 175 167 163 165 174 185 164
190 189 185 179 169 182 187 173 159 158 163 163 167 177 177 169 171 166 180 176 161 171 173 203 155 182 170 169 163 174 176 177 174 184 178 169 183 199 176 176 178 176 170
261 171 196 183 176 175 184 180 176 166 160 161 165 167 171 170 158 153 168 185 182 183 181 173 169 138 183 183 185 171 168 166 169 170 170 171 190 194 179 190 176 177 181
181 181 179 153 186 155 176 76 129 148 173 167 167 170 165 160 169 166 176 174 186 185 191 194 205 184 173 181 181 178 178 190 167 148 179 173 180 181 180 195 181 179 175
237 170 175 187 200 205 186 178 186 180 165 166 161 158 166 171 166 163 167 174 183 178 174 183 198 182 182 182 185 139 177 155 180 168 183 187 182 190 165 158 169 189 158
256 222 178 188 229 216 173 186 175 180 183 161 172 164 162 163 170 174 168 162 177 175 176 171 174 175 177 173 178 179 177 173 174 182 173 197 189 183 158 194 204 160 185
255 262 188 275 259 233 262 188 179 171 179 182 163 180 173 174 155 166 164 168 146 178 172 173 171 170 171 176 161 185 181 180 177 159 174 161 171 140 170 183 163 160 166
278 283 242 264 258 256 242 242 240 192 165 185 172 182 182 173 168 175 172 171 171 176 183 174 171 171 173 170 174 176 185 187 169 189 192 183 175 170 157 175 160 166 158
295 287 275 260 294 268 255 206 242 206 188 188 211 202 188 186 180 178 179 180 184 181 178 178 163 177 179 185 168 165 181 166 179 184 185 187 193 196 186 201 171 148 180
263 264 260 254 254 255 253 246 250 231 229 229 181 240 231 194 189 188 184 177 180 179 174 174 176 164 178 171 164 174 182 165 163 166 163 165 161 165 196 200 203 201 202
270 273 268 272 268 265 260 258 245 243 234 239 244 250 245 170 220 192 193 196 197 189 189 182 179 175 172 177 174 182 193 194 196 201 200 164 176 173 175 176 174 184 206
288 277 272 280 265 281 251 249 255 242 243 248 253 248 260 260 258 187 186 183 189 203 203 212 210 186 186 181 176 187 170 169 165 166 172 174 202 173 175 181 183 185 186
302 288 294 285 262 259 257 255 255 252 250 249 252 254 252 253 253 250 223 187 183 198 200 205 233 251 231 201 195 194 182 179 210 182 183 179 182 183 183 166 188 186 192
270 281 272 263 259 260 260 257 253 250 250 252 255 253 252 251 249 244 241 232 225 219 210 182 198 201 238 218 182 184 236 225 219 191 212 201 200 201 206 206 206 206 206
322 279 272 276 269 262 261 256 252 252 252 253 253 255 257 259 262 263 266 263 257 255 254 238 213 199 198 198 196 196 197 198 197 198 204 211 216 217 219 219 218 217 218
293 269 262 259 263 256 253 255 252 245 242 252 255 258 267 279 272 289 297 288 288 288 300 295 286 284 288 285 271 260 251 247 246 243 241 239 236 235 236 234 235 234 235
284 280 278 281 288 252 249 251 267 267 262 261 268 262 272 268 261 260 259 260 252 258 309 267 292 257 280 280 281 280 280 282 286 287 279 277 274 266 267 268 262 262 261
299 294 272 272 270 262 258 259 256 254 255 254 261 258 258 261 262 254 264 268 276 257 302 285 299 295 309 328 296 317 334 267 284 269 292 273 271 265 292 306 328 336 328
271 280 287 270 264 264 267 261 259 259 255 254 258 260 271 270 269 263 269 267 258 283 273 283 301 305 311 299 303 298 321 291 285 270 379 371 322 296 309 303 315 311 298
271 267 260 272 273 269 260 256 257 263 266 259 259 255 251 257 259 263 272 271 268 264 285 293 296 299 287 297 284 305 307 316 305 365 368 358 350 337 316 327 321 294 290
267 265 257 257 256 266 254 255 257 254 249 249 254 254 257 260 264 262 267 276 286 288 277 279 287 298 286 277 285 286 298 304 299 308 323 323 326 331 319 269 291 303 285
290 288 278 265 260 255 254 253 251 251 252 255 259 262 262 256 255 263 274 276 273 268 277 276 289 283 281 292 281 286 292 281 290 284 286 292 295 298 326 293 315 313 272
261 262 268 277 280 277 273 270 271 271 270 265 260 257 259 268 264 272 270 283 290 279 278 286 287 292 274 281 271 270 276 290 275 266 277 276 275 290 319 308 300 294 288
262 264 266 261 262 263 263 267 267 266 264 266 264 263 261 277 268 281 289 289 292 291 283 281 271 277 275 271 267 267 264 266 273 274 279 274 276 278 283 282 277 284 287

GFSMW_2pvu_pres_105.txt.gz
Presure
157 125 140 164 171 156 133 155 146 126 136 147 159 156 155 160 171 181 164 165 167 163 172 180 174 171 166 167 174 190 148 165 169 169 170 178 172 170 172 176 128 182 154
186 171 139 170 168 149 136 117 195 159 167 155 192 170 192 201 191 163 194 174 137 187 178 171 162 168 175 163 160 163 163 185 174 160 171 139 153 152 174 174 169 189 171
214 78 188 167 158 139 143 152 150 169 172 167 156 153 187 169 188 155 180 177 174 172 200 182 189 175 146 179 177 180 179 181 197 200 183 183 182 179 176 173 191 178 173
231 218 152 87 190 179 165 171 219 163 198 154 154 157 159 148 149 157 135 134 152 177 203 193 201 205 209 203 212 204 207 175 144 195 209 200 197 172 202 183 177 179 185
215 214 207 188 169 172 161 151 152 177 166 173 159 150 163 159 131 162 154 154 169 158 155 156 151 168 159 198 206 178 193 199 193 182 187 182 188 190 177 142 140 171 198
191 214 194 129 171 175 185 177 185 128 144 171 177 175 162 157 160 160 160 168 160 158 177 173 164 175 178 172 153 158 157 191 172 190 190 186 190 187 186 179 197 146 184
262 214 213 169 191 150 162 161 182 166 173 171 160 172 180 162 144 145 169 168 161 163 157 153 147 169 177 176 171 163 166 185 168 177 175 185 176 176 183 180 183 136 180
190 266 181 225 209 197 191 172 159 169 173 180 135 174 163 185 162 176 172 174 170 172 168 170 169 158 165 165 174 181 169 176 178 170 169 164 172 181 159 174 166 187 179
228 232 226 148 230 221 208 199 172 163 177 129 167 170 181 177 177 167 170 163 167 167 169 163 169 148 157 166 166 155 156 167 170 169 172 173 167 160 164 166 173 172 175
243 250 148 152 153 216 266 140 175 175 176 169 173 174 176 166 165 177 156 167 170 170 172 170 165 160 159 163 181 172 171 171 172 163 167 155 169 179 168 166 165 172 177
245 198 206 272 249 160 243 212 159 173 177 172 169 184 184 179 164 164 191 192 184 177 170 172 168 168 154 166 173 164 166 183 158 162 172 178 166 166 163 165 164 170 165
280 251 254 275 253 257 162 246 256 252 170 172 178 187 175 209 211 184 180 176 169 184 180 179 181 182 172 180 183 175 176 179 181 175 179 177 164 159 163 156 164 167 156
261 257 255 272 260 263 261 266 266 264 202 189 187 180 199 245 248 180 170 167 184 169 171 185 179 174 184 188 177 168 159 169 165 172 179 179 173 172 173 163 160 159 164
249 248 252 248 251 246 253 257 256 264 275 252 257 246 227 224 233 238 208 205 206 163 156 185 183 209 218 187 183 183 184 190 184 191 214 213 198 182 177 187 181 173 169
259 258 256 257 262 257 258 266 266 263 251 178 236 259 260 251 251 249 248 249 253 229 226 233 248 256 269 250 249 188 186 190 187 192 203 212 211 209 209 215 208 205 202
275 275 273 269 271 270 266 266 262 206 266 268 252 253 300 266 264 266 251 251 251 263 262 257 260 261 259 253 249 253 245 202 202 198 199 191 185 184 190 189 190 194 194
267 269 262 266 269 265 266 260 270 273 278 272 280 277 272 266 257 254 263 260 256 252 217 259 257 257 260 261 253 247 240 235 230 231 229 205 197 201 203 203 205 208 211
324 301 295 291 281 279 286 290 289 290 323 297 264 258 254 253 253 208 190 253 256 257 186 247 265 252 255 273 284 286 288 294 303 299 297 302 305 287 286 265 262 263 258
287 284 332 344 297 288 314 305 299 267 263 260 259 258 257 252 252 250 251 256 249 262 277 261 279 264 262 281 271 263 257 299 308 270 294 292 270 295 294 296 291 297 287
289 292 316 276 276 276 274 270 252 281 269 255 255 251 243 255 253 250 250 259 264 271 275 264 285 260 243 286 282 299 257 258 260 247 279 280 276 260 346 338 254 252 254
295 293 303 272 257 295 284 260 266 264 256 253 252 248 257 261 250 259 258 255 262 261 263 249 266 258 246 263 295 302 306 309 286 295 291 282 322 318 347 379 332 335 354
277 289 277 291 291 283 278 274 267 269 273 262 270 261 256 252 260 268 263 251 248 254 261 260 273 259 262 295 299 288 292 298 289 295 283 298 300 305 323 349 346 344 331
264 276 267 270 278 299 281 270 267 271 259 262 264 253 253 250 249 246 260 264 258 261 257 265 269 275 286 286 283 279 291 300 284 294 286 289 289 283 298 293 320 327 303
276 281 279 268 262 265 265 262 282 274 266 259 260 259 257 258 260 265 253 253 257 255 270 268 263 276 285 286 300 281 292 290 287 285 283 273 287 277 283 296 294 297 316
284 291 294 274 272 264 262 261 256 255 257 257 255 256 253 253 252 253 251 251 263 271 265 278 265 282 302 292 285 280 282 290 281 275 270 272 270 281 273 272 273 277 297
268 270 265 271 280 289 273 263 260 258 258 257 256 255 254 257 261 273 274 265 262 265 270 275 273 297 289 292 295 287 278 268 276 272 266 268 261 265 265 279 276 272 279

GFSMW_2pvu_pres_108.txt.gz
Presure
197 218 176 147 140 166 145 126 119 133 145 191 189 156 196 151 143 140 143 174 175 180 161 164 171 168 166 159 149 168 180 189 188 169 177 182 178 199 148 153 169 159 200
209 165 201 173 170 142 187 145 170 187 154 143 123 168 198 156 161 137 161 131 126 169 157 150 159 165 187 183 181 179 185 181 163 171 188 173 185 195 171 183 212 182 181
140 207 181 155 168 152 156 118 124 178 194 156 141 154 135 156 165 161 167 149 161 173 166 173 170 168 184 158 143 148 152 127 210 202 179 173 202 217 232 172 181 208 188
240 202 194 183 191 160 165 143 142 141 157 157 187 162 138 155 207 152 194 150 171 150 215 139 154 130 132 166 198 187 186 133 127 161 201 179 191 169 151 173 191 182 172
198 151 174 195 174 155 151 131 145 136 134 141 157 167 156 135 169 196 157 170 166 126 151 178 159 148 134 170 147 172 176 178 177 163 171 175 194 187 188 186 163 180 178
247 231 164 180 163 172 179 157 176 168 161 144 158 183 148 154 175 169 170 168 143 167 162 108 163 161 141 155 161 164 149 148 163 174 159 182 168 179 188 182 177 183 180
245 219 213 189 210 176 176 173 166 165 148 188 154 158 170 164 157 151 157 165 180 163 190 173 158 172 165 194 167 155 166 169 170 119 167 171 163 177 165 163 176 174 175
266 233 192 151 174 180 182 174 176 139 156 158 143 158 181 159 161 151 177 187 161 145 170 169 164 172 148 158 177 168 193 171 171 168 157 168 162 170 172 169 166 153 173
294 240 157 166 159 129 176 196 174 156 161 132 172 195 167 168 172 170 169 168 164 163 146 165 158 173 185 154 152 166 184 165 169 167 171 170 162 174 198 174 153 183 149
259 235 240 236 231 199 191 176 166 178 168 166 156 149 151 169 158 149 177 131 161 168 165 162 175 169 139 176 188 187 173 170 175 159 164 138 176 178 174 175 172 178 186
241 251 262 236 247 215 212 187 178 186 187 184 186 131 183 161 170 178 159 128 155 188 180 163 174 146 180 153 155 181 185 186 178 175 178 180 163 163 169 179 169 157 176
251 263 272 248 223 179 218 222 198 196 194 158 193 191 179 176 192 193 186 175 160 161 173 173 166 172 178 150 180 184 179 145 188 162 168 174 175 178 180 180 183 184 183
241 269 252 267 251 164 238 229 251 152 188 144 202 193 193 164 176 184 143 144 163 165 160 151 179 157 181 184 173 154 158 183 171 151 179 178 178 181 189 179 184 186 177
240 241 242 246 263 254 249 263 228 233 224 138 174 191 172 203 203 150 171 170 172 164 162 181 168 184 176 181 188 174 222 213 176 188 190 193 176 200 229 229 248 249 209
248 246 240 238 270 267 264 268 277 241 237 289 226 210 231 216 183 229 210 175 181 242 190 184 181 161 171 212 205 248 256 242 240 244 242 234 235 253 261 265 266 264 262
254 253 255 268 245 266 244 249 253 248 263 297 271 206 198 273 138 154 288 229 264 233 262 258 184 231 182 233 245 250 260 248 175 231 235 256 255 254 253 253 261 260 249
268 272 268 240 242 245 259 255 261 254 269 269 240 262 255 260 252 259 221 158 252 217 211 247 200 255 268 191 256 247 254 265 252 264 269 306 293 291 333 307 324 315 314
267 257 257 269 271 259 258 253 277 262 258 249 251 254 252 256 264 258 235 231 249 243 248 246 260 270 270 265 236 269 253 258 276 272 263 285 310 289 299 307 320 300 294
268 264 263 260 260 259 260 265 258 257 249 256 253 255 260 267 273 268 272 283 279 260 250 266 265 260 261 265 263 257 251 281 263 292 274 263 293 316 262 305 281 266 324
266 274 258 265 274 270 265 259 256 250 254 261 273 266 282 261 269 275 272 277 305 279 268 261 261 259 258 259 254 269 270 270 264 265 245 254 266 308 310 309 295 306 310
307 277 272 272 275 262 264 258 258 272 271 276 273 275 269 271 264 285 297 281 262 260 255 251 249 246 254 259 264 263 254 255 283 254 288 288 290 293 310 299 292 295 302
309 314 311 315 317 314 300 300 315 290 331 336 319 305 322 279 278 284 253 249 246 252 246 249 246 240 264 258 255 244 258 263 257 274 297 293 283 302 294 292 287 294 287
296 307 292 286 286 291 297 291 296 301 308 266 271 281 265 280 256 251 250 252 249 274 273 259 256 255 249 251 253 247 243 275 274 285 284 302 284 294 289 283 279 280 284
297 307 285 284 283 280 295 277 300 287 283 265 254 254 271 271 256 247 239 264 259 268 265 260 249 248 251 251 243 262 270 275 278 289 316 291 281 293 288 278 269 272 278
279 288 281 280 275 277 270 273 275 279 298 278 273 281 286 285 285 277 257 253 257 252 251 249 253 258 259 253 261 284 271 284 286 295 297 300 283 278 272 269 267 264 266
283 285 293 287 284 282 276 274 270 261 267 272 280 281 270 268 265 260 260 261 259 261 249 260 258 256 259 266 268 267 288 278 297 281 278 289 279 271 269 266 271 262 255

GFSMW_2pvu_pres_111.txt.gz
Presure
233 217 203 213 184 196 158 136 159 123 146 150 134 127 132 127 141 170 111 126 151 165 142 151 156 126 137 186 176 177 162 166 163 173 180 183 150 191 214 157 153 222 182
241 177 198 190 185 175 159 133 168 161 155 138 173 107 146 143 153 129 145 130 160 158 154 128 122 154 151 131 156 180 177 170 161 175 177 154 132 184 160 172 173 171 179
223 215 207 192 196 173 147 147 140 199 184 146 176 164 134 154 111 184 137 150 159 149 170 132 162 147 178 183 185 170 170 159 156 161 182 143 161 162 163 171 163 173 152
227 240 198 188 202 215 148 133 157 162 157 153 153 182 160 164 183 182 141 134 196 139 128 148 140 150 184 153 144 155 161 152 140 158 170 153 159 158 160 178 178 171 178
235 215 194 192 201 192 148 137 179 158 182 146 150 139 152 177 144 190 180 184 127 127 149 160 148 122 196 168 157 167 124 154 197 150 161 171 183 160 166 173 185 147 181
239 222 216 190 194 188 195 182 155 147 170 152 163 148 174 172 152 167 177 155 147 170 133 208 156 167 170 157 201 198 143 176 174 172 177 162 172 197 175 153 164 187 162
235 232 217 204 196 178 170 159 179 158 147 158 144 147 140 128 153 145 141 167 195 182 162 186 185 187 180 148 154 152 160 157 186 167 167 184 180 189 198 181 171 170 189
262 215 209 208 205 207 200 176 209 146 159 146 143 176 172 170 182 122 151 160 193 194 195 168 151 197 177 180 174 142 185 187 155 175 158 173 159 188 149 184 189 160 142
267 262 216 206 141 210 181 194 191 193 186 173 180 187 164 169 158 156 147 193 156 182 161 183 175 166 136 164 127 161 137 196 166 146 177 182 167 158 173 184 143 177 175
246 287 223 211 212 204 182 180 187 141 177 163 169 156 147 155 145 147 164 159 168 169 158 162 170 149 190 189 158 184 166 169 158 195 175 177 161 156 174 163 144 181 189
253 277 249 216 201 190 187 180 186 179 182 143 159 189 178 175 176 166 165 163 153 164 171 187 163 174 164 191 173 189 215 162 171 196 163 155 155 155 171 156 184 187 182
262 249 259 237 211 201 195 189 183 188 196 178 144 180 177 153 168 172 150 171 162 173 178 156 162 178 179 155 170 179 197 165 195 157 160 152 155 208 153 181 179 181 197
265 245 227 253 234 204 191 194 207 189 173 181 183 170 198 203 175 184 190 184 144 163 172 173 185 209 184 175 156 178 140 144 157 179 181 188 174 177 189 181 183 198 200
239 261 239 248 252 242 205 195 195 176 166 182 181 166 174 171 180 176 169 179 186 159 180 177 174 162 172 176 185 164 173 198 193 201 186 190 207 196 191 187 203 216 256
236 262 268 284 248 251 236 211 201 200 195 189 204 156 185 165 154 178 170 183 186 145 148 153 178 180 153 186 143 181 187 185 202 166 199 220 243 254 278 222 221 247 270
240 245 255 268 284 253 267 239 247 199 197 199 198 190 185 178 184 184 189 183 170 143 177 179 189 136 183 145 159 160 208 181 196 224 226 264 212 249 214 228 230 281 302
255 237 245 243 244 241 265 280 255 234 219 213 200 194 200 154 198 197 195 195 193 191 176 185 174 195 192 197 198 197 181 224 223 244 221 206 148 200 261 207 252 266 320
246 247 259 251 244 246 269 267 267 257 243 234 235 224 213 204 203 204 203 204 206 178 202 197 195 174 202 203 154 217 173 236 205 243 250 261 215 239 241 265 272 209 282
261 255 260 255 256 248 267 268 265 260 263 289 272 264 251 238 236 222 223 215 215 223 212 222 230 234 235 235 246 236 239 207 272 206 214 264 268 264 267 277 262 265 311
249 254 250 250 248 258 253 247 248 252 252 255 240 262 264 258 258 276 264 265 267 283 262 215 226 263 265 256 258 274 286 267 239 256 269 262 260 272 274 274 244 292 301
260 260 257 264 250 252 253 260 266 261 250 258 257 261 253 256 265 263 262 269 243 251 260 257 258 256 253 262 276 283 280 272 267 262 257 260 265 264 267 266 287 298 303
265 266 259 262 264 260 256 251 264 267 266 271 265 258 255 249 262 256 253 271 253 255 249 250 261 280 273 255 302 270 265 263 251 251 262 272 255 251 260 259 290 301 309
333 331 328 269 253 260 256 261 260 261 260 258 255 262 278 253 261 266 279 264 273 273 268 287 311 310 302 298 285 247 267 254 270 264 243 242 252 266 250 288 302 311 296
311 319 318 325 332 336 325 320 315 290 290 281 264 263 267 265 281 273 262 260 318 337 320 308 296 280 284 285 244 251 261 270 274 266 254 253 259 263 282 296 304 289 298
306 303 298 302 319 300 299 307 298 296 292 297 305 306 298 308 295 294 299 302 283 293 278 287 285 280 265 254 249 266 275 274 250 251 258 265 262 279 293 295 294 277 297
311 305 299 292 292 290 300 303 296 286 285 277 278 280 288 286 289 296 281 278 285 268 287 296 272 270 258 267 256 253 253 260 255 253 264 255 278 280 289 296 279 280 275

GFSMW_2pvu_pres_114.txt.gz
Presure
128 149 141 133 135 146 144 189 195 175 103 96 226 188 136 142 122 161 142 141 125 155 104 137 133 125 119 151 118 143 157 121 188 130 137 206 153 140 145 158 161 158 164
95 98 127 146 150 147 140 119 156 153 179 162 192 168 195 102 108 106 128 139 139 125 131 153 148 123 119 180 149 122 167 174 154 166 154 150 149 148 132 159 156 159 167
94 148 150 159 156 148 149 153 140 159 157 184 192 172 162 127 84 135 100 128 125 171 152 111 131 124 179 151 130 146 171 139 151 162 172 159 206 144 158 143 193 155 159
208 207 187 198 160 157 153 181 166 156 167 186 188 187 189 162 202 151 149 110 141 119 198 159 134 132 144 158 129 132 150 157 153 199 132 166 163 167 159 162 161 158 172
212 205 191 171 160 198 203 184 156 186 167 203 168 162 157 135 135 154 156 150 148 139 114 140 162 121 138 160 179 138 145 187 214 150 206 158 139 163 152 165 161 166 170
219 211 193 191 183 182 203 186 190 192 178 177 194 187 164 145 135 161 168 156 146 166 176 150 124 198 158 212 190 197 150 84 132 205 170 156 159 195 167 183 164 177 148
215 210 197 185 189 190 186 202 196 161 198 163 169 208 160 157 173 191 187 177 146 118 159 145 157 168 202 126 142 170 158 161 182 171 153 179 178 146 171 173 191 196 169
226 216 198 189 207 193 185 196 177 228 196 160 161 174 166 153 160 150 163 165 180 144 114 179 159 187 131 133 158 164 161 186 158 161 166 160 145 147 174 135 179 174 155
247 221 229 207 192 202 186 182 176 197 182 189 178 178 172 156 157 143 186 181 171 162 139 164 148 148 168 205 170 151 177 173 198 161 135 175 160 194 134 174 150 148 176
228 232 215 213 203 206 208 199 213 181 174 171 173 193 179 163 177 156 148 176 161 170 169 178 162 140 197 145 157 191 172 186 160 184 193 194 180 182 197 195 172 188 218
239 222 228 225 209 204 189 191 188 187 178 198 174 177 175 179 191 159 178 167 167 158 179 149 171 180 152 133 151 174 188 154 169 172 164 191 191 163 178 147 175 167 152
237 229 213 227 217 200 209 192 193 210 201 192 171 184 166 185 170 149 158 166 169 152 162 165 167 191 153 179 194 166 186 176 187 172 214 178 170 175 197 143 199 182 176
245 223 219 194 204 202 197 200 193 208 181 181 198 187 185 180 169 167 167 160 134 183 196 186 163 154 179 171 173 186 193 171 173 189 172 167 183 151 144 158 211 146 205
274 237 224 235 220 202 204 191 196 193 189 187 183 180 176 180 187 172 165 176 171 167 187 182 170 177 177 183 138 155 163 178 168 163 185 185 133 171 152 187 168 203 178
269 245 250 239 216 201 204 210 202 189 198 184 182 182 208 184 181 179 196 176 179 181 178 193 160 160 191 172 154 176 156 169 185 168 177 180 136 167 193 202 199 170 205
278 275 278 257 229 213 200 200 203 196 190 187 189 186 193 178 192 185 169 191 176 196 168 160 142 186 144 150 181 182 200 198 135 168 190 186 191 199 178 202 208 216 212
242 280 251 275 270 226 213 197 198 204 200 202 190 194 190 189 185 178 190 195 182 187 189 171 160 178 189 160 152 187 198 156 181 150 191 190 180 179 202 195 221 216 180
240 267 258 274 265 253 270 209 202 197 195 189 196 186 182 182 205 198 179 182 186 172 176 178 176 174 186 182 164 162 180 175 189 185 176 192 197 201 201 213 214 204 235
269 243 246 259 258 251 264 254 259 228 211 196 193 192 191 184 183 183 182 202 182 183 186 149 168 180 151 173 176 177 173 190 185 170 190 187 201 205 206 210 221 197 231
246 244 268 244 257 291 249 266 255 263 218 206 237 197 199 193 194 187 179 178 181 181 187 188 189 187 188 163 178 191 188 177 197 191 202 204 213 216 216 234 239 278 277
248 253 252 242 256 253 251 261 262 274 248 255 223 204 206 194 192 194 193 192 191 202 182 184 192 186 185 194 190 162 187 196 201 202 214 214 222 240 255 257 221 272 267
257 262 252 253 243 254 257 239 251 257 249 263 278 286 282 277 244 207 199 201 198 185 191 191 191 193 193 196 198 193 207 220 222 213 226 239 266 234 240 284 278 273 265
291 275 275 278 263 262 253 262 248 243 250 248 252 257 257 262 270 266 265 261 259 258 235 235 208 209 214 212 218 212 201 238 267 308 284 271 297 299 283 287 274 260 280
365 366 277 272 268 274 266 264 262 261 260 263 257 252 245 242 249 247 252 251 256 244 247 272 270 268 281 242 266 255 280 270 285 270 303 294 296 276 262 278 252 280 274
382 364 324 329 324 318 309 304 277 267 263 261 255 251 266 260 248 245 254 259 248 259 265 268 267 273 266 235 253 253 320 341 311 287 282 288 286 265 266 254 258 263 264
352 443 399 346 331 315 299 316 321 327 319 318 285 303 308 264 260 260 263 268 272 306 316 311 314 335 310 319 312 292 312 294 304 299 273 262 264 263 274 272 267 280 271

GFSMW_2pvu_pres_117.txt.gz
Presure
128 131 131 126 100 110 123 132 87 112 120 99 161 125 121 189 137 130 163 144 155 119 154 134 133 128 131 147 149 180 120 168 131 166 136 127 155 181 190 142 187 195 181
194 135 126 132 139 130 139 160 186 127 133 130 122 139 140 143 151 176 150 167 88 103 150 109 133 142 128 121 128 129 150 118 148 160 122 178 151 164 135 145 175 152 137
204 166 139 173 187 123 131 125 127 122 145 109 141 150 161 158 124 140 116 179 151 119 189 145 147 122 116 147 141 110 131 121 152 143 128 121 157 147 160 149 160 195 162
164 148 135 137 162 96 167 186 160 173 150 154 133 146 156 152 170 160 137 164 221 153 148 148 129 156 141 125 128 143 119 164 146 143 126 160 149 176 137 180 159 172 166
147 139 144 150 143 144 136 158 135 133 161 132 144 171 154 180 134 146 146 120 167 198 156 172 158 149 186 147 157 129 120 172 155 136 113 130 204 121 161 159 181 156 178
143 190 135 140 147 143 133 135 140 141 137 140 141 151 146 154 154 143 193 125 167 177 167 159 167 171 99 163 165 158 154 132 152 142 131 140 148 158 164 162 187 181 185
276 143 143 141 141 147 172 151 157 148 159 198 158 163 169 174 154 166 155 189 153 177 169 195 176 168 151 201 126 139 124 192 190 143 138 146 153 169 176 166 147 187 193
265 214 202 181 175 187 197 168 152 193 166 150 178 154 160 188 179 203 193 130 176 182 168 169 143 179 154 123 174 156 174 181 123 137 150 144 145 166 188 155 179 157 187
230 225 212 205 194 185 213 216 189 175 176 169 181 158 200 169 188 183 191 181 168 151 182 140 178 150 130 163 141 191 109 117 116 165 165 154 204 166 164 188 146 167 187
210 199 211 207 188 190 196 176 177 172 178 179 182 186 186 181 193 177 172 194 171 178 160 168 181 183 187 148 160 129 166 188 135 195 159 173 202 187 159 199 192 197 183
201 200 197 191 187 197 187 200 189 187 174 169 165 175 178 169 173 176 205 172 190 178 160 190 161 180 164 165 173 141 176 162 173 142 180 129 169 172 189 167 193 176 168
202 208 199 192 191 186 201 198 184 183 196 182 211 191 177 179 187 175 175 170 171 180 192 155 153 162 188 183 181 163 173 183 189 167 182 176 202 193 193 181 184 179 188
197 188 198 192 201 198 207 181 180 202 188 181 192 189 208 200 195 200 197 203 183 195 189 188 193 174 169 187 178 150 182 174 143 212 193 200 201 178 191 183 184 154 170
189 203 190 185 192 196 198 186 181 209 189 186 200 192 170 177 201 199 190 180 175 152 190 141 162 179 166 177 180 185 170 198 181 192 175 177 159 181 155 198 184 171 189
199 201 184 196 183 190 186 181 184 184 195 180 179 183 194 188 207 192 195 188 188 180 178 178 187 179 174 180 195 165 177 153 174 155 190 178 175 158 145 193 163 187 183
219 196 189 187 193 189 170 188 189 186 183 187 189 183 185 179 182 223 170 177 188 172 175 178 180 194 181 189 178 177 178 178 177 170 173 199 184 202 187 188 172 188 190
273 263 217 197 192 180 178 189 193 191 197 189 190 194 204 177 179 182 180 176 176 197 186 183 190 193 179 188 176 173 177 183 170 180 192 155 161 181 178 191 184 168 182
271 268 256 218 195 201 190 199 191 205 197 190 193 191 189 189 183 180 183 185 177 195 186 186 194 185 193 177 188 177 189 191 156 179 186 175 177 184 194 194 165 195 192
281 275 236 259 233 212 214 203 194 196 201 198 182 183 199 191 185 191 188 193 171 173 174 187 189 182 178 187 185 174 170 184 191 190 173 161 181 188 188 189 192 188 203
269 304 252 234 261 228 239 223 223 243 215 212 201 191 197 200 190 194 184 191 185 190 199 190 181 185 189 193 184 191 175 144 193 185 171 189 176 180 192 190 180 193 201
236 247 252 286 290 208 210 229 225 231 223 243 217 225 215 210 206 200 197 189 189 183 193 182 183 182 187 197 189 179 177 168 177 172 167 191 183 175 187 202 191 191 191
249 245 251 253 245 270 278 216 216 217 203 227 214 221 183 224 208 206 208 194 193 193 191 201 193 189 190 190 186 179 183 183 187 183 174 189 193 188 196 194 194 211 196
270 255 253 239 249 240 261 262 247 249 308 280 217 216 206 205 194 220 222 204 193 174 207 178 185 189 186 195 199 167 171 184 192 186 179 191 192 195 183 181 168 206 222
440 408 295 278 266 256 250 238 250 254 252 254 251 262 254 292 268 230 213 204 207 206 200 200 199 207 208 199 182 185 184 189 193 195 194 204 200 203 206 206 208 223 203
290 313 397 499 467 392 280 273 266 255 249 263 248 249 249 256 249 243 243 242 230 209 193 183 206 203 201 200 204 207 199 189 202 205 214 206 226 207 207 243 233 241 240
260 280 307 316 434 431 446 455 383 351 275 264 262 255 257 247 248 255 257 264 245 251 241 263 246 244 266 248 240 249 200 202 227 201 248 235 258 306 318 277 284 294 289

GFSMW_2pvu_pres_120.txt.gz
Presure
158 111 222 277 94 96 135 108 130 127 95 133 90 128 136 138 106 115 113 184 117 130 128 198 177 139 132 146 109 147 117 143 110 115 110 103 109 158 137 123 182 133 147
88 132 120 210 117 105 150 120 122 81 105 86 115 127 118 138 137 121 134 138 103 136 137 135 121 153 167 158 111 136 134 151 154 149 148 147 100 158 165 143 168 124 152
163 240 196 202 287 242 134 133 132 129 126 125 133 116 116 131 121 124 139 116 107 135 163 175 143 136 157 193 154 126 102 158 109 156 122 139 156 154 171 175 155 128 157
199 182 126 267 314 253 194 170 133 127 138 141 139 123 126 136 142 153 120 131 152 128 136 133 136 150 174 93 149 196 153 144 181 181 163 166 122 143 175 174 208 128 128
117 193 144 209 248 269 229 189 171 141 104 141 135 134 138 169 144 133 147 209 148 127 206 146 140 140 131 167 101 171 171 87 123 153 168 147 192 164 197 179 106 128 144
170 162 177 213 199 255 185 207 139 124 171 143 131 140 133 164 156 149 147 85 160 139 152 149 167 100 137 105 181 141 197 81 160 177 156 167 138 120 134 136 143 129 146
161 143 199 192 160 238 213 175 175 157 161 139 142 133 162 143 172 145 196 132 149 123 145 152 145 169 140 175 169 131 160 191 174 167 186 198 125 110 195 139 128 165 140
164 141 146 175 188 183 204 233 209 152 151 139 160 143 129 138 170 165 139 154 142 157 176 179 168 184 156 158 178 172 171 156 150 181 147 128 193 164 176 195 165 158 186
145 145 144 152 166 161 175 160 153 182 157 143 141 140 144 140 169 151 158 161 152 168 181 173 151 208 171 189 181 183 146 129 139 184 181 135 165 206 139 142 127 165 193
264 148 153 149 170 150 175 188 165 134 133 164 157 161 169 157 167 166 192 173 187 190 171 188 170 176 185 174 175 173 182 189 182 126 147 164 145 156 179 183 136 195 139
255 200 149 197 158 154 143 142 143 148 148 157 142 177 160 178 164 163 165 190 160 198 192 184 186 193 201 197 191 187 176 192 199 167 160 189 171 143 199 156 195 141 197
252 225 206 199 144 164 157 152 153 164 146 171 198 187 191 168 175 172 166 173 190 173 171 168 159 188 170 201 192 198 205 190 187 168 176 125 127 195 204 144 167 169 178
230 210 204 195 209 189 208 199 173 175 217 178 177 185 166 181 183 188 168 178 181 166 172 194 206 194 174 188 170 186 155 167 192 178 194 197 167 200 194 158 194 180 152
224 215 213 203 198 208 184 183 189 181 200 212 205 198 187 185 168 173 194 192 176 173 184 175 172 182 175 209 175 168 194 178 180 173 173 197 171 192 180 186 183 157 197
236 224 214 216 209 202 190 184 192 192 204 200 200 198 202 186 182 191 196 185 183 181 182 180 178 179 182 183 177 176 190 195 190 199 184 190 164 199 183 178 177 193 158
224 214 209 193 193 199 195 189 173 189 191 182 196 183 186 198 184 198 194 196 178 176 178 174 176 178 192 212 207 205 170 178 192 189 184 183 200 180 196 177 195 196 193
211 203 185 176 196 195 201 202 191 195 192 190 192 188 197 194 188 194 210 178 176 180 174 174 178 186 174 190 176 194 193 180 180 188 199 168 175 188 156 180 171 188 187
221 225 197 203 190 195 190 196 201 183 200 191 211 200 203 200 183 193 193 181 184 171 171 189 190 192 204 179 192 181 198 166 190 189 184 192 164 189 183 197 184 195 209
211 199 213 207 197 198 196 194 184 202 193 186 190 181 182 205 195 193 187 186 212 179 179 194 207 173 174 185 178 186 205 175 170 171 189 179 179 200 181 194 169 188 186
200 208 214 219 211 189 202 203 203 194 202 189 182 205 189 170 170 183 173 202 176 180 180 190 176 179 180 180 181 182 186 185 191 177 176 173 178 191 177 180 182 182 164
208 210 213 193 222 202 194 180 189 190 197 197 212 195 197 187 195 191 185 187 185 186 180 182 189 189 213 179 174 161 177 178 177 183 172 181 182 178 185 180 192 194 183
208 205 219 206 204 192 204 188 203 191 174 174 183 183 196 206 195 196 192 188 177 179 192 206 199 187 183 180 182 189 180 187 201 185 193 185 185 175 194 197 180 192 197
215 216 191 203 202 208 191 196 192 178 184 179 180 171 169 205 186 191 199 185 195 195 195 190 184 197 201 172 173 189 194 190 190 192 186 190 193 181 188 192 181 166 194
382 397 378 236 224 226 194 192 204 204 205 205 205 203 188 193 200 191 194 184 182 211 212 227 211 239 208 199 204 199 195 194 192 192 196 206 203 199 202 201 195 192 193
273 276 304 333 346 380 401 401 427 308 240 268 286 225 215 217 217 217 215 215 229 207 189 192 200 195 188 193 194 216 225 225 221 211 201 195 213 214 196 209 222 220 217
261 268 300 290 272 300 312 343 375 397 413 403 401 347 278 294 228 232 261 264 252 234 230 214 276 226 224 217 227 215 208 198 212 213 218 209 213 205 222 216 207 190 202